<?xml version='1.0' encoding='UTF-8'?><gpx version="1.1" creator="JPX - https://github.com/jenetics/jpx" xmlns="http://www.topografix.com/GPX/1/1"><trk><trkseg><trkpt lat="43.1720945" lon="11.1929369"><ele>359.0</ele><time>2026-04-12T13:14:47.044Z</time></trkpt><trkpt lat="43.1720385" lon="11.1928736"><ele>359.0</ele><time>2026-04-12T13:14:53.053Z</time></trkpt><trkpt lat="43.1719702" lon="11.192812"><ele>359.0</ele><time>2026-04-12T13:14:59.048Z</time></trkpt><trkpt lat="43.1719057" lon="11.1927605"><ele>359.0</ele><time>2026-04-12T13:15:04.043Z</time></trkpt><trkpt lat="43.1718503" lon="11.1927144"><ele>359.0</ele><time>2026-04-12T13:15:08.051Z</time></trkpt><trkpt lat="43.171795" lon="11.1926685"><ele>359.0</ele><time>2026-04-12T13:15:12.058Z</time></trkpt><trkpt lat="43.1717354" lon="11.1926314"><ele>359.0</ele><time>2026-04-12T13:15:17.054Z</time></trkpt><trkpt lat="43.1716802" lon="11.1925826"><ele>359.0</ele><time>2026-04-12T13:15:22.046Z</time></trkpt><trkpt lat="43.1716192" lon="11.1925463"><ele>359.0</ele><time>2026-04-12T13:15:27.063Z</time></trkpt><trkpt lat="43.1715465" lon="11.1925037"><ele>359.0</ele><time>2026-04-12T13:15:32.055Z</time></trkpt><trkpt lat="43.1714744" lon="11.1924593"><ele>359.0</ele><time>2026-04-12T13:15:37.057Z</time></trkpt><trkpt lat="43.1714048" lon="11.1924358"><ele>359.0</ele><time>2026-04-12T13:15:42.054Z</time></trkpt><trkpt lat="43.1713395" lon="11.1924089"><ele>359.0</ele><time>2026-04-12T13:15:47.09Z</time></trkpt><trkpt lat="43.1712792" lon="11.192371"><ele>359.0</ele><time>2026-04-12T13:15:55.066Z</time></trkpt><trkpt lat="43.1712197" lon="11.1923331"><ele>355.2857142857143</ele><time>2026-04-12T13:16:01.066Z</time></trkpt><trkpt lat="43.1711558" lon="11.1922883"><ele>351.57142857142856</ele><time>2026-04-12T13:16:05.057Z</time></trkpt><trkpt lat="43.1710864" lon="11.1922534"><ele>347.8571428571429</ele><time>2026-04-12T13:16:12.061Z</time></trkpt><trkpt lat="43.1710183" lon="11.192222"><ele>344.1428571428571</ele><time>2026-04-12T13:16:17.041Z</time></trkpt><trkpt lat="43.1709466" lon="11.1921956"><ele>340.4285714285714</ele><time>2026-04-12T13:16:23.063Z</time></trkpt><trkpt lat="43.1708783" lon="11.1921638"><ele>336.7142857142857</ele><time>2026-04-12T13:16:28.063Z</time></trkpt><trkpt lat="43.1708162" lon="11.1921351"><ele>333.0</ele><time>2026-04-12T13:16:34.069Z</time></trkpt><trkpt lat="43.1707532" lon="11.1921147"><ele>329.7142857142857</ele><time>2026-04-12T13:16:39.058Z</time></trkpt><trkpt lat="43.1706853" lon="11.1920749"><ele>326.4285714285714</ele><time>2026-04-12T13:16:44.062Z</time></trkpt><trkpt lat="43.170623" lon="11.1920064"><ele>323.1428571428571</ele><time>2026-04-12T13:16:50.06Z</time></trkpt><trkpt lat="43.1705553" lon="11.1919693"><ele>319.8571428571429</ele><time>2026-04-12T13:16:55.105Z</time></trkpt><trkpt lat="43.1705085" lon="11.1920392"><ele>316.57142857142856</ele><time>2026-04-12T13:17:00.06Z</time></trkpt><trkpt lat="43.1705128" lon="11.1921403"><ele>313.2857142857143</ele><time>2026-04-12T13:17:04.053Z</time></trkpt><trkpt lat="43.170532" lon="11.1922319"><ele>310.0</ele><time>2026-04-12T13:17:08.067Z</time></trkpt><trkpt lat="43.1705498" lon="11.1923304"><ele>308.8333333333333</ele><time>2026-04-12T13:17:12.066Z</time></trkpt><trkpt lat="43.1705906" lon="11.1924343"><ele>307.66666666666663</ele><time>2026-04-12T13:17:15.053Z</time></trkpt><trkpt lat="43.1706295" lon="11.1925268"><ele>306.5</ele><time>2026-04-12T13:17:17.074Z</time></trkpt><trkpt lat="43.1706609" lon="11.1926149"><ele>305.3333333333333</ele><time>2026-04-12T13:17:19.062Z</time></trkpt><trkpt lat="43.170697" lon="11.1927309"><ele>304.1666666666667</ele><time>2026-04-12T13:17:22.056Z</time></trkpt><trkpt lat="43.1707328" lon="11.1928367"><ele>303.0</ele><time>2026-04-12T13:17:25.05Z</time></trkpt><trkpt lat="43.1707578" lon="11.1929322"><ele>306.8571428571429</ele><time>2026-04-12T13:17:27.047Z</time></trkpt><trkpt lat="43.170771" lon="11.1930219"><ele>310.7142857142857</ele><time>2026-04-12T13:17:29.043Z</time></trkpt><trkpt lat="43.1707733" lon="11.1931233"><ele>314.57142857142856</ele><time>2026-04-12T13:17:31.054Z</time></trkpt><trkpt lat="43.1707788" lon="11.1932257"><ele>318.42857142857144</ele><time>2026-04-12T13:17:33.066Z</time></trkpt><trkpt lat="43.1707849" lon="11.1933207"><ele>322.2857142857143</ele><time>2026-04-12T13:17:35.061Z</time></trkpt><trkpt lat="43.1707909" lon="11.193422"><ele>326.14285714285717</ele><time>2026-04-12T13:17:37.052Z</time></trkpt><trkpt lat="43.1707879" lon="11.1935194"><ele>330.0</ele><time>2026-04-12T13:17:39.065Z</time></trkpt><trkpt lat="43.1707772" lon="11.1936146"><ele>330.0</ele><time>2026-04-12T13:17:41.093Z</time></trkpt><trkpt lat="43.1707604" lon="11.1937223"><ele>330.0</ele><time>2026-04-12T13:17:43.063Z</time></trkpt><trkpt lat="43.1707532" lon="11.1938304"><ele>330.0</ele><time>2026-04-12T13:17:45.062Z</time></trkpt><trkpt lat="43.1707632" lon="11.1939469"><ele>330.0</ele><time>2026-04-12T13:17:47.059Z</time></trkpt><trkpt lat="43.1707828" lon="11.1940507"><ele>330.0</ele><time>2026-04-12T13:17:49.051Z</time></trkpt><trkpt lat="43.1708096" lon="11.194134"><ele>330.0</ele><time>2026-04-12T13:17:51.063Z</time></trkpt><trkpt lat="43.1708215" lon="11.1942241"><ele>330.1666666666667</ele><time>2026-04-12T13:17:53.051Z</time></trkpt><trkpt lat="43.1708482" lon="11.1943497"><ele>330.3333333333333</ele><time>2026-04-12T13:17:56.069Z</time></trkpt><trkpt lat="43.1708946" lon="11.1944689"><ele>330.5</ele><time>2026-04-12T13:17:58.052Z</time></trkpt><trkpt lat="43.1709361" lon="11.1945822"><ele>330.66666666666663</ele><time>2026-04-12T13:18:00.046Z</time></trkpt><trkpt lat="43.1709791" lon="11.1946691"><ele>330.8333333333333</ele><time>2026-04-12T13:18:02.056Z</time></trkpt><trkpt lat="43.1710101" lon="11.1947615"><ele>331.0</ele><time>2026-04-12T13:18:04.071Z</time></trkpt><trkpt lat="43.1710427" lon="11.1948464"><ele>330.5</ele><time>2026-04-12T13:18:06.061Z</time></trkpt><trkpt lat="43.1710718" lon="11.1949266"><ele>330.0</ele><time>2026-04-12T13:18:08.059Z</time></trkpt><trkpt lat="43.1710991" lon="11.1950133"><ele>329.5</ele><time>2026-04-12T13:18:10.06Z</time></trkpt><trkpt lat="43.1711316" lon="11.1951019"><ele>329.0</ele><time>2026-04-12T13:18:12.053Z</time></trkpt><trkpt lat="43.1711789" lon="11.1951844"><ele>328.5</ele><time>2026-04-12T13:18:14.059Z</time></trkpt><trkpt lat="43.1712251" lon="11.1952817"><ele>328.0</ele><time>2026-04-12T13:18:16.062Z</time></trkpt><trkpt lat="43.1712863" lon="11.1953671"><ele>327.99999999999994</ele><time>2026-04-12T13:18:18.049Z</time></trkpt><trkpt lat="43.1713389" lon="11.1954355"><ele>328.0</ele><time>2026-04-12T13:18:20.064Z</time></trkpt><trkpt lat="43.1713901" lon="11.1955154"><ele>328.0</ele><time>2026-04-12T13:18:22.058Z</time></trkpt><trkpt lat="43.1714483" lon="11.1955778"><ele>328.0</ele><time>2026-04-12T13:18:24.059Z</time></trkpt><trkpt lat="43.171509" lon="11.1956223"><ele>328.0</ele><time>2026-04-12T13:18:26.053Z</time></trkpt><trkpt lat="43.1715747" lon="11.1956566"><ele>327.99999999999994</ele><time>2026-04-12T13:18:28.062Z</time></trkpt><trkpt lat="43.1716511" lon="11.1956953"><ele>328.0</ele><time>2026-04-12T13:18:30.029Z</time></trkpt><trkpt lat="43.1717239" lon="11.1957397"><ele>328.66666666666663</ele><time>2026-04-12T13:18:32.054Z</time></trkpt><trkpt lat="43.171807" lon="11.1957792"><ele>329.3333333333333</ele><time>2026-04-12T13:18:34.089Z</time></trkpt><trkpt lat="43.1719049" lon="11.1958482"><ele>330.0</ele><time>2026-04-12T13:18:36.058Z</time></trkpt><trkpt lat="43.1719694" lon="11.1959112"><ele>330.6666666666667</ele><time>2026-04-12T13:18:38.06Z</time></trkpt><trkpt lat="43.172023" lon="11.1959733"><ele>331.33333333333337</ele><time>2026-04-12T13:18:40.057Z</time></trkpt><trkpt lat="43.1720803" lon="11.1960283"><ele>332.0</ele><time>2026-04-12T13:18:42.06Z</time></trkpt><trkpt lat="43.1721455" lon="11.1960768"><ele>332.0</ele><time>2026-04-12T13:18:44.06Z</time></trkpt><trkpt lat="43.1722056" lon="11.1961179"><ele>332.0</ele><time>2026-04-12T13:18:46.058Z</time></trkpt><trkpt lat="43.1722658" lon="11.1961526"><ele>332.0</ele><time>2026-04-12T13:18:48.057Z</time></trkpt><trkpt lat="43.1723417" lon="11.1962089"><ele>332.0</ele><time>2026-04-12T13:18:51.087Z</time></trkpt><trkpt lat="43.1724048" lon="11.1962619"><ele>332.0</ele><time>2026-04-12T13:18:53.042Z</time></trkpt><trkpt lat="43.1724638" lon="11.1963198"><ele>332.0</ele><time>2026-04-12T13:18:55.055Z</time></trkpt><trkpt lat="43.1725487" lon="11.1963682"><ele>331.57142857142856</ele><time>2026-04-12T13:18:58.041Z</time></trkpt><trkpt lat="43.1726077" lon="11.1964095"><ele>331.14285714285717</ele><time>2026-04-12T13:19:00.051Z</time></trkpt><trkpt lat="43.1726762" lon="11.1964756"><ele>330.7142857142857</ele><time>2026-04-12T13:19:03.058Z</time></trkpt><trkpt lat="43.1727261" lon="11.196529"><ele>330.2857142857143</ele><time>2026-04-12T13:19:05.064Z</time></trkpt><trkpt lat="43.1727761" lon="11.1965852"><ele>329.8571428571429</ele><time>2026-04-12T13:19:07.078Z</time></trkpt><trkpt lat="43.1728448" lon="11.1966731"><ele>329.42857142857144</ele><time>2026-04-12T13:19:10.056Z</time></trkpt><trkpt lat="43.1728957" lon="11.1967284"><ele>329.0</ele><time>2026-04-12T13:19:12.053Z</time></trkpt><trkpt lat="43.1729584" lon="11.1967856"><ele>329.0</ele><time>2026-04-12T13:19:14.048Z</time></trkpt><trkpt lat="43.1730147" lon="11.1968255"><ele>329.0</ele><time>2026-04-12T13:19:16.073Z</time></trkpt><trkpt lat="43.1730929" lon="11.1968585"><ele>329.0</ele><time>2026-04-12T13:19:19.054Z</time></trkpt><trkpt lat="43.173179" lon="11.1968694"><ele>329.0</ele><time>2026-04-12T13:19:23.046Z</time></trkpt><trkpt lat="43.1732787" lon="11.1968903"><ele>329.0</ele><time>2026-04-12T13:19:26.011Z</time></trkpt><trkpt lat="43.1733738" lon="11.1969178"><ele>329.0</ele><time>2026-04-12T13:19:29.044Z</time></trkpt><trkpt lat="43.173464" lon="11.1969511"><ele>331.5</ele><time>2026-04-12T13:19:31.929Z</time></trkpt><trkpt lat="43.1735427" lon="11.196984"><ele>334.0</ele><time>2026-04-12T13:19:34.06Z</time></trkpt><trkpt lat="43.1736208" lon="11.1970233"><ele>336.5</ele><time>2026-04-12T13:19:36.054Z</time></trkpt><trkpt lat="43.1736977" lon="11.1970649"><ele>339.0</ele><time>2026-04-12T13:19:38.059Z</time></trkpt><trkpt lat="43.1737732" lon="11.1971001"><ele>341.5</ele><time>2026-04-12T13:19:40.051Z</time></trkpt><trkpt lat="43.1738503" lon="11.1971398"><ele>344.0</ele><time>2026-04-12T13:19:42.07Z</time></trkpt><trkpt lat="43.1739253" lon="11.1971751"><ele>344.0</ele><time>2026-04-12T13:19:44.071Z</time></trkpt><trkpt lat="43.173993" lon="11.1972208"><ele>344.0</ele><time>2026-04-12T13:19:46.061Z</time></trkpt><trkpt lat="43.1740539" lon="11.1972658"><ele>344.0</ele><time>2026-04-12T13:19:48.048Z</time></trkpt><trkpt lat="43.1741461" lon="11.1973164"><ele>344.0</ele><time>2026-04-12T13:19:51.061Z</time></trkpt><trkpt lat="43.1742126" lon="11.1973444"><ele>344.0</ele><time>2026-04-12T13:19:53.038Z</time></trkpt><trkpt lat="43.1742923" lon="11.1973759"><ele>344.0</ele><time>2026-04-12T13:19:55.04Z</time></trkpt><trkpt lat="43.1743737" lon="11.1974004"><ele>342.14285714285717</ele><time>2026-04-12T13:19:57.968Z</time></trkpt><trkpt lat="43.1744467" lon="11.1974172"><ele>340.2857142857143</ele><time>2026-04-12T13:20:00.062Z</time></trkpt><trkpt lat="43.1745164" lon="11.1974173"><ele>338.42857142857144</ele><time>2026-04-12T13:20:02.07Z</time></trkpt><trkpt lat="43.1745902" lon="11.197405"><ele>336.57142857142856</ele><time>2026-04-12T13:20:04.059Z</time></trkpt><trkpt lat="43.1746644" lon="11.1973841"><ele>334.7142857142857</ele><time>2026-04-12T13:20:06.066Z</time></trkpt><trkpt lat="43.1747329" lon="11.1973432"><ele>332.8571428571429</ele><time>2026-04-12T13:20:08.031Z</time></trkpt><trkpt lat="43.1747968" lon="11.197303"><ele>331.0</ele><time>2026-04-12T13:20:10.039Z</time></trkpt><trkpt lat="43.1748633" lon="11.1972616"><ele>332.66666666666663</ele><time>2026-04-12T13:20:12.047Z</time></trkpt><trkpt lat="43.1749313" lon="11.1972289"><ele>334.3333333333333</ele><time>2026-04-12T13:20:14.039Z</time></trkpt><trkpt lat="43.1750157" lon="11.1972134"><ele>336.0</ele><time>2026-04-12T13:20:17.07Z</time></trkpt><trkpt lat="43.1751024" lon="11.1972379"><ele>337.6666666666667</ele><time>2026-04-12T13:20:20.054Z</time></trkpt><trkpt lat="43.1751891" lon="11.1972868"><ele>339.33333333333337</ele><time>2026-04-12T13:20:23.031Z</time></trkpt><trkpt lat="43.1752537" lon="11.1973449"><ele>341.0</ele><time>2026-04-12T13:20:25.052Z</time></trkpt><trkpt lat="43.1753296" lon="11.197396"><ele>341.0</ele><time>2026-04-12T13:20:27.054Z</time></trkpt><trkpt lat="43.1753921" lon="11.1974393"><ele>341.0</ele><time>2026-04-12T13:20:29.052Z</time></trkpt><trkpt lat="43.1754632" lon="11.1974799"><ele>341.0</ele><time>2026-04-12T13:20:31.039Z</time></trkpt><trkpt lat="43.1755264" lon="11.1975164"><ele>341.0</ele><time>2026-04-12T13:20:32.948Z</time></trkpt><trkpt lat="43.1755947" lon="11.1975324"><ele>341.0</ele><time>2026-04-12T13:20:35.007Z</time></trkpt><trkpt lat="43.1756855" lon="11.1975433"><ele>341.0</ele><time>2026-04-12T13:20:38.048Z</time></trkpt><trkpt lat="43.1757733" lon="11.1975323"><ele>342.0</ele><time>2026-04-12T13:20:41.048Z</time></trkpt><trkpt lat="43.1758362" lon="11.1975398"><ele>343.0</ele><time>2026-04-12T13:20:43.038Z</time></trkpt><trkpt lat="43.1758999" lon="11.197562"><ele>344.0</ele><time>2026-04-12T13:20:45.054Z</time></trkpt><trkpt lat="43.1759607" lon="11.1975903"><ele>345.0</ele><time>2026-04-12T13:20:47.046Z</time></trkpt><trkpt lat="43.1760361" lon="11.1976197"><ele>346.0</ele><time>2026-04-12T13:20:49.932Z</time></trkpt><trkpt lat="43.1760998" lon="11.1976328"><ele>347.0</ele><time>2026-04-12T13:20:52.059Z</time></trkpt><trkpt lat="43.176171" lon="11.197633"><ele>348.0</ele><time>2026-04-12T13:20:54.071Z</time></trkpt><trkpt lat="43.176237" lon="11.1976298"><ele>348.0</ele><time>2026-04-12T13:20:56.042Z</time></trkpt><trkpt lat="43.1763127" lon="11.1976317"><ele>348.0</ele><time>2026-04-12T13:20:58.054Z</time></trkpt><trkpt lat="43.1763928" lon="11.1976404"><ele>348.0</ele><time>2026-04-12T13:21:00.054Z</time></trkpt><trkpt lat="43.1764693" lon="11.1976385"><ele>348.0</ele><time>2026-04-12T13:21:02.033Z</time></trkpt><trkpt lat="43.1765386" lon="11.1976227"><ele>348.0</ele><time>2026-04-12T13:21:04.066Z</time></trkpt><trkpt lat="43.1766181" lon="11.1975926"><ele>348.0</ele><time>2026-04-12T13:21:06.971Z</time></trkpt><trkpt lat="43.1767007" lon="11.1975494"><ele>348.6666666666667</ele><time>2026-04-12T13:21:10.048Z</time></trkpt><trkpt lat="43.1767745" lon="11.197501"><ele>349.3333333333333</ele><time>2026-04-12T13:21:12.054Z</time></trkpt><trkpt lat="43.1768419" lon="11.1974668"><ele>350.0</ele><time>2026-04-12T13:21:14.054Z</time></trkpt><trkpt lat="43.1769092" lon="11.1974235"><ele>350.66666666666663</ele><time>2026-04-12T13:21:16.048Z</time></trkpt><trkpt lat="43.1769638" lon="11.1973796"><ele>351.3333333333333</ele><time>2026-04-12T13:21:18.066Z</time></trkpt><trkpt lat="43.1770398" lon="11.1973181"><ele>352.0</ele><time>2026-04-12T13:21:21.058Z</time></trkpt><trkpt lat="43.1771068" lon="11.1972834"><ele>355.0</ele><time>2026-04-12T13:21:24.081Z</time></trkpt><trkpt lat="43.1771721" lon="11.1972596"><ele>358.0</ele><time>2026-04-12T13:21:27.057Z</time></trkpt><trkpt lat="43.1772528" lon="11.1972523"><ele>361.0</ele><time>2026-04-12T13:21:30.053Z</time></trkpt><trkpt lat="43.1773187" lon="11.1972313"><ele>364.0</ele><time>2026-04-12T13:21:32.037Z</time></trkpt><trkpt lat="43.1774127" lon="11.1972224"><ele>367.0</ele><time>2026-04-12T13:21:35.061Z</time></trkpt><trkpt lat="43.1774842" lon="11.1972148"><ele>370.0</ele><time>2026-04-12T13:21:37.06Z</time></trkpt><trkpt lat="43.1775601" lon="11.1972366"><ele>371.16666666666663</ele><time>2026-04-12T13:21:39.052Z</time></trkpt><trkpt lat="43.1776415" lon="11.1972679"><ele>372.3333333333333</ele><time>2026-04-12T13:21:41.046Z</time></trkpt><trkpt lat="43.1777324" lon="11.1973015"><ele>373.5</ele><time>2026-04-12T13:21:43.949Z</time></trkpt><trkpt lat="43.1778201" lon="11.1973279"><ele>374.6666666666667</ele><time>2026-04-12T13:21:46.04Z</time></trkpt><trkpt lat="43.1778972" lon="11.197353"><ele>375.83333333333337</ele><time>2026-04-12T13:21:48.024Z</time></trkpt><trkpt lat="43.1779592" lon="11.1973747"><ele>377.0</ele><time>2026-04-12T13:21:49.747Z</time></trkpt><trkpt lat="43.1780261" lon="11.1974127"><ele>375.99999999999994</ele><time>2026-04-12T13:21:52.042Z</time></trkpt><trkpt lat="43.1781044" lon="11.1974376"><ele>375.0</ele><time>2026-04-12T13:21:55.066Z</time></trkpt><trkpt lat="43.1781713" lon="11.1974732"><ele>374.0</ele><time>2026-04-12T13:21:58.057Z</time></trkpt><trkpt lat="43.1782398" lon="11.1975051"><ele>373.0</ele><time>2026-04-12T13:22:01.057Z</time></trkpt><trkpt lat="43.1782984" lon="11.19754"><ele>372.0</ele><time>2026-04-12T13:22:04.007Z</time></trkpt><trkpt lat="43.1783595" lon="11.1975723"><ele>370.99999999999994</ele><time>2026-04-12T13:22:07.03Z</time></trkpt><trkpt lat="43.1784375" lon="11.1976217"><ele>370.0</ele><time>2026-04-12T13:22:10.082Z</time></trkpt><trkpt lat="43.1785001" lon="11.1976516"><ele>369.99999999999994</ele><time>2026-04-12T13:22:12.054Z</time></trkpt><trkpt lat="43.1785627" lon="11.1976723"><ele>370.0</ele><time>2026-04-12T13:22:14.065Z</time></trkpt><trkpt lat="43.178632" lon="11.1976963"><ele>370.0</ele><time>2026-04-12T13:22:16.038Z</time></trkpt><trkpt lat="43.1787008" lon="11.1977188"><ele>370.0</ele><time>2026-04-12T13:22:18.037Z</time></trkpt><trkpt lat="43.178765" lon="11.1977425"><ele>370.0</ele><time>2026-04-12T13:22:20.054Z</time></trkpt><trkpt lat="43.1788267" lon="11.1977751"><ele>369.99999999999994</ele><time>2026-04-12T13:22:22.08Z</time></trkpt><trkpt lat="43.1789058" lon="11.1978325"><ele>370.0</ele><time>2026-04-12T13:22:25.059Z</time></trkpt><trkpt lat="43.1789564" lon="11.1978912"><ele>369.99999999999994</ele><time>2026-04-12T13:22:27.051Z</time></trkpt><trkpt lat="43.1790016" lon="11.1979597"><ele>370.0</ele><time>2026-04-12T13:22:29.061Z</time></trkpt><trkpt lat="43.1790424" lon="11.1980276"><ele>370.0</ele><time>2026-04-12T13:22:31.052Z</time></trkpt><trkpt lat="43.1791044" lon="11.1981048"><ele>370.0</ele><time>2026-04-12T13:22:34.079Z</time></trkpt><trkpt lat="43.1791661" lon="11.1981436"><ele>370.0</ele><time>2026-04-12T13:22:37.009Z</time></trkpt><trkpt lat="43.1792392" lon="11.1981549"><ele>369.99999999999994</ele><time>2026-04-12T13:22:40.05Z</time></trkpt><trkpt lat="43.1793183" lon="11.1981694"><ele>370.0</ele><time>2026-04-12T13:22:43.991Z</time></trkpt><trkpt lat="43.1793897" lon="11.1981971"><ele>369.16666666666663</ele><time>2026-04-12T13:22:47.048Z</time></trkpt><trkpt lat="43.1794616" lon="11.1982614"><ele>368.3333333333333</ele><time>2026-04-12T13:22:50.061Z</time></trkpt><trkpt lat="43.1795391" lon="11.1982973"><ele>367.5</ele><time>2026-04-12T13:22:53.039Z</time></trkpt><trkpt lat="43.1796142" lon="11.1983561"><ele>366.6666666666667</ele><time>2026-04-12T13:22:56.064Z</time></trkpt><trkpt lat="43.1796901" lon="11.1984263"><ele>365.83333333333337</ele><time>2026-04-12T13:22:59.008Z</time></trkpt><trkpt lat="43.1797598" lon="11.1984806"><ele>365.0</ele><time>2026-04-12T13:23:01.045Z</time></trkpt><trkpt lat="43.1798302" lon="11.198535"><ele>365.83333333333337</ele><time>2026-04-12T13:23:03.068Z</time></trkpt><trkpt lat="43.1799078" lon="11.1985768"><ele>366.6666666666667</ele><time>2026-04-12T13:23:05.043Z</time></trkpt><trkpt lat="43.1799872" lon="11.1986057"><ele>367.5</ele><time>2026-04-12T13:23:07.056Z</time></trkpt><trkpt lat="43.1800555" lon="11.1986374"><ele>368.3333333333333</ele><time>2026-04-12T13:23:09.038Z</time></trkpt><trkpt lat="43.1801279" lon="11.1987021"><ele>369.16666666666663</ele><time>2026-04-12T13:23:12.053Z</time></trkpt><trkpt lat="43.1801897" lon="11.1987401"><ele>370.0</ele><time>2026-04-12T13:23:15.067Z</time></trkpt><trkpt lat="43.1802744" lon="11.1988025"><ele>369.99999999999994</ele><time>2026-04-12T13:23:18.049Z</time></trkpt><trkpt lat="43.1803422" lon="11.1988288"><ele>370.0</ele><time>2026-04-12T13:23:20.046Z</time></trkpt><trkpt lat="43.1804065" lon="11.1988292"><ele>370.0</ele><time>2026-04-12T13:23:22.045Z</time></trkpt><trkpt lat="43.1804759" lon="11.1988233"><ele>370.0</ele><time>2026-04-12T13:23:24.043Z</time></trkpt><trkpt lat="43.1805385" lon="11.1988115"><ele>370.0</ele><time>2026-04-12T13:23:26.053Z</time></trkpt><trkpt lat="43.1806136" lon="11.1988027"><ele>369.99999999999994</ele><time>2026-04-12T13:23:29.049Z</time></trkpt><trkpt lat="43.180677" lon="11.1988033"><ele>370.0</ele><time>2026-04-12T13:23:31.059Z</time></trkpt><trkpt lat="43.1807538" lon="11.198779"><ele>369.66666666666663</ele><time>2026-04-12T13:23:34.049Z</time></trkpt><trkpt lat="43.1808203" lon="11.1987881"><ele>369.3333333333333</ele><time>2026-04-12T13:23:37.057Z</time></trkpt><trkpt lat="43.1808862" lon="11.198841"><ele>369.0</ele><time>2026-04-12T13:23:40.042Z</time></trkpt><trkpt lat="43.1809509" lon="11.1989216"><ele>368.6666666666667</ele><time>2026-04-12T13:23:43.053Z</time></trkpt><trkpt lat="43.1810073" lon="11.1990056"><ele>368.33333333333337</ele><time>2026-04-12T13:23:46.064Z</time></trkpt><trkpt lat="43.181061" lon="11.1991045"><ele>368.0</ele><time>2026-04-12T13:23:49.052Z</time></trkpt><trkpt lat="43.1811094" lon="11.1992023"><ele>368.0</ele><time>2026-04-12T13:23:52.06Z</time></trkpt><trkpt lat="43.1811612" lon="11.1992926"><ele>368.0</ele><time>2026-04-12T13:23:55.045Z</time></trkpt><trkpt lat="43.1812027" lon="11.1993617"><ele>368.0</ele><time>2026-04-12T13:23:57.04Z</time></trkpt><trkpt lat="43.1812433" lon="11.1994282"><ele>368.0</ele><time>2026-04-12T13:23:59.069Z</time></trkpt><trkpt lat="43.1812921" lon="11.1994929"><ele>368.0</ele><time>2026-04-12T13:24:01.072Z</time></trkpt><trkpt lat="43.1813445" lon="11.1995671"><ele>368.0</ele><time>2026-04-12T13:24:04.063Z</time></trkpt><trkpt lat="43.1813988" lon="11.1996404"><ele>368.0</ele><time>2026-04-12T13:24:07.044Z</time></trkpt><trkpt lat="43.1814514" lon="11.1997097"><ele>368.0</ele><time>2026-04-12T13:24:11.05Z</time></trkpt><trkpt lat="43.181503" lon="11.1997859"><ele>368.0</ele><time>2026-04-12T13:24:15.06Z</time></trkpt><trkpt lat="43.1815606" lon="11.1998603"><ele>368.0</ele><time>2026-04-12T13:24:19.055Z</time></trkpt><trkpt lat="43.181609" lon="11.1999278"><ele>368.0</ele><time>2026-04-12T13:24:23.071Z</time></trkpt><trkpt lat="43.1816599" lon="11.1999821"><ele>368.0</ele><time>2026-04-12T13:24:27.084Z</time></trkpt><trkpt lat="43.1817029" lon="11.2000457"><ele>368.0</ele><time>2026-04-12T13:24:31.05Z</time></trkpt><trkpt lat="43.1817613" lon="11.2001091"><ele>368.0</ele><time>2026-04-12T13:24:36.05Z</time></trkpt><trkpt lat="43.1818178" lon="11.2001615"><ele>369.42857142857144</ele><time>2026-04-12T13:24:40.056Z</time></trkpt><trkpt lat="43.181878" lon="11.200205"><ele>370.85714285714283</ele><time>2026-04-12T13:24:45.037Z</time></trkpt><trkpt lat="43.1819301" lon="11.2002553"><ele>372.2857142857143</ele><time>2026-04-12T13:24:49.055Z</time></trkpt><trkpt lat="43.1819884" lon="11.2003047"><ele>373.7142857142857</ele><time>2026-04-12T13:24:53.046Z</time></trkpt><trkpt lat="43.1820489" lon="11.2003495"><ele>375.1428571428571</ele><time>2026-04-12T13:24:57.072Z</time></trkpt><trkpt lat="43.1821196" lon="11.2003964"><ele>376.57142857142856</ele><time>2026-04-12T13:25:02.044Z</time></trkpt><trkpt lat="43.1821885" lon="11.2004542"><ele>378.0</ele><time>2026-04-12T13:25:06.051Z</time></trkpt><trkpt lat="43.182247" lon="11.2004961"><ele>378.0</ele><time>2026-04-12T13:25:09.042Z</time></trkpt><trkpt lat="43.1823354" lon="11.2005309"><ele>378.0</ele><time>2026-04-12T13:25:13.043Z</time></trkpt><trkpt lat="43.1824103" lon="11.200531"><ele>378.0</ele><time>2026-04-12T13:25:16.056Z</time></trkpt><trkpt lat="43.1824829" lon="11.2005139"><ele>378.0</ele><time>2026-04-12T13:25:18.033Z</time></trkpt><trkpt lat="43.1825604" lon="11.2005024"><ele>378.0</ele><time>2026-04-12T13:25:20.072Z</time></trkpt><trkpt lat="43.1826377" lon="11.2004871"><ele>378.0</ele><time>2026-04-12T13:25:22.057Z</time></trkpt><trkpt lat="43.1827289" lon="11.2004722"><ele>380.8333333333333</ele><time>2026-04-12T13:25:25.05Z</time></trkpt><trkpt lat="43.182818" lon="11.200463"><ele>383.66666666666663</ele><time>2026-04-12T13:25:29.051Z</time></trkpt><trkpt lat="43.182891" lon="11.2004572"><ele>386.5</ele><time>2026-04-12T13:25:31.061Z</time></trkpt><trkpt lat="43.1829543" lon="11.2004329"><ele>389.3333333333333</ele><time>2026-04-12T13:25:33.058Z</time></trkpt><trkpt lat="43.1830322" lon="11.2003539"><ele>392.16666666666663</ele><time>2026-04-12T13:25:36.049Z</time></trkpt><trkpt lat="43.1830628" lon="11.2002757"><ele>395.0</ele><time>2026-04-12T13:25:38.057Z</time></trkpt><trkpt lat="43.1830998" lon="11.2001701"><ele>394.99999999999994</ele><time>2026-04-12T13:25:41.056Z</time></trkpt><trkpt lat="43.1831409" lon="11.2000602"><ele>395.0</ele><time>2026-04-12T13:25:44.086Z</time></trkpt><trkpt lat="43.1831935" lon="11.199976"><ele>395.0</ele><time>2026-04-12T13:25:47.058Z</time></trkpt><trkpt lat="43.1832393" lon="11.1998987"><ele>395.0</ele><time>2026-04-12T13:25:50.061Z</time></trkpt><trkpt lat="43.1832845" lon="11.1998355"><ele>394.99999999999994</ele><time>2026-04-12T13:25:52.057Z</time></trkpt><trkpt lat="43.1833552" lon="11.1997501"><ele>395.0</ele><time>2026-04-12T13:25:55.049Z</time></trkpt><trkpt lat="43.1834149" lon="11.1997051"><ele>396.49999999999994</ele><time>2026-04-12T13:25:57.061Z</time></trkpt><trkpt lat="43.1834807" lon="11.199655"><ele>398.0</ele><time>2026-04-12T13:25:59.069Z</time></trkpt><trkpt lat="43.1835476" lon="11.1996103"><ele>399.5</ele><time>2026-04-12T13:26:01.06Z</time></trkpt><trkpt lat="43.183609" lon="11.199566"><ele>401.0</ele><time>2026-04-12T13:26:03.07Z</time></trkpt><trkpt lat="43.1836724" lon="11.1995308"><ele>402.49999999999994</ele><time>2026-04-12T13:26:05.058Z</time></trkpt><trkpt lat="43.183756" lon="11.1994964"><ele>404.0</ele><time>2026-04-12T13:26:08.061Z</time></trkpt><trkpt lat="43.1838405" lon="11.199496"><ele>403.99999999999994</ele><time>2026-04-12T13:26:11.065Z</time></trkpt><trkpt lat="43.1839221" lon="11.1995076"><ele>404.0</ele><time>2026-04-12T13:26:14.078Z</time></trkpt><trkpt lat="43.1839981" lon="11.1995176"><ele>404.0</ele><time>2026-04-12T13:26:17.061Z</time></trkpt><trkpt lat="43.1840611" lon="11.1995056"><ele>404.0</ele><time>2026-04-12T13:26:19.066Z</time></trkpt><trkpt lat="43.1841234" lon="11.1994837"><ele>403.99999999999994</ele><time>2026-04-12T13:26:21.064Z</time></trkpt><trkpt lat="43.1842019" lon="11.1994459"><ele>404.0</ele><time>2026-04-12T13:26:24.059Z</time></trkpt><trkpt lat="43.1842872" lon="11.1994073"><ele>406.16666666666663</ele><time>2026-04-12T13:26:27.056Z</time></trkpt><trkpt lat="43.1843563" lon="11.1994026"><ele>408.3333333333333</ele><time>2026-04-12T13:26:29.055Z</time></trkpt><trkpt lat="43.1844361" lon="11.1994012"><ele>410.5</ele><time>2026-04-12T13:26:31.073Z</time></trkpt><trkpt lat="43.1845211" lon="11.1993795"><ele>412.66666666666663</ele><time>2026-04-12T13:26:34.073Z</time></trkpt><trkpt lat="43.1846022" lon="11.1993252"><ele>414.8333333333333</ele><time>2026-04-12T13:26:37.072Z</time></trkpt><trkpt lat="43.1846618" lon="11.1992709"><ele>417.0</ele><time>2026-04-12T13:26:39.05Z</time></trkpt><trkpt lat="43.1847133" lon="11.1992106"><ele>417.0</ele><time>2026-04-12T13:26:41.056Z</time></trkpt><trkpt lat="43.184747" lon="11.1991178"><ele>417.0</ele><time>2026-04-12T13:26:43.066Z</time></trkpt><trkpt lat="43.1847813" lon="11.1989975"><ele>417.0</ele><time>2026-04-12T13:26:46.064Z</time></trkpt><trkpt lat="43.1848347" lon="11.1988942"><ele>417.0</ele><time>2026-04-12T13:26:49.058Z</time></trkpt><trkpt lat="43.1848842" lon="11.1987939"><ele>417.0</ele><time>2026-04-12T13:26:52.065Z</time></trkpt><trkpt lat="43.1849352" lon="11.198697"><ele>417.0</ele><time>2026-04-12T13:26:55.071Z</time></trkpt><trkpt lat="43.1849952" lon="11.1986133"><ele>417.8333333333333</ele><time>2026-04-12T13:26:58.056Z</time></trkpt><trkpt lat="43.1850555" lon="11.1985427"><ele>418.66666666666663</ele><time>2026-04-12T13:27:01.076Z</time></trkpt><trkpt lat="43.1851247" lon="11.1984754"><ele>419.5</ele><time>2026-04-12T13:27:04.054Z</time></trkpt><trkpt lat="43.1851945" lon="11.1984287"><ele>420.3333333333333</ele><time>2026-04-12T13:27:07.046Z</time></trkpt><trkpt lat="43.1852677" lon="11.1983857"><ele>421.16666666666663</ele><time>2026-04-12T13:27:10.068Z</time></trkpt><trkpt lat="43.1853504" lon="11.1983331"><ele>422.0</ele><time>2026-04-12T13:27:13.041Z</time></trkpt><trkpt lat="43.1854102" lon="11.1982944"><ele>421.99999999999994</ele><time>2026-04-12T13:27:15.06Z</time></trkpt><trkpt lat="43.185494" lon="11.1982536"><ele>422.0</ele><time>2026-04-12T13:27:18.054Z</time></trkpt><trkpt lat="43.1855537" lon="11.1982199"><ele>422.0</ele><time>2026-04-12T13:27:20.056Z</time></trkpt><trkpt lat="43.1856129" lon="11.1981854"><ele>422.0</ele><time>2026-04-12T13:27:22.051Z</time></trkpt><trkpt lat="43.1856789" lon="11.1981482"><ele>421.99999999999994</ele><time>2026-04-12T13:27:24.06Z</time></trkpt><trkpt lat="43.1857633" lon="11.1981003"><ele>422.0</ele><time>2026-04-12T13:27:27.076Z</time></trkpt><trkpt lat="43.1858391" lon="11.1980579"><ele>423.8333333333333</ele><time>2026-04-12T13:27:30.066Z</time></trkpt><trkpt lat="43.1859069" lon="11.1980321"><ele>425.66666666666663</ele><time>2026-04-12T13:27:33.053Z</time></trkpt><trkpt lat="43.1859712" lon="11.1980288"><ele>427.5</ele><time>2026-04-12T13:27:36.05Z</time></trkpt><trkpt lat="43.1860351" lon="11.198048"><ele>429.33333333333337</ele><time>2026-04-12T13:27:40.061Z</time></trkpt><trkpt lat="43.1860425" lon="11.1981593"><ele>431.1666666666667</ele><time>2026-04-12T13:28:06.055Z</time></trkpt><trkpt lat="43.1860154" lon="11.1982593"><ele>433.0</ele><time>2026-04-12T13:28:09.05Z</time></trkpt><trkpt lat="43.1859811" lon="11.1983755"><ele>433.0</ele><time>2026-04-12T13:28:11.056Z</time></trkpt><trkpt lat="43.1859527" lon="11.198463"><ele>432.99999999999994</ele><time>2026-04-12T13:28:13.062Z</time></trkpt><trkpt lat="43.1858985" lon="11.1985638"><ele>432.99999999999994</ele><time>2026-04-12T13:28:15.064Z</time></trkpt><trkpt lat="43.1858303" lon="11.1986757"><ele>433.0</ele><time>2026-04-12T13:28:17.066Z</time></trkpt><trkpt lat="43.1857858" lon="11.1987979"><ele>433.0</ele><time>2026-04-12T13:28:19.056Z</time></trkpt><trkpt lat="43.1857621" lon="11.1989281"><ele>433.79999999999995</ele><time>2026-04-12T13:28:21.058Z</time></trkpt><trkpt lat="43.1857328" lon="11.1990644"><ele>434.59999999999997</ele><time>2026-04-12T13:28:23.063Z</time></trkpt><trkpt lat="43.1857118" lon="11.1991969"><ele>435.40000000000003</ele><time>2026-04-12T13:28:25.06Z</time></trkpt><trkpt lat="43.1856815" lon="11.1993296"><ele>436.20000000000005</ele><time>2026-04-12T13:28:27.061Z</time></trkpt><trkpt lat="43.185653" lon="11.1994607"><ele>437.0</ele><time>2026-04-12T13:28:29.074Z</time></trkpt><trkpt lat="43.1856318" lon="11.1996005"><ele>436.8</ele><time>2026-04-12T13:28:31.078Z</time></trkpt><trkpt lat="43.1856262" lon="11.1997302"><ele>436.6</ele><time>2026-04-12T13:28:33.051Z</time></trkpt><trkpt lat="43.1856368" lon="11.199859"><ele>436.40000000000003</ele><time>2026-04-12T13:28:35.037Z</time></trkpt><trkpt lat="43.1856588" lon="11.1999855"><ele>436.20000000000005</ele><time>2026-04-12T13:28:37.059Z</time></trkpt><trkpt lat="43.1856736" lon="11.2001193"><ele>436.0</ele><time>2026-04-12T13:28:39.063Z</time></trkpt><trkpt lat="43.1856954" lon="11.2002151"><ele>436.00000000000006</ele><time>2026-04-12T13:28:41.044Z</time></trkpt><trkpt lat="43.1856874" lon="11.2003365"><ele>436.0</ele><time>2026-04-12T13:28:44.048Z</time></trkpt><trkpt lat="43.1856578" lon="11.2004607"><ele>436.0</ele><time>2026-04-12T13:28:47.048Z</time></trkpt><trkpt lat="43.1856317" lon="11.2005447"><ele>436.0</ele><time>2026-04-12T13:28:49.049Z</time></trkpt><trkpt lat="43.1855822" lon="11.2006395"><ele>436.00000000000006</ele><time>2026-04-12T13:28:51.067Z</time></trkpt><trkpt lat="43.1855342" lon="11.2007251"><ele>436.0</ele><time>2026-04-12T13:28:53.039Z</time></trkpt><trkpt lat="43.185484" lon="11.2008081"><ele>436.8</ele><time>2026-04-12T13:28:55.054Z</time></trkpt><trkpt lat="43.1854443" lon="11.2009105"><ele>437.6</ele><time>2026-04-12T13:28:57.065Z</time></trkpt><trkpt lat="43.1854238" lon="11.2010114"><ele>438.4</ele><time>2026-04-12T13:28:58.907Z</time></trkpt><trkpt lat="43.1854133" lon="11.2011455"><ele>439.2</ele><time>2026-04-12T13:29:01.081Z</time></trkpt><trkpt lat="43.1853923" lon="11.2013032"><ele>440.0</ele><time>2026-04-12T13:29:03.06Z</time></trkpt><trkpt lat="43.185371" lon="11.2014365"><ele>440.6</ele><time>2026-04-12T13:29:04.966Z</time></trkpt><trkpt lat="43.185357" lon="11.201587"><ele>441.2</ele><time>2026-04-12T13:29:07.037Z</time></trkpt><trkpt lat="43.1853377" lon="11.2017263"><ele>441.79999999999995</ele><time>2026-04-12T13:29:09.033Z</time></trkpt><trkpt lat="43.185312" lon="11.2018921"><ele>442.4</ele><time>2026-04-12T13:29:11.071Z</time></trkpt><trkpt lat="43.1852781" lon="11.2020357"><ele>443.0</ele><time>2026-04-12T13:29:13.052Z</time></trkpt><trkpt lat="43.1852356" lon="11.2021531"><ele>442.99999999999994</ele><time>2026-04-12T13:29:15.064Z</time></trkpt><trkpt lat="43.1852193" lon="11.2022767"><ele>443.0</ele><time>2026-04-12T13:29:17.053Z</time></trkpt><trkpt lat="43.1852295" lon="11.2023925"><ele>443.0</ele><time>2026-04-12T13:29:19.063Z</time></trkpt><trkpt lat="43.1852463" lon="11.2025108"><ele>443.0</ele><time>2026-04-12T13:29:21.056Z</time></trkpt><trkpt lat="43.1852716" lon="11.2026283"><ele>442.99999999999994</ele><time>2026-04-12T13:29:23.056Z</time></trkpt><trkpt lat="43.1852891" lon="11.2027546"><ele>443.0</ele><time>2026-04-12T13:29:25.06Z</time></trkpt><trkpt lat="43.1852891" lon="11.2028607"><ele>443.4</ele><time>2026-04-12T13:29:27.055Z</time></trkpt><trkpt lat="43.1852757" lon="11.2029969"><ele>443.79999999999995</ele><time>2026-04-12T13:29:29.057Z</time></trkpt><trkpt lat="43.1852729" lon="11.2031397"><ele>444.2</ele><time>2026-04-12T13:29:31.049Z</time></trkpt><trkpt lat="43.1852578" lon="11.203273"><ele>444.6</ele><time>2026-04-12T13:29:33.055Z</time></trkpt><trkpt lat="43.1852419" lon="11.2033911"><ele>445.0</ele><time>2026-04-12T13:29:35.041Z</time></trkpt><trkpt lat="43.1852105" lon="11.2035232"><ele>445.1666666666667</ele><time>2026-04-12T13:29:37.047Z</time></trkpt><trkpt lat="43.1851673" lon="11.2036362"><ele>445.33333333333337</ele><time>2026-04-12T13:29:39.042Z</time></trkpt><trkpt lat="43.1851142" lon="11.2037309"><ele>445.5</ele><time>2026-04-12T13:29:41.043Z</time></trkpt><trkpt lat="43.1850673" lon="11.2038029"><ele>445.66666666666663</ele><time>2026-04-12T13:29:42.705Z</time></trkpt><trkpt lat="43.1850188" lon="11.2039057"><ele>445.8333333333333</ele><time>2026-04-12T13:29:45.048Z</time></trkpt><trkpt lat="43.1849907" lon="11.203983"><ele>446.0</ele><time>2026-04-12T13:29:47.033Z</time></trkpt><trkpt lat="43.184934" lon="11.2040858"><ele>446.4</ele><time>2026-04-12T13:29:50.046Z</time></trkpt><trkpt lat="43.1848759" lon="11.2041626"><ele>446.8</ele><time>2026-04-12T13:29:52.062Z</time></trkpt><trkpt lat="43.1847933" lon="11.2042582"><ele>447.19999999999993</ele><time>2026-04-12T13:29:54.053Z</time></trkpt><trkpt lat="43.1847224" lon="11.204349"><ele>447.59999999999997</ele><time>2026-04-12T13:29:56.043Z</time></trkpt><trkpt lat="43.1846353" lon="11.2044501"><ele>448.0</ele><time>2026-04-12T13:29:58.035Z</time></trkpt><trkpt lat="43.1845557" lon="11.2045642"><ele>448.00000000000006</ele><time>2026-04-12T13:30:00.046Z</time></trkpt><trkpt lat="43.1844725" lon="11.2046854"><ele>448.0</ele><time>2026-04-12T13:30:02.031Z</time></trkpt><trkpt lat="43.1844298" lon="11.2047514"><ele>448.0</ele><time>2026-04-12T13:30:03.062Z</time></trkpt><trkpt lat="43.1843811" lon="11.2048241"><ele>448.0</ele><time>2026-04-12T13:30:04.049Z</time></trkpt><trkpt lat="43.1843295" lon="11.2048873"><ele>448.00000000000006</ele><time>2026-04-12T13:30:05.06Z</time></trkpt><trkpt lat="43.1842559" lon="11.2050031"><ele>448.0</ele><time>2026-04-12T13:30:07.046Z</time></trkpt><trkpt lat="43.1842009" lon="11.205062"><ele>448.00000000000006</ele><time>2026-04-12T13:30:09.041Z</time></trkpt><trkpt lat="43.1841471" lon="11.2051128"><ele>448.0</ele><time>2026-04-12T13:30:11.047Z</time></trkpt><trkpt lat="43.1840953" lon="11.2051912"><ele>448.0</ele><time>2026-04-12T13:30:13.042Z</time></trkpt><trkpt lat="43.1840309" lon="11.2052656"><ele>448.0</ele><time>2026-04-12T13:30:15.047Z</time></trkpt><trkpt lat="43.1839678" lon="11.2053354"><ele>448.00000000000006</ele><time>2026-04-12T13:30:17.056Z</time></trkpt><trkpt lat="43.1839158" lon="11.2054116"><ele>448.0</ele><time>2026-04-12T13:30:19.043Z</time></trkpt><trkpt lat="43.1838475" lon="11.205483"><ele>447.59999999999997</ele><time>2026-04-12T13:30:21.042Z</time></trkpt><trkpt lat="43.1837802" lon="11.2055602"><ele>447.19999999999993</ele><time>2026-04-12T13:30:23.043Z</time></trkpt><trkpt lat="43.1837108" lon="11.2056564"><ele>446.8</ele><time>2026-04-12T13:30:25.053Z</time></trkpt><trkpt lat="43.1836402" lon="11.2057514"><ele>446.4</ele><time>2026-04-12T13:30:27.059Z</time></trkpt><trkpt lat="43.1835733" lon="11.205859"><ele>446.0</ele><time>2026-04-12T13:30:29.052Z</time></trkpt><trkpt lat="43.1835099" lon="11.2059616"><ele>445.99999999999994</ele><time>2026-04-12T13:30:31.053Z</time></trkpt><trkpt lat="43.1834605" lon="11.2060423"><ele>446.0</ele><time>2026-04-12T13:30:33.051Z</time></trkpt><trkpt lat="43.183399" lon="11.2061239"><ele>446.0</ele><time>2026-04-12T13:30:35.046Z</time></trkpt><trkpt lat="43.1833281" lon="11.206215"><ele>446.0</ele><time>2026-04-12T13:30:37.063Z</time></trkpt><trkpt lat="43.1832584" lon="11.2062901"><ele>445.99999999999994</ele><time>2026-04-12T13:30:39.056Z</time></trkpt><trkpt lat="43.1831819" lon="11.2063593"><ele>446.0</ele><time>2026-04-12T13:30:41.056Z</time></trkpt><trkpt lat="43.1830968" lon="11.206418"><ele>446.16666666666663</ele><time>2026-04-12T13:30:43.049Z</time></trkpt><trkpt lat="43.1830157" lon="11.2064798"><ele>446.3333333333333</ele><time>2026-04-12T13:30:45.055Z</time></trkpt><trkpt lat="43.1829405" lon="11.2065292"><ele>446.5</ele><time>2026-04-12T13:30:47.056Z</time></trkpt><trkpt lat="43.1828834" lon="11.2066225"><ele>446.66666666666663</ele><time>2026-04-12T13:30:50.05Z</time></trkpt><trkpt lat="43.1828956" lon="11.2067345"><ele>446.8333333333333</ele><time>2026-04-12T13:30:53.055Z</time></trkpt><trkpt lat="43.1829169" lon="11.2068475"><ele>447.0</ele><time>2026-04-12T13:30:56.042Z</time></trkpt><trkpt lat="43.1829365" lon="11.2069377"><ele>447.0</ele><time>2026-04-12T13:31:00.053Z</time></trkpt><trkpt lat="43.1829546" lon="11.2070629"><ele>447.0</ele><time>2026-04-12T13:31:03.058Z</time></trkpt><trkpt lat="43.1829613" lon="11.2071581"><ele>447.0</ele><time>2026-04-12T13:31:05.052Z</time></trkpt><trkpt lat="43.1829613" lon="11.2072919"><ele>447.0</ele><time>2026-04-12T13:31:08.048Z</time></trkpt><trkpt lat="43.1829512" lon="11.2073869"><ele>447.0</ele><time>2026-04-12T13:31:10.057Z</time></trkpt><trkpt lat="43.1829252" lon="11.2074829"><ele>447.0</ele><time>2026-04-12T13:31:12.043Z</time></trkpt><trkpt lat="43.1828985" lon="11.2075943"><ele>446.5</ele><time>2026-04-12T13:31:15.041Z</time></trkpt><trkpt lat="43.1828567" lon="11.2077155"><ele>446.0</ele><time>2026-04-12T13:31:18.046Z</time></trkpt><trkpt lat="43.1828269" lon="11.2078178"><ele>445.5</ele><time>2026-04-12T13:31:20.058Z</time></trkpt><trkpt lat="43.1827915" lon="11.207922"><ele>445.0</ele><time>2026-04-12T13:31:22.057Z</time></trkpt><trkpt lat="43.1827516" lon="11.2080302"><ele>444.5</ele><time>2026-04-12T13:31:24.062Z</time></trkpt><trkpt lat="43.1827274" lon="11.2081485"><ele>444.0</ele><time>2026-04-12T13:31:26.054Z</time></trkpt><trkpt lat="43.1827169" lon="11.2082652"><ele>443.1428571428571</ele><time>2026-04-12T13:31:28.05Z</time></trkpt><trkpt lat="43.1827082" lon="11.2083781"><ele>442.28571428571433</ele><time>2026-04-12T13:31:30.053Z</time></trkpt><trkpt lat="43.1826972" lon="11.2084884"><ele>441.42857142857144</ele><time>2026-04-12T13:31:32.083Z</time></trkpt><trkpt lat="43.1826876" lon="11.2085876"><ele>440.57142857142856</ele><time>2026-04-12T13:31:34.065Z</time></trkpt><trkpt lat="43.1826727" lon="11.2086808"><ele>439.71428571428567</ele><time>2026-04-12T13:31:36.066Z</time></trkpt><trkpt lat="43.1826518" lon="11.2087667"><ele>438.8571428571429</ele><time>2026-04-12T13:31:38.056Z</time></trkpt><trkpt lat="43.1826355" lon="11.2088584"><ele>438.0</ele><time>2026-04-12T13:31:40.065Z</time></trkpt><trkpt lat="43.1826126" lon="11.2089575"><ele>437.8571428571429</ele><time>2026-04-12T13:31:42.053Z</time></trkpt><trkpt lat="43.182592" lon="11.2090586"><ele>437.71428571428567</ele><time>2026-04-12T13:31:44.052Z</time></trkpt><trkpt lat="43.1825842" lon="11.2091617"><ele>437.57142857142856</ele><time>2026-04-12T13:31:46.054Z</time></trkpt><trkpt lat="43.182559" lon="11.2092545"><ele>437.42857142857144</ele><time>2026-04-12T13:31:48.049Z</time></trkpt><trkpt lat="43.1825088" lon="11.2093354"><ele>437.28571428571433</ele><time>2026-04-12T13:31:50.051Z</time></trkpt><trkpt lat="43.1824677" lon="11.2094106"><ele>437.1428571428571</ele><time>2026-04-12T13:31:52.054Z</time></trkpt><trkpt lat="43.1824424" lon="11.2094994"><ele>437.0</ele><time>2026-04-12T13:31:54.06Z</time></trkpt><trkpt lat="43.1824099" lon="11.2096003"><ele>436.99999999999994</ele><time>2026-04-12T13:31:56.05Z</time></trkpt><trkpt lat="43.1823717" lon="11.2097029"><ele>437.0</ele><time>2026-04-12T13:31:58.04Z</time></trkpt><trkpt lat="43.1823281" lon="11.2097942"><ele>437.0</ele><time>2026-04-12T13:32:00.054Z</time></trkpt><trkpt lat="43.1822794" lon="11.2099071"><ele>437.0</ele><time>2026-04-12T13:32:02.045Z</time></trkpt><trkpt lat="43.1822284" lon="11.2099947"><ele>436.99999999999994</ele><time>2026-04-12T13:32:04.068Z</time></trkpt><trkpt lat="43.1821647" lon="11.2100901"><ele>437.0</ele><time>2026-04-12T13:32:06.07Z</time></trkpt><trkpt lat="43.1820907" lon="11.2101891"><ele>438.20000000000005</ele><time>2026-04-12T13:32:08.051Z</time></trkpt><trkpt lat="43.1820118" lon="11.2102877"><ele>439.40000000000003</ele><time>2026-04-12T13:32:10.069Z</time></trkpt><trkpt lat="43.1819229" lon="11.2103578"><ele>440.59999999999997</ele><time>2026-04-12T13:32:12.059Z</time></trkpt><trkpt lat="43.1818297" lon="11.2104066"><ele>441.79999999999995</ele><time>2026-04-12T13:32:14.086Z</time></trkpt><trkpt lat="43.181746" lon="11.2104405"><ele>443.0</ele><time>2026-04-12T13:32:16.053Z</time></trkpt><trkpt lat="43.1816511" lon="11.2104662"><ele>443.0</ele><time>2026-04-12T13:32:18.044Z</time></trkpt><trkpt lat="43.1815594" lon="11.2104817"><ele>442.99999999999994</ele><time>2026-04-12T13:32:20.042Z</time></trkpt><trkpt lat="43.1814651" lon="11.2104916"><ele>442.99999999999994</ele><time>2026-04-12T13:32:22.053Z</time></trkpt><trkpt lat="43.1813816" lon="11.210507"><ele>443.0</ele><time>2026-04-12T13:32:24.052Z</time></trkpt><trkpt lat="43.1812934" lon="11.2105309"><ele>443.0</ele><time>2026-04-12T13:32:26.05Z</time></trkpt><trkpt lat="43.1811862" lon="11.2105864"><ele>443.99999999999994</ele><time>2026-04-12T13:32:29.046Z</time></trkpt><trkpt lat="43.1810939" lon="11.210577"><ele>445.0</ele><time>2026-04-12T13:32:31.083Z</time></trkpt><trkpt lat="43.1810139" lon="11.2105461"><ele>446.0</ele><time>2026-04-12T13:32:33.054Z</time></trkpt><trkpt lat="43.1809517" lon="11.210514"><ele>447.0</ele><time>2026-04-12T13:32:35.043Z</time></trkpt><trkpt lat="43.1808825" lon="11.2104875"><ele>447.99999999999994</ele><time>2026-04-12T13:32:37.057Z</time></trkpt><trkpt lat="43.1808023" lon="11.2104654"><ele>449.0</ele><time>2026-04-12T13:32:39.075Z</time></trkpt><trkpt lat="43.1807181" lon="11.2104554"><ele>449.16666666666663</ele><time>2026-04-12T13:32:41.049Z</time></trkpt><trkpt lat="43.1806224" lon="11.2104891"><ele>449.3333333333333</ele><time>2026-04-12T13:32:43.051Z</time></trkpt><trkpt lat="43.1805317" lon="11.2105258"><ele>449.5</ele><time>2026-04-12T13:32:45.041Z</time></trkpt><trkpt lat="43.180445" lon="11.2105464"><ele>449.66666666666663</ele><time>2026-04-12T13:32:47.063Z</time></trkpt><trkpt lat="43.1803759" lon="11.2105736"><ele>449.8333333333333</ele><time>2026-04-12T13:32:49.048Z</time></trkpt><trkpt lat="43.1803008" lon="11.2106205"><ele>450.0</ele><time>2026-04-12T13:32:51.043Z</time></trkpt><trkpt lat="43.1802158" lon="11.2106815"><ele>449.2</ele><time>2026-04-12T13:32:53.047Z</time></trkpt><trkpt lat="43.1801315" lon="11.2107216"><ele>448.4</ele><time>2026-04-12T13:32:55.044Z</time></trkpt><trkpt lat="43.1800457" lon="11.2107912"><ele>447.6</ele><time>2026-04-12T13:32:57.055Z</time></trkpt><trkpt lat="43.17996" lon="11.2108637"><ele>446.8</ele><time>2026-04-12T13:32:59.047Z</time></trkpt><trkpt lat="43.1798903" lon="11.2109397"><ele>446.0</ele><time>2026-04-12T13:33:01.043Z</time></trkpt><trkpt lat="43.1798238" lon="11.2110188"><ele>445.42857142857144</ele><time>2026-04-12T13:33:03.056Z</time></trkpt><trkpt lat="43.179762" lon="11.2111015"><ele>444.85714285714283</ele><time>2026-04-12T13:33:05.046Z</time></trkpt><trkpt lat="43.179707" lon="11.2111645"><ele>444.28571428571433</ele><time>2026-04-12T13:33:07.06Z</time></trkpt><trkpt lat="43.1796638" lon="11.2112467"><ele>443.7142857142857</ele><time>2026-04-12T13:33:09.044Z</time></trkpt><trkpt lat="43.1796282" lon="11.2113329"><ele>443.14285714285717</ele><time>2026-04-12T13:33:11.045Z</time></trkpt><trkpt lat="43.1795797" lon="11.2114102"><ele>442.5714285714286</ele><time>2026-04-12T13:33:13.062Z</time></trkpt><trkpt lat="43.1795263" lon="11.2114714"><ele>442.0</ele><time>2026-04-12T13:33:15.039Z</time></trkpt><trkpt lat="43.1794629" lon="11.2115267"><ele>442.00000000000006</ele><time>2026-04-12T13:33:17.037Z</time></trkpt><trkpt lat="43.1793934" lon="11.2115787"><ele>442.0</ele><time>2026-04-12T13:33:19.045Z</time></trkpt><trkpt lat="43.1793263" lon="11.2116222"><ele>442.0</ele><time>2026-04-12T13:33:21.039Z</time></trkpt><trkpt lat="43.179262" lon="11.2116603"><ele>442.0</ele><time>2026-04-12T13:33:23.06Z</time></trkpt><trkpt lat="43.1791929" lon="11.2117198"><ele>442.00000000000006</ele><time>2026-04-12T13:33:25.048Z</time></trkpt><trkpt lat="43.1791175" lon="11.2117684"><ele>442.0</ele><time>2026-04-12T13:33:27.056Z</time></trkpt><trkpt lat="43.1790587" lon="11.2118355"><ele>441.00000000000006</ele><time>2026-04-12T13:33:29.036Z</time></trkpt><trkpt lat="43.1789934" lon="11.2118973"><ele>440.0</ele><time>2026-04-12T13:33:31.052Z</time></trkpt><trkpt lat="43.1789305" lon="11.2119609"><ele>439.0</ele><time>2026-04-12T13:33:33.04Z</time></trkpt><trkpt lat="43.178868" lon="11.2120128"><ele>438.0</ele><time>2026-04-12T13:33:35.056Z</time></trkpt><trkpt lat="43.1787927" lon="11.2120614"><ele>437.00000000000006</ele><time>2026-04-12T13:33:37.064Z</time></trkpt><trkpt lat="43.1787277" lon="11.2121127"><ele>436.0</ele><time>2026-04-12T13:33:39.045Z</time></trkpt><trkpt lat="43.1786658" lon="11.2121654"><ele>436.0</ele><time>2026-04-12T13:33:41.051Z</time></trkpt><trkpt lat="43.1785956" lon="11.2122251"><ele>436.0</ele><time>2026-04-12T13:33:44.041Z</time></trkpt><trkpt lat="43.1785428" lon="11.2122814"><ele>436.0</ele><time>2026-04-12T13:33:46.044Z</time></trkpt><trkpt lat="43.1784807" lon="11.2123488"><ele>436.0</ele><time>2026-04-12T13:33:48.058Z</time></trkpt><trkpt lat="43.1784222" lon="11.2124041"><ele>436.0</ele><time>2026-04-12T13:33:50.049Z</time></trkpt><trkpt lat="43.178364" lon="11.2124577"><ele>436.0</ele><time>2026-04-12T13:33:52.057Z</time></trkpt><trkpt lat="43.1782976" lon="11.2125116"><ele>436.0</ele><time>2026-04-12T13:33:54.048Z</time></trkpt><trkpt lat="43.1782278" lon="11.2125469"><ele>437.14285714285717</ele><time>2026-04-12T13:33:56.048Z</time></trkpt><trkpt lat="43.1781638" lon="11.21257"><ele>438.28571428571433</ele><time>2026-04-12T13:33:58.045Z</time></trkpt><trkpt lat="43.1780902" lon="11.2125742"><ele>439.42857142857144</ele><time>2026-04-12T13:34:00.057Z</time></trkpt><trkpt lat="43.1780188" lon="11.2125683"><ele>440.57142857142856</ele><time>2026-04-12T13:34:02.046Z</time></trkpt><trkpt lat="43.1779368" lon="11.2125968"><ele>441.7142857142857</ele><time>2026-04-12T13:34:05.052Z</time></trkpt><trkpt lat="43.1778693" lon="11.2126142"><ele>442.85714285714283</ele><time>2026-04-12T13:34:08.063Z</time></trkpt><trkpt lat="43.1777939" lon="11.212647"><ele>444.0</ele><time>2026-04-12T13:34:11.038Z</time></trkpt><trkpt lat="43.1777289" lon="11.2126745"><ele>444.0</ele><time>2026-04-12T13:34:13.045Z</time></trkpt><trkpt lat="43.1776645" lon="11.2127112"><ele>444.0</ele><time>2026-04-12T13:34:15.041Z</time></trkpt><trkpt lat="43.1775982" lon="11.2127528"><ele>444.0</ele><time>2026-04-12T13:34:17.074Z</time></trkpt><trkpt lat="43.1775164" lon="11.2128229"><ele>444.0</ele><time>2026-04-12T13:34:20.058Z</time></trkpt><trkpt lat="43.177437" lon="11.21291"><ele>444.0</ele><time>2026-04-12T13:34:23.074Z</time></trkpt><trkpt lat="43.1773567" lon="11.2129861"><ele>444.0</ele><time>2026-04-12T13:34:26.064Z</time></trkpt><trkpt lat="43.1772938" lon="11.213028"><ele>443.5</ele><time>2026-04-12T13:34:29.013Z</time></trkpt><trkpt lat="43.1772391" lon="11.2130748"><ele>443.0</ele><time>2026-04-12T13:34:32.009Z</time></trkpt><trkpt lat="43.1771816" lon="11.2131178"><ele>442.5</ele><time>2026-04-12T13:34:34.053Z</time></trkpt><trkpt lat="43.1770906" lon="11.2131727"><ele>442.0</ele><time>2026-04-12T13:34:37.055Z</time></trkpt><trkpt lat="43.1770009" lon="11.2132088"><ele>441.5</ele><time>2026-04-12T13:34:40.054Z</time></trkpt><trkpt lat="43.1769415" lon="11.2132388"><ele>441.0</ele><time>2026-04-12T13:34:42.063Z</time></trkpt><trkpt lat="43.1768801" lon="11.2132761"><ele>442.7142857142857</ele><time>2026-04-12T13:34:44.042Z</time></trkpt><trkpt lat="43.1768123" lon="11.2133153"><ele>444.42857142857144</ele><time>2026-04-12T13:34:46.042Z</time></trkpt><trkpt lat="43.1767492" lon="11.2133489"><ele>446.1428571428571</ele><time>2026-04-12T13:34:48.048Z</time></trkpt><trkpt lat="43.1766834" lon="11.2133818"><ele>447.85714285714283</ele><time>2026-04-12T13:34:50.055Z</time></trkpt><trkpt lat="43.1766098" lon="11.2134248"><ele>449.57142857142856</ele><time>2026-04-12T13:34:53.059Z</time></trkpt><trkpt lat="43.1765497" lon="11.2134568"><ele>451.2857142857142</ele><time>2026-04-12T13:34:55.053Z</time></trkpt><trkpt lat="43.1764909" lon="11.2134894"><ele>452.99999999999994</ele><time>2026-04-12T13:35:00.061Z</time></trkpt><trkpt lat="43.176409" lon="11.2135135"><ele>453.42857142857133</ele><time>2026-04-12T13:35:05.045Z</time></trkpt><trkpt lat="43.1763471" lon="11.2135332"><ele>453.85714285714283</ele><time>2026-04-12T13:35:09.062Z</time></trkpt><trkpt lat="43.1762769" lon="11.2134983"><ele>454.2857142857142</ele><time>2026-04-12T13:35:14.056Z</time></trkpt><trkpt lat="43.1762187" lon="11.2134638"><ele>454.71428571428567</ele><time>2026-04-12T13:35:17.049Z</time></trkpt><trkpt lat="43.1761564" lon="11.2134233"><ele>455.1428571428571</ele><time>2026-04-12T13:35:20.05Z</time></trkpt><trkpt lat="43.1760694" lon="11.2133744"><ele>455.57142857142856</ele><time>2026-04-12T13:35:23.05Z</time></trkpt><trkpt lat="43.1760091" lon="11.2133436"><ele>456.0</ele><time>2026-04-12T13:35:25.047Z</time></trkpt><trkpt lat="43.1759286" lon="11.2133049"><ele>456.0</ele><time>2026-04-12T13:35:28.055Z</time></trkpt><trkpt lat="43.1758454" lon="11.2132762"><ele>456.0</ele><time>2026-04-12T13:35:31.056Z</time></trkpt><trkpt lat="43.1757675" lon="11.21324"><ele>456.0</ele><time>2026-04-12T13:35:34.049Z</time></trkpt><trkpt lat="43.175695" lon="11.2131922"><ele>456.0</ele><time>2026-04-12T13:35:37.052Z</time></trkpt><trkpt lat="43.1756178" lon="11.2131462"><ele>456.0</ele><time>2026-04-12T13:35:40.064Z</time></trkpt><trkpt lat="43.1755558" lon="11.2131258"><ele>456.0</ele><time>2026-04-12T13:35:42.037Z</time></trkpt><trkpt lat="43.1754915" lon="11.213107"><ele>454.85714285714283</ele><time>2026-04-12T13:35:44.052Z</time></trkpt><trkpt lat="43.1754259" lon="11.2130849"><ele>453.71428571428567</ele><time>2026-04-12T13:35:46.051Z</time></trkpt><trkpt lat="43.1753588" lon="11.213046"><ele>452.57142857142856</ele><time>2026-04-12T13:35:48.048Z</time></trkpt><trkpt lat="43.1752952" lon="11.2130183"><ele>451.42857142857144</ele><time>2026-04-12T13:35:50.057Z</time></trkpt><trkpt lat="43.1752272" lon="11.2129903"><ele>450.2857142857143</ele><time>2026-04-12T13:35:52.061Z</time></trkpt><trkpt lat="43.1751601" lon="11.2129601"><ele>449.1428571428571</ele><time>2026-04-12T13:35:54.047Z</time></trkpt><trkpt lat="43.1750969" lon="11.2129252"><ele>448.0</ele><time>2026-04-12T13:35:56.057Z</time></trkpt><trkpt lat="43.1750344" lon="11.2128854"><ele>448.00000000000006</ele><time>2026-04-12T13:35:58.042Z</time></trkpt><trkpt lat="43.1749467" lon="11.2128441"><ele>448.0</ele><time>2026-04-12T13:36:01.052Z</time></trkpt><trkpt lat="43.1748895" lon="11.2128019"><ele>448.0</ele><time>2026-04-12T13:36:03.036Z</time></trkpt><trkpt lat="43.1748307" lon="11.2127706"><ele>448.0</ele><time>2026-04-12T13:36:05.034Z</time></trkpt><trkpt lat="43.1747443" lon="11.2127284"><ele>448.00000000000006</ele><time>2026-04-12T13:36:08.033Z</time></trkpt><trkpt lat="43.1746689" lon="11.2126797"><ele>448.0</ele><time>2026-04-12T13:36:11.05Z</time></trkpt><trkpt lat="43.1745908" lon="11.2126313"><ele>448.83333333333337</ele><time>2026-04-12T13:36:14.057Z</time></trkpt><trkpt lat="43.1745069" lon="11.2125827"><ele>449.6666666666667</ele><time>2026-04-12T13:36:17.053Z</time></trkpt><trkpt lat="43.1744439" lon="11.2125422"><ele>450.5</ele><time>2026-04-12T13:36:19.068Z</time></trkpt><trkpt lat="43.1743596" lon="11.2124955"><ele>451.33333333333337</ele><time>2026-04-12T13:36:22.062Z</time></trkpt><trkpt lat="43.1742739" lon="11.2124468"><ele>452.1666666666667</ele><time>2026-04-12T13:36:25.05Z</time></trkpt><trkpt lat="43.1742035" lon="11.2123752"><ele>453.0</ele><time>2026-04-12T13:36:28.057Z</time></trkpt><trkpt lat="43.1741379" lon="11.2122949"><ele>451.5</ele><time>2026-04-12T13:36:31.049Z</time></trkpt><trkpt lat="43.1740666" lon="11.2122265"><ele>450.0</ele><time>2026-04-12T13:36:34.048Z</time></trkpt><trkpt lat="43.1739859" lon="11.2121834"><ele>448.5</ele><time>2026-04-12T13:36:38.098Z</time></trkpt><trkpt lat="43.173913" lon="11.2121377"><ele>447.0</ele><time>2026-04-12T13:36:41.056Z</time></trkpt><trkpt lat="43.1738419" lon="11.212102"><ele>445.5</ele><time>2026-04-12T13:36:44.052Z</time></trkpt><trkpt lat="43.1737656" lon="11.212072"><ele>444.0</ele><time>2026-04-12T13:36:47.041Z</time></trkpt><trkpt lat="43.1736894" lon="11.2120382"><ele>444.0</ele><time>2026-04-12T13:36:50.07Z</time></trkpt><trkpt lat="43.1736166" lon="11.2120021"><ele>444.0</ele><time>2026-04-12T13:36:53.037Z</time></trkpt><trkpt lat="43.173548" lon="11.2119441"><ele>444.0</ele><time>2026-04-12T13:36:57.055Z</time></trkpt><trkpt lat="43.1734776" lon="11.2118878"><ele>444.0</ele><time>2026-04-12T13:37:00.056Z</time></trkpt><trkpt lat="43.1734002" lon="11.2118428"><ele>444.0</ele><time>2026-04-12T13:37:03.036Z</time></trkpt><trkpt lat="43.1733327" lon="11.2118037"><ele>444.0</ele><time>2026-04-12T13:37:05.956Z</time></trkpt><trkpt lat="43.1732705" lon="11.2117619"><ele>444.0</ele><time>2026-04-12T13:37:09.047Z</time></trkpt><trkpt lat="43.1732012" lon="11.2117285"><ele>444.0</ele><time>2026-04-12T13:37:12.043Z</time></trkpt><trkpt lat="43.1731168" lon="11.2116804"><ele>444.0</ele><time>2026-04-12T13:37:15.035Z</time></trkpt><trkpt lat="43.1730364" lon="11.2116408"><ele>444.0</ele><time>2026-04-12T13:37:18.112Z</time></trkpt><trkpt lat="43.1729602" lon="11.2116008"><ele>444.0</ele><time>2026-04-12T13:37:21.095Z</time></trkpt><trkpt lat="43.1728881" lon="11.2115742"><ele>444.0</ele><time>2026-04-12T13:37:24.042Z</time></trkpt><trkpt lat="43.1728097" lon="11.2115668"><ele>444.5</ele><time>2026-04-12T13:37:27.094Z</time></trkpt><trkpt lat="43.1727295" lon="11.2115725"><ele>445.0</ele><time>2026-04-12T13:37:30.077Z</time></trkpt><trkpt lat="43.1726445" lon="11.2115417"><ele>445.5</ele><time>2026-04-12T13:37:33.049Z</time></trkpt><trkpt lat="43.1725832" lon="11.2115144"><ele>446.0</ele><time>2026-04-12T13:37:35.056Z</time></trkpt><trkpt lat="43.1724964" lon="11.211474"><ele>446.5</ele><time>2026-04-12T13:37:38.061Z</time></trkpt><trkpt lat="43.172439" lon="11.2114331"><ele>447.0</ele><time>2026-04-12T13:37:40.038Z</time></trkpt><trkpt lat="43.17237" lon="11.2113936"><ele>446.8333333333333</ele><time>2026-04-12T13:37:42.069Z</time></trkpt><trkpt lat="43.1722974" lon="11.2113414"><ele>446.66666666666663</ele><time>2026-04-12T13:37:45.051Z</time></trkpt><trkpt lat="43.1722135" lon="11.2112909"><ele>446.5</ele><time>2026-04-12T13:37:48.046Z</time></trkpt><trkpt lat="43.1721292" lon="11.2112355"><ele>446.3333333333333</ele><time>2026-04-12T13:37:51.051Z</time></trkpt><trkpt lat="43.1720454" lon="11.2111884"><ele>446.16666666666663</ele><time>2026-04-12T13:37:54.034Z</time></trkpt><trkpt lat="43.1719718" lon="11.2111309"><ele>446.0</ele><time>2026-04-12T13:37:57.052Z</time></trkpt><trkpt lat="43.1719142" lon="11.2110937"><ele>446.0</ele><time>2026-04-12T13:37:59.061Z</time></trkpt><trkpt lat="43.1718609" lon="11.2110462"><ele>446.0</ele><time>2026-04-12T13:38:01.053Z</time></trkpt><trkpt lat="43.1717952" lon="11.2109976"><ele>446.0</ele><time>2026-04-12T13:38:03.057Z</time></trkpt><trkpt lat="43.1717317" lon="11.2109533"><ele>446.0</ele><time>2026-04-12T13:38:05.045Z</time></trkpt><trkpt lat="43.1716725" lon="11.2109138"><ele>446.0</ele><time>2026-04-12T13:38:07.041Z</time></trkpt><trkpt lat="43.1716018" lon="11.210877"><ele>446.0</ele><time>2026-04-12T13:38:09.045Z</time></trkpt><trkpt lat="43.1715185" lon="11.2108333"><ele>446.0</ele><time>2026-04-12T13:38:11.042Z</time></trkpt><trkpt lat="43.1714522" lon="11.2107999"><ele>446.8333333333333</ele><time>2026-04-12T13:38:13.041Z</time></trkpt><trkpt lat="43.1713933" lon="11.2107538"><ele>447.66666666666663</ele><time>2026-04-12T13:38:15.037Z</time></trkpt><trkpt lat="43.1713118" lon="11.2107066"><ele>448.5</ele><time>2026-04-12T13:38:18.047Z</time></trkpt><trkpt lat="43.1712311" lon="11.2106663"><ele>449.33333333333337</ele><time>2026-04-12T13:38:21.04Z</time></trkpt><trkpt lat="43.1711484" lon="11.2106107"><ele>450.1666666666667</ele><time>2026-04-12T13:38:24.059Z</time></trkpt><trkpt lat="43.1710902" lon="11.2105766"><ele>451.0</ele><time>2026-04-12T13:38:26.035Z</time></trkpt><trkpt lat="43.1710267" lon="11.2105434"><ele>451.00000000000006</ele><time>2026-04-12T13:38:28.035Z</time></trkpt><trkpt lat="43.1709702" lon="11.210499"><ele>451.0</ele><time>2026-04-12T13:38:30.054Z</time></trkpt><trkpt lat="43.1709115" lon="11.2104487"><ele>451.0</ele><time>2026-04-12T13:38:32.047Z</time></trkpt><trkpt lat="43.170825" lon="11.2103959"><ele>451.0</ele><time>2026-04-12T13:38:35.051Z</time></trkpt><trkpt lat="43.170757" lon="11.210346"><ele>451.00000000000006</ele><time>2026-04-12T13:38:38.048Z</time></trkpt><trkpt lat="43.1706872" lon="11.2103043"><ele>451.0</ele><time>2026-04-12T13:38:41.047Z</time></trkpt><trkpt lat="43.1705995" lon="11.2102663"><ele>450.6666666666667</ele><time>2026-04-12T13:38:44.035Z</time></trkpt><trkpt lat="43.1705277" lon="11.2102366"><ele>450.33333333333337</ele><time>2026-04-12T13:38:47.032Z</time></trkpt><trkpt lat="43.1704595" lon="11.2101781"><ele>450.0</ele><time>2026-04-12T13:38:50.044Z</time></trkpt><trkpt lat="43.1703734" lon="11.210143"><ele>449.66666666666663</ele><time>2026-04-12T13:38:53.046Z</time></trkpt><trkpt lat="43.1702973" lon="11.2100919"><ele>449.3333333333333</ele><time>2026-04-12T13:38:56.048Z</time></trkpt><trkpt lat="43.1702166" lon="11.2100601"><ele>449.0</ele><time>2026-04-12T13:38:59.042Z</time></trkpt><trkpt lat="43.1701471" lon="11.2100226"><ele>448.99999999999994</ele><time>2026-04-12T13:39:02.057Z</time></trkpt><trkpt lat="43.1700738" lon="11.209996"><ele>449.0</ele><time>2026-04-12T13:39:05.053Z</time></trkpt><trkpt lat="43.1700015" lon="11.2099733"><ele>449.0</ele><time>2026-04-12T13:39:08.053Z</time></trkpt><trkpt lat="43.1699207" lon="11.2099277"><ele>449.0</ele><time>2026-04-12T13:39:11.04Z</time></trkpt><trkpt lat="43.1698435" lon="11.2098986"><ele>448.99999999999994</ele><time>2026-04-12T13:39:14.057Z</time></trkpt><trkpt lat="43.1697672" lon="11.209841"><ele>449.0</ele><time>2026-04-12T13:39:17.046Z</time></trkpt><trkpt lat="43.1696913" lon="11.2097847"><ele>449.16666666666663</ele><time>2026-04-12T13:39:21.046Z</time></trkpt><trkpt lat="43.1696068" lon="11.2097394"><ele>449.3333333333333</ele><time>2026-04-12T13:39:24.047Z</time></trkpt><trkpt lat="43.1695208" lon="11.2097202"><ele>449.5</ele><time>2026-04-12T13:39:27.052Z</time></trkpt><trkpt lat="43.1694421" lon="11.2097151"><ele>449.66666666666663</ele><time>2026-04-12T13:39:30.049Z</time></trkpt><trkpt lat="43.1693659" lon="11.2096873"><ele>449.8333333333333</ele><time>2026-04-12T13:39:33.049Z</time></trkpt><trkpt lat="43.1692782" lon="11.2096439"><ele>450.0</ele><time>2026-04-12T13:39:36.042Z</time></trkpt><trkpt lat="43.1692165" lon="11.2096076"><ele>450.0</ele><time>2026-04-12T13:39:38.054Z</time></trkpt><trkpt lat="43.1691313" lon="11.2095709"><ele>450.0</ele><time>2026-04-12T13:39:41.045Z</time></trkpt><trkpt lat="43.1690559" lon="11.2095281"><ele>450.0</ele><time>2026-04-12T13:39:44.038Z</time></trkpt><trkpt lat="43.1689747" lon="11.2094805"><ele>450.0</ele><time>2026-04-12T13:39:47.062Z</time></trkpt><trkpt lat="43.1689051" lon="11.2094395"><ele>450.0</ele><time>2026-04-12T13:39:50.043Z</time></trkpt><trkpt lat="43.1688326" lon="11.2094154"><ele>450.0</ele><time>2026-04-12T13:39:53.033Z</time></trkpt><trkpt lat="43.1687666" lon="11.2094297"><ele>448.85714285714295</ele><time>2026-04-12T13:39:56.034Z</time></trkpt><trkpt lat="43.1687036" lon="11.2095074"><ele>447.7142857142857</ele><time>2026-04-12T13:39:59.049Z</time></trkpt><trkpt lat="43.1686496" lon="11.2095699"><ele>446.5714285714286</ele><time>2026-04-12T13:40:02.05Z</time></trkpt><trkpt lat="43.1685854" lon="11.2096123"><ele>445.42857142857144</ele><time>2026-04-12T13:40:07.053Z</time></trkpt><trkpt lat="43.1685192" lon="11.2096499"><ele>444.28571428571433</ele><time>2026-04-12T13:40:12.056Z</time></trkpt><trkpt lat="43.1684596" lon="11.2096784"><ele>443.14285714285717</ele><time>2026-04-12T13:40:16.046Z</time></trkpt><trkpt lat="43.1683929" lon="11.2097028"><ele>442.0</ele><time>2026-04-12T13:40:21.041Z</time></trkpt><trkpt lat="43.1683279" lon="11.2097527"><ele>442.00000000000006</ele><time>2026-04-12T13:40:25.036Z</time></trkpt><trkpt lat="43.1682588" lon="11.209805"><ele>442.0</ele><time>2026-04-12T13:40:30.042Z</time></trkpt><trkpt lat="43.1681954" lon="11.2098472"><ele>442.0</ele><time>2026-04-12T13:40:34.047Z</time></trkpt><trkpt lat="43.1681356" lon="11.2098882"><ele>442.0</ele><time>2026-04-12T13:40:38.046Z</time></trkpt><trkpt lat="43.1680732" lon="11.2099286"><ele>442.0</ele><time>2026-04-12T13:40:43.041Z</time></trkpt><trkpt lat="43.1680104" lon="11.2099676"><ele>442.00000000000006</ele><time>2026-04-12T13:40:47.042Z</time></trkpt><trkpt lat="43.1679522" lon="11.2100067"><ele>442.0</ele><time>2026-04-12T13:40:52.046Z</time></trkpt><trkpt lat="43.1678889" lon="11.2100368"><ele>439.5714285714286</ele><time>2026-04-12T13:40:56.04Z</time></trkpt><trkpt lat="43.1678273" lon="11.2100737"><ele>437.14285714285717</ele><time>2026-04-12T13:41:01.048Z</time></trkpt><trkpt lat="43.1677636" lon="11.2100924"><ele>434.7142857142857</ele><time>2026-04-12T13:41:05.055Z</time></trkpt><trkpt lat="43.1676902" lon="11.2101327"><ele>432.28571428571433</ele><time>2026-04-12T13:41:10.042Z</time></trkpt><trkpt lat="43.1676259" lon="11.2101699"><ele>429.85714285714283</ele><time>2026-04-12T13:41:15.042Z</time></trkpt><trkpt lat="43.1675654" lon="11.2102135"><ele>427.42857142857144</ele><time>2026-04-12T13:41:19.041Z</time></trkpt><trkpt lat="43.1675036" lon="11.2102492"><ele>425.0</ele><time>2026-04-12T13:41:23.042Z</time></trkpt><trkpt lat="43.1674457" lon="11.2102932"><ele>425.0</ele><time>2026-04-12T13:41:27.055Z</time></trkpt><trkpt lat="43.1673789" lon="11.2103397"><ele>425.0</ele><time>2026-04-12T13:41:32.049Z</time></trkpt><trkpt lat="43.1673154" lon="11.2103689"><ele>425.0</ele><time>2026-04-12T13:41:36.045Z</time></trkpt><trkpt lat="43.167252" lon="11.2104073"><ele>425.0</ele><time>2026-04-12T13:41:40.054Z</time></trkpt><trkpt lat="43.1671934" lon="11.2104429"><ele>425.0</ele><time>2026-04-12T13:41:44.048Z</time></trkpt><trkpt lat="43.1671275" lon="11.210491"><ele>425.0</ele><time>2026-04-12T13:41:48.048Z</time></trkpt><trkpt lat="43.1670573" lon="11.2105219"><ele>425.0</ele><time>2026-04-12T13:41:53.045Z</time></trkpt><trkpt lat="43.1669954" lon="11.2105547"><ele>423.42857142857144</ele><time>2026-04-12T13:41:57.054Z</time></trkpt><trkpt lat="43.1669339" lon="11.2105824"><ele>421.85714285714283</ele><time>2026-04-12T13:42:01.05Z</time></trkpt><trkpt lat="43.1668668" lon="11.2106345"><ele>420.28571428571433</ele><time>2026-04-12T13:42:06.041Z</time></trkpt><trkpt lat="43.1668038" lon="11.2106661"><ele>418.7142857142857</ele><time>2026-04-12T13:42:11.065Z</time></trkpt><trkpt lat="43.1667342" lon="11.2107003"><ele>417.14285714285717</ele><time>2026-04-12T13:42:16.059Z</time></trkpt><trkpt lat="43.1666745" lon="11.2107382"><ele>415.5714285714286</ele><time>2026-04-12T13:42:20.053Z</time></trkpt><trkpt lat="43.1666187" lon="11.2107797"><ele>414.0</ele><time>2026-04-12T13:42:24.04Z</time></trkpt><trkpt lat="43.1665583" lon="11.2108223"><ele>410.14285714285717</ele><time>2026-04-12T13:42:28.038Z</time></trkpt><trkpt lat="43.166495" lon="11.2108474"><ele>406.2857142857143</ele><time>2026-04-12T13:42:32.047Z</time></trkpt><trkpt lat="43.1664197" lon="11.2108756"><ele>402.42857142857144</ele><time>2026-04-12T13:42:37.042Z</time></trkpt><trkpt lat="43.1663576" lon="11.2109083"><ele>398.57142857142856</ele><time>2026-04-12T13:42:41.064Z</time></trkpt><trkpt lat="43.1662908" lon="11.2109174"><ele>394.7142857142857</ele><time>2026-04-12T13:42:45.045Z</time></trkpt><trkpt lat="43.1662261" lon="11.210861"><ele>390.8571428571429</ele><time>2026-04-12T13:42:50.043Z</time></trkpt><trkpt lat="43.1661597" lon="11.2108229"><ele>387.0</ele><time>2026-04-12T13:42:56.062Z</time></trkpt><trkpt lat="43.1660915" lon="11.2108031"><ele>387.0</ele><time>2026-04-12T13:43:10.037Z</time></trkpt><trkpt lat="43.1660279" lon="11.2107792"><ele>387.0</ele><time>2026-04-12T13:43:19.048Z</time></trkpt><trkpt lat="43.1659534" lon="11.2107738"><ele>387.0</ele><time>2026-04-12T13:43:31.038Z</time></trkpt><trkpt lat="43.165885" lon="11.2107838"><ele>387.0</ele><time>2026-04-12T13:43:40.043Z</time></trkpt><trkpt lat="43.1658148" lon="11.2108058"><ele>387.0</ele><time>2026-04-12T13:43:46.038Z</time></trkpt><trkpt lat="43.1657406" lon="11.2108038"><ele>387.0</ele><time>2026-04-12T13:43:52.055Z</time></trkpt><trkpt lat="43.1656777" lon="11.2108481"><ele>387.0</ele><time>2026-04-12T13:44:08.056Z</time></trkpt><trkpt lat="43.1656245" lon="11.2108987"><ele>383.2857142857143</ele><time>2026-04-12T13:44:15.046Z</time></trkpt><trkpt lat="43.1655654" lon="11.2109331"><ele>379.57142857142856</ele><time>2026-04-12T13:44:21.049Z</time></trkpt><trkpt lat="43.165493" lon="11.2109468"><ele>375.8571428571429</ele><time>2026-04-12T13:44:27.05Z</time></trkpt><trkpt lat="43.1654301" lon="11.210991"><ele>372.1428571428571</ele><time>2026-04-12T13:44:33.051Z</time></trkpt><trkpt lat="43.1653607" lon="11.2110287"><ele>368.4285714285714</ele><time>2026-04-12T13:44:38.041Z</time></trkpt><trkpt lat="43.165297" lon="11.2110471"><ele>364.7142857142857</ele><time>2026-04-12T13:44:43.046Z</time></trkpt><trkpt lat="43.1652301" lon="11.2110695"><ele>361.0</ele><time>2026-04-12T13:44:48.053Z</time></trkpt><trkpt lat="43.1651601" lon="11.2110964"><ele>361.0</ele><time>2026-04-12T13:45:02.055Z</time></trkpt><trkpt lat="43.1650922" lon="11.2111288"><ele>361.0</ele><time>2026-04-12T13:45:16.035Z</time></trkpt><trkpt lat="43.165027" lon="11.211135"><ele>361.0</ele><time>2026-04-12T13:45:22.032Z</time></trkpt><trkpt lat="43.1649739" lon="11.2111821"><ele>361.0</ele><time>2026-04-12T13:45:29.052Z</time></trkpt><trkpt lat="43.1649083" lon="11.2112215"><ele>361.0</ele><time>2026-04-12T13:45:35.042Z</time></trkpt><trkpt lat="43.1648399" lon="11.211262"><ele>361.0</ele><time>2026-04-12T13:45:41.04Z</time></trkpt><trkpt lat="43.164775" lon="11.2112957"><ele>361.0</ele><time>2026-04-12T13:45:47.054Z</time></trkpt><trkpt lat="43.1647106" lon="11.2113361"><ele>358.0</ele><time>2026-04-12T13:45:52.039Z</time></trkpt><trkpt lat="43.1646455" lon="11.2113647"><ele>355.0</ele><time>2026-04-12T13:45:57.035Z</time></trkpt><trkpt lat="43.1645851" lon="11.2113975"><ele>352.0</ele><time>2026-04-12T13:46:01.044Z</time></trkpt><trkpt lat="43.1645137" lon="11.2114396"><ele>349.0</ele><time>2026-04-12T13:46:06.037Z</time></trkpt><trkpt lat="43.1644444" lon="11.2114722"><ele>346.0</ele><time>2026-04-12T13:46:10.038Z</time></trkpt><trkpt lat="43.1643843" lon="11.2115048"><ele>343.0</ele><time>2026-04-12T13:46:16.051Z</time></trkpt><trkpt lat="43.1643179" lon="11.2115297"><ele>340.0</ele><time>2026-04-12T13:46:26.058Z</time></trkpt><trkpt lat="43.1642598" lon="11.211567"><ele>340.0</ele><time>2026-04-12T13:46:31.046Z</time></trkpt><trkpt lat="43.1642006" lon="11.2116032"><ele>340.0</ele><time>2026-04-12T13:46:35.031Z</time></trkpt><trkpt lat="43.1641543" lon="11.211682"><ele>340.0</ele><time>2026-04-12T13:46:40.035Z</time></trkpt><trkpt lat="43.1641096" lon="11.2117459"><ele>340.0</ele><time>2026-04-12T13:46:47.053Z</time></trkpt><trkpt lat="43.1640503" lon="11.2117799"><ele>340.0</ele><time>2026-04-12T13:46:51.04Z</time></trkpt><trkpt lat="43.163981" lon="11.2118182"><ele>340.0</ele><time>2026-04-12T13:46:55.024Z</time></trkpt><trkpt lat="43.1639069" lon="11.2118422"><ele>340.0</ele><time>2026-04-12T13:47:00.057Z</time></trkpt><trkpt lat="43.163838" lon="11.211859"><ele>337.8571428571429</ele><time>2026-04-12T13:47:06.047Z</time></trkpt><trkpt lat="43.1637688" lon="11.2118901"><ele>335.71428571428567</ele><time>2026-04-12T13:47:12.048Z</time></trkpt><trkpt lat="43.1637001" lon="11.2119314"><ele>333.57142857142856</ele><time>2026-04-12T13:47:16.043Z</time></trkpt><trkpt lat="43.1636228" lon="11.2119638"><ele>331.42857142857144</ele><time>2026-04-12T13:47:20.11Z</time></trkpt><trkpt lat="43.163559" lon="11.2119806"><ele>329.28571428571433</ele><time>2026-04-12T13:47:23.029Z</time></trkpt><trkpt lat="43.1634869" lon="11.2119983"><ele>327.1428571428571</ele><time>2026-04-12T13:47:33.05Z</time></trkpt><trkpt lat="43.1634193" lon="11.2120347"><ele>325.0</ele><time>2026-04-12T13:47:38.052Z</time></trkpt><trkpt lat="43.1633451" lon="11.2120557"><ele>325.0</ele><time>2026-04-12T13:47:42.051Z</time></trkpt><trkpt lat="43.1632698" lon="11.2120701"><ele>325.0</ele><time>2026-04-12T13:47:46.052Z</time></trkpt><trkpt lat="43.1632004" lon="11.2120872"><ele>325.0</ele><time>2026-04-12T13:47:49.044Z</time></trkpt><trkpt lat="43.1631265" lon="11.2120909"><ele>325.0</ele><time>2026-04-12T13:47:52.053Z</time></trkpt><trkpt lat="43.1630521" lon="11.2121078"><ele>325.0</ele><time>2026-04-12T13:47:55.052Z</time></trkpt><trkpt lat="43.1629903" lon="11.2121247"><ele>325.0</ele><time>2026-04-12T13:47:58.046Z</time></trkpt><trkpt lat="43.1629182" lon="11.2121441"><ele>325.0</ele><time>2026-04-12T13:48:02.06Z</time></trkpt><trkpt lat="43.1628392" lon="11.2121605"><ele>324.8333333333333</ele><time>2026-04-12T13:48:06.05Z</time></trkpt><trkpt lat="43.1627681" lon="11.2121866"><ele>324.66666666666663</ele><time>2026-04-12T13:48:10.043Z</time></trkpt><trkpt lat="43.1626865" lon="11.2122125"><ele>324.5</ele><time>2026-04-12T13:48:14.041Z</time></trkpt><trkpt lat="43.1626249" lon="11.2122482"><ele>324.3333333333333</ele><time>2026-04-12T13:48:17.042Z</time></trkpt><trkpt lat="43.1625564" lon="11.2122793"><ele>324.1666666666667</ele><time>2026-04-12T13:48:20.045Z</time></trkpt><trkpt lat="43.1624773" lon="11.212312"><ele>324.0</ele><time>2026-04-12T13:48:24.042Z</time></trkpt><trkpt lat="43.162402" lon="11.2123466"><ele>324.14285714285717</ele><time>2026-04-12T13:48:27.043Z</time></trkpt><trkpt lat="43.1623243" lon="11.2123705"><ele>324.2857142857143</ele><time>2026-04-12T13:48:30.058Z</time></trkpt><trkpt lat="43.1622454" lon="11.2123844"><ele>324.42857142857144</ele><time>2026-04-12T13:48:33.063Z</time></trkpt><trkpt lat="43.1621771" lon="11.2123886"><ele>324.57142857142856</ele><time>2026-04-12T13:48:36.035Z</time></trkpt><trkpt lat="43.1620936" lon="11.2124013"><ele>324.7142857142857</ele><time>2026-04-12T13:48:40.041Z</time></trkpt><trkpt lat="43.1620247" lon="11.2124003"><ele>324.85714285714283</ele><time>2026-04-12T13:48:43.068Z</time></trkpt><trkpt lat="43.1619614" lon="11.2123813"><ele>325.0</ele><time>2026-04-12T13:48:46.036Z</time></trkpt><trkpt lat="43.1618888" lon="11.2123653"><ele>325.0</ele><time>2026-04-12T13:48:49.065Z</time></trkpt><trkpt lat="43.1618221" lon="11.2123402"><ele>325.0</ele><time>2026-04-12T13:48:52.053Z</time></trkpt><trkpt lat="43.161741" lon="11.2123241"><ele>325.0</ele><time>2026-04-12T13:48:55.05Z</time></trkpt><trkpt lat="43.1616499" lon="11.2123196"><ele>325.0</ele><time>2026-04-12T13:48:58.058Z</time></trkpt><trkpt lat="43.1615564" lon="11.2123036"><ele>325.0</ele><time>2026-04-12T13:49:01.053Z</time></trkpt><trkpt lat="43.1614762" lon="11.2122968"><ele>325.0</ele><time>2026-04-12T13:49:04.042Z</time></trkpt><trkpt lat="43.1613943" lon="11.212301"><ele>324.5</ele><time>2026-04-12T13:49:07.049Z</time></trkpt><trkpt lat="43.1613204" lon="11.2122942"><ele>324.0</ele><time>2026-04-12T13:49:10.043Z</time></trkpt><trkpt lat="43.1612488" lon="11.212293"><ele>323.5</ele><time>2026-04-12T13:49:13.051Z</time></trkpt><trkpt lat="43.1611671" lon="11.2122813"><ele>323.0</ele><time>2026-04-12T13:49:16.044Z</time></trkpt><trkpt lat="43.1610748" lon="11.2122693"><ele>322.5</ele><time>2026-04-12T13:49:19.056Z</time></trkpt><trkpt lat="43.1610064" lon="11.2122592"><ele>322.0</ele><time>2026-04-12T13:49:21.062Z</time></trkpt><trkpt lat="43.1609239" lon="11.2122488"><ele>322.0</ele><time>2026-04-12T13:49:24.054Z</time></trkpt><trkpt lat="43.1608537" lon="11.2122549"><ele>322.0</ele><time>2026-04-12T13:49:27.051Z</time></trkpt><trkpt lat="43.1607872" lon="11.2122482"><ele>322.0</ele><time>2026-04-12T13:49:30.039Z</time></trkpt><trkpt lat="43.1607084" lon="11.2122459"><ele>322.0</ele><time>2026-04-12T13:49:33.045Z</time></trkpt><trkpt lat="43.1606429" lon="11.2122155"><ele>322.0</ele><time>2026-04-12T13:49:37.038Z</time></trkpt><trkpt lat="43.1605723" lon="11.2122044"><ele>322.0</ele><time>2026-04-12T13:49:55.052Z</time></trkpt><trkpt lat="43.1604851" lon="11.2121995"><ele>322.0</ele><time>2026-04-12T13:50:43.03Z</time></trkpt><trkpt lat="43.1604114" lon="11.2121982"><ele>322.66666666666663</ele><time>2026-04-12T13:50:47.055Z</time></trkpt><trkpt lat="43.1603376" lon="11.2121894"><ele>323.3333333333333</ele><time>2026-04-12T13:50:51.057Z</time></trkpt><trkpt lat="43.1602568" lon="11.2121878"><ele>324.0</ele><time>2026-04-12T13:50:55.053Z</time></trkpt><trkpt lat="43.1601803" lon="11.2121822"><ele>324.6666666666667</ele><time>2026-04-12T13:50:59.047Z</time></trkpt><trkpt lat="43.1600941" lon="11.2121746"><ele>325.33333333333337</ele><time>2026-04-12T13:51:03.05Z</time></trkpt><trkpt lat="43.1600257" lon="11.2121429"><ele>326.0</ele><time>2026-04-12T13:51:07.051Z</time></trkpt><trkpt lat="43.1599392" lon="11.2121237"><ele>326.0</ele><time>2026-04-12T13:51:33.046Z</time></trkpt><trkpt lat="43.1598824" lon="11.2120814"><ele>326.0</ele><time>2026-04-12T13:51:50.048Z</time></trkpt><trkpt lat="43.1598216" lon="11.2120542"><ele>326.0</ele><time>2026-04-12T13:52:05.045Z</time></trkpt><trkpt lat="43.1597521" lon="11.2120224"><ele>326.0</ele><time>2026-04-12T13:52:10.041Z</time></trkpt><trkpt lat="43.1596829" lon="11.2119974"><ele>326.0</ele><time>2026-04-12T13:52:15.044Z</time></trkpt><trkpt lat="43.159612" lon="11.2119983"><ele>326.0</ele><time>2026-04-12T13:52:21.048Z</time></trkpt><trkpt lat="43.1595405" lon="11.211968"><ele>326.0</ele><time>2026-04-12T13:52:26.064Z</time></trkpt><trkpt lat="43.1594635" lon="11.2119547"><ele>325.14285714285717</ele><time>2026-04-12T13:52:30.046Z</time></trkpt><trkpt lat="43.1593897" lon="11.2119474"><ele>324.2857142857143</ele><time>2026-04-12T13:52:35.062Z</time></trkpt><trkpt lat="43.1593192" lon="11.2119552"><ele>323.42857142857144</ele><time>2026-04-12T13:52:39.047Z</time></trkpt><trkpt lat="43.1592433" lon="11.211964"><ele>322.57142857142856</ele><time>2026-04-12T13:52:43.046Z</time></trkpt><trkpt lat="43.1591569" lon="11.2119588"><ele>321.7142857142857</ele><time>2026-04-12T13:52:47.044Z</time></trkpt><trkpt lat="43.1590868" lon="11.2119628"><ele>320.85714285714283</ele><time>2026-04-12T13:52:51.056Z</time></trkpt><trkpt lat="43.1590185" lon="11.2119718"><ele>320.0</ele><time>2026-04-12T13:53:07.047Z</time></trkpt><trkpt lat="43.1589418" lon="11.2119623"><ele>319.42857142857144</ele><time>2026-04-12T13:53:12.048Z</time></trkpt><trkpt lat="43.15888" lon="11.2119395"><ele>318.8571428571429</ele><time>2026-04-12T13:53:17.054Z</time></trkpt><trkpt lat="43.1588135" lon="11.2119193"><ele>318.28571428571433</ele><time>2026-04-12T13:54:09.047Z</time></trkpt><trkpt lat="43.1587361" lon="11.2119016"><ele>317.7142857142857</ele><time>2026-04-12T13:54:14.032Z</time></trkpt><trkpt lat="43.1586638" lon="11.2118903"><ele>317.14285714285717</ele><time>2026-04-12T13:54:19.045Z</time></trkpt><trkpt lat="43.1585962" lon="11.2118653"><ele>316.5714285714286</ele><time>2026-04-12T13:54:24.052Z</time></trkpt><trkpt lat="43.1585131" lon="11.211868"><ele>316.0</ele><time>2026-04-12T13:54:28.053Z</time></trkpt><trkpt lat="43.1584439" lon="11.211883"><ele>316.00000000000006</ele><time>2026-04-12T13:54:33.045Z</time></trkpt><trkpt lat="43.1583834" lon="11.2119107"><ele>316.0</ele><time>2026-04-12T13:54:37.024Z</time></trkpt><trkpt lat="43.158324" lon="11.2119453"><ele>316.0</ele><time>2026-04-12T13:54:42.067Z</time></trkpt><trkpt lat="43.1582588" lon="11.2119746"><ele>316.0</ele><time>2026-04-12T13:54:47.054Z</time></trkpt><trkpt lat="43.1581843" lon="11.2120171"><ele>316.0</ele><time>2026-04-12T13:54:52.041Z</time></trkpt><trkpt lat="43.1581286" lon="11.2120672"><ele>316.00000000000006</ele><time>2026-04-12T13:54:57.042Z</time></trkpt><trkpt lat="43.1580693" lon="11.2121137"><ele>316.0</ele><time>2026-04-12T13:55:02.05Z</time></trkpt><trkpt lat="43.1580094" lon="11.2121431"><ele>314.28571428571433</ele><time>2026-04-12T13:55:07.048Z</time></trkpt><trkpt lat="43.1579215" lon="11.2121694"><ele>312.57142857142856</ele><time>2026-04-12T13:55:37.058Z</time></trkpt><trkpt lat="43.1578651" lon="11.2122138"><ele>310.8571428571429</ele><time>2026-04-12T13:56:04.041Z</time></trkpt><trkpt lat="43.1578011" lon="11.2122426"><ele>309.14285714285717</ele><time>2026-04-12T13:57:25.037Z</time></trkpt><trkpt lat="43.1577414" lon="11.2122803"><ele>307.42857142857144</ele><time>2026-04-12T13:57:57.044Z</time></trkpt><trkpt lat="43.1576759" lon="11.2123178"><ele>305.7142857142857</ele><time>2026-04-12T13:58:24.052Z</time></trkpt><trkpt lat="43.157601" lon="11.2123667"><ele>304.0</ele><time>2026-04-12T13:58:55.048Z</time></trkpt><trkpt lat="43.1575343" lon="11.2123863"><ele>304.0</ele><time>2026-04-12T13:59:25.04Z</time></trkpt><trkpt lat="43.1574728" lon="11.2124283"><ele>304.0</ele><time>2026-04-12T13:59:32.054Z</time></trkpt><trkpt lat="43.1574138" lon="11.2124696"><ele>304.0</ele><time>2026-04-12T13:59:37.043Z</time></trkpt><trkpt lat="43.1573563" lon="11.2125124"><ele>304.0</ele><time>2026-04-12T13:59:46.031Z</time></trkpt><trkpt lat="43.1572964" lon="11.2125559"><ele>304.0</ele><time>2026-04-12T13:59:55.043Z</time></trkpt><trkpt lat="43.1572398" lon="11.2125953"><ele>304.0</ele><time>2026-04-12T14:01:59.052Z</time></trkpt><trkpt lat="43.1571777" lon="11.2126224"><ele>304.0</ele><time>2026-04-12T14:02:11.024Z</time></trkpt><trkpt lat="43.1571166" lon="11.2126604"><ele>301.1428571428571</ele><time>2026-04-12T14:02:22.037Z</time></trkpt><trkpt lat="43.1570523" lon="11.2126867"><ele>298.28571428571433</ele><time>2026-04-12T14:02:29.044Z</time></trkpt><trkpt lat="43.1570229" lon="11.2127688"><ele>295.42857142857144</ele><time>2026-04-12T14:02:46.033Z</time></trkpt><trkpt lat="43.1569655" lon="11.2128239"><ele>292.57142857142856</ele><time>2026-04-12T14:02:53.047Z</time></trkpt><trkpt lat="43.1569117" lon="11.2128693"><ele>289.71428571428567</ele><time>2026-04-12T14:03:00.049Z</time></trkpt><trkpt lat="43.1568547" lon="11.2129118"><ele>286.85714285714283</ele><time>2026-04-12T14:03:07.052Z</time></trkpt><trkpt lat="43.1567899" lon="11.2129606"><ele>284.0</ele><time>2026-04-12T14:03:15.043Z</time></trkpt><trkpt lat="43.1567207" lon="11.2130004"><ele>284.0</ele><time>2026-04-12T14:03:22.034Z</time></trkpt><trkpt lat="43.1566573" lon="11.2130272"><ele>284.0</ele><time>2026-04-12T14:03:27.034Z</time></trkpt><trkpt lat="43.156602" lon="11.213089"><ele>284.0</ele><time>2026-04-12T14:03:33.05Z</time></trkpt><trkpt lat="43.1565633" lon="11.2131796"><ele>284.0</ele><time>2026-04-12T14:03:38.044Z</time></trkpt><trkpt lat="43.1565323" lon="11.2132576"><ele>284.0</ele><time>2026-04-12T14:03:43.041Z</time></trkpt><trkpt lat="43.1565216" lon="11.2133519"><ele>284.0</ele><time>2026-04-12T14:03:49.045Z</time></trkpt><trkpt lat="43.1564666" lon="11.2134274"><ele>284.0</ele><time>2026-04-12T14:03:56.05Z</time></trkpt><trkpt lat="43.1564117" lon="11.2134907"><ele>281.2857142857143</ele><time>2026-04-12T14:04:02.045Z</time></trkpt><trkpt lat="43.1563639" lon="11.2135546"><ele>278.57142857142856</ele><time>2026-04-12T14:04:08.044Z</time></trkpt><trkpt lat="43.1563183" lon="11.2136247"><ele>275.85714285714283</ele><time>2026-04-12T14:04:13.03Z</time></trkpt><trkpt lat="43.1562888" lon="11.2137123"><ele>273.1428571428571</ele><time>2026-04-12T14:04:18.053Z</time></trkpt><trkpt lat="43.156244" lon="11.2137851"><ele>270.42857142857144</ele><time>2026-04-12T14:04:26.031Z</time></trkpt><trkpt lat="43.1561908" lon="11.2138524"><ele>267.71428571428567</ele><time>2026-04-12T14:04:32.036Z</time></trkpt><trkpt lat="43.1561553" lon="11.2139343"><ele>265.0</ele><time>2026-04-12T14:04:37.034Z</time></trkpt><trkpt lat="43.1561047" lon="11.214012"><ele>264.99999999999994</ele><time>2026-04-12T14:07:23.042Z</time></trkpt><trkpt lat="43.1560677" lon="11.214098"><ele>265.0</ele><time>2026-04-12T14:07:55.044Z</time></trkpt><trkpt lat="43.1560186" lon="11.2141804"><ele>265.0</ele><time>2026-04-12T14:09:22.051Z</time></trkpt><trkpt lat="43.1559805" lon="11.214266"><ele>265.0</ele><time>2026-04-12T14:10:18.052Z</time></trkpt><trkpt lat="43.1559473" lon="11.2143424"><ele>265.0</ele><time>2026-04-12T14:10:50.048Z</time></trkpt><trkpt lat="43.1559113" lon="11.2144132"><ele>264.99999999999994</ele><time>2026-04-12T14:11:00.036Z</time></trkpt><trkpt lat="43.1558937" lon="11.2145037"><ele>265.0</ele><time>2026-04-12T14:11:07.039Z</time></trkpt><trkpt lat="43.1558631" lon="11.2145794"><ele>264.99999999999994</ele><time>2026-04-12T14:11:15.044Z</time></trkpt><trkpt lat="43.1558124" lon="11.2146369"><ele>265.0</ele><time>2026-04-12T14:11:23.06Z</time></trkpt><trkpt lat="43.1557521" lon="11.2145994"><ele>265.0</ele><time>2026-04-12T14:11:41.042Z</time></trkpt><trkpt lat="43.1557751" lon="11.2145057"><ele>265.0</ele><time>2026-04-12T14:12:49.038Z</time></trkpt><trkpt lat="43.1558062" lon="11.2144129"><ele>265.0</ele><time>2026-04-12T14:12:55.063Z</time></trkpt><trkpt lat="43.1558176" lon="11.2143135"><ele>264.99999999999994</ele><time>2026-04-12T14:12:59.048Z</time></trkpt><trkpt lat="43.1558178" lon="11.2142072"><ele>265.0</ele><time>2026-04-12T14:13:03.057Z</time></trkpt><trkpt lat="43.1558159" lon="11.2141088"><ele>265.0</ele><time>2026-04-12T14:13:07.073Z</time></trkpt><trkpt lat="43.1558089" lon="11.214007"><ele>265.0</ele><time>2026-04-12T14:13:11.055Z</time></trkpt><trkpt lat="43.1558058" lon="11.2138868"><ele>265.0</ele><time>2026-04-12T14:13:14.042Z</time></trkpt><trkpt lat="43.1558069" lon="11.2137571"><ele>265.0</ele><time>2026-04-12T14:13:17.037Z</time></trkpt><trkpt lat="43.1558299" lon="11.2136733"><ele>265.0</ele><time>2026-04-12T14:13:19.032Z</time></trkpt><trkpt lat="43.1558876" lon="11.213566"><ele>265.0</ele><time>2026-04-12T14:13:22.045Z</time></trkpt><trkpt lat="43.1559257" lon="11.2134929"><ele>264.5</ele><time>2026-04-12T14:13:24.083Z</time></trkpt><trkpt lat="43.1559819" lon="11.2134253"><ele>264.0</ele><time>2026-04-12T14:13:26.065Z</time></trkpt><trkpt lat="43.1560243" lon="11.2133419"><ele>263.5</ele><time>2026-04-12T14:13:28.032Z</time></trkpt><trkpt lat="43.1560688" lon="11.2132465"><ele>263.0</ele><time>2026-04-12T14:13:30.044Z</time></trkpt><trkpt lat="43.1561257" lon="11.2131551"><ele>262.5</ele><time>2026-04-12T14:13:33.047Z</time></trkpt><trkpt lat="43.1561825" lon="11.2130577"><ele>262.0</ele><time>2026-04-12T14:13:36.059Z</time></trkpt><trkpt lat="43.156219" lon="11.21298"><ele>261.8333333333333</ele><time>2026-04-12T14:13:38.066Z</time></trkpt><trkpt lat="43.1562607" lon="11.2128616"><ele>261.66666666666663</ele><time>2026-04-12T14:13:41.042Z</time></trkpt><trkpt lat="43.1563099" lon="11.2127691"><ele>261.5</ele><time>2026-04-12T14:13:44.047Z</time></trkpt><trkpt lat="43.1563579" lon="11.2126767"><ele>261.3333333333333</ele><time>2026-04-12T14:13:47.072Z</time></trkpt><trkpt lat="43.1563973" lon="11.2126067"><ele>261.1666666666667</ele><time>2026-04-12T14:13:49.047Z</time></trkpt><trkpt lat="43.1564304" lon="11.2125254"><ele>261.0</ele><time>2026-04-12T14:13:51.039Z</time></trkpt><trkpt lat="43.1564398" lon="11.2124336"><ele>261.0</ele><time>2026-04-12T14:13:53.043Z</time></trkpt><trkpt lat="43.156431" lon="11.2123257"><ele>261.0</ele><time>2026-04-12T14:13:55.036Z</time></trkpt><trkpt lat="43.156417" lon="11.2122298"><ele>261.0</ele><time>2026-04-12T14:13:57.038Z</time></trkpt><trkpt lat="43.1564126" lon="11.2121321"><ele>261.0</ele><time>2026-04-12T14:13:59.066Z</time></trkpt><trkpt lat="43.1563983" lon="11.2120231"><ele>261.0</ele><time>2026-04-12T14:14:01.046Z</time></trkpt><trkpt lat="43.1563948" lon="11.2119124"><ele>261.0</ele><time>2026-04-12T14:14:03.044Z</time></trkpt><trkpt lat="43.1563838" lon="11.211819"><ele>261.1666666666667</ele><time>2026-04-12T14:14:05.041Z</time></trkpt><trkpt lat="43.1563847" lon="11.2117195"><ele>261.3333333333333</ele><time>2026-04-12T14:14:07.037Z</time></trkpt><trkpt lat="43.1564112" lon="11.2116038"><ele>261.5</ele><time>2026-04-12T14:14:09.039Z</time></trkpt><trkpt lat="43.1564459" lon="11.2115011"><ele>261.66666666666663</ele><time>2026-04-12T14:14:11.027Z</time></trkpt><trkpt lat="43.1564858" lon="11.2113878"><ele>261.8333333333333</ele><time>2026-04-12T14:14:13.032Z</time></trkpt><trkpt lat="43.1565344" lon="11.2112903"><ele>262.0</ele><time>2026-04-12T14:14:15.055Z</time></trkpt><trkpt lat="43.1565747" lon="11.2112167"><ele>264.16666666666663</ele><time>2026-04-12T14:14:17.034Z</time></trkpt><trkpt lat="43.1566229" lon="11.2111164"><ele>266.3333333333333</ele><time>2026-04-12T14:14:20.046Z</time></trkpt><trkpt lat="43.1566579" lon="11.2110372"><ele>268.5</ele><time>2026-04-12T14:14:22.043Z</time></trkpt><trkpt lat="43.1567153" lon="11.2109335"><ele>270.6666666666667</ele><time>2026-04-12T14:14:25.037Z</time></trkpt><trkpt lat="43.1567506" lon="11.2108561"><ele>272.83333333333337</ele><time>2026-04-12T14:14:27.064Z</time></trkpt><trkpt lat="43.1567988" lon="11.2107771"><ele>275.0</ele><time>2026-04-12T14:14:29.034Z</time></trkpt><trkpt lat="43.1568459" lon="11.2107037"><ele>273.0</ele><time>2026-04-12T14:14:31.046Z</time></trkpt><trkpt lat="43.1568908" lon="11.2106205"><ele>271.0</ele><time>2026-04-12T14:14:33.042Z</time></trkpt><trkpt lat="43.1569367" lon="11.2105464"><ele>269.0</ele><time>2026-04-12T14:14:35.044Z</time></trkpt><trkpt lat="43.1570014" lon="11.2104747"><ele>267.0</ele><time>2026-04-12T14:14:37.034Z</time></trkpt><trkpt lat="43.1570698" lon="11.2103889"><ele>265.0</ele><time>2026-04-12T14:14:39.032Z</time></trkpt><trkpt lat="43.1571273" lon="11.2103146"><ele>263.0</ele><time>2026-04-12T14:14:41.054Z</time></trkpt><trkpt lat="43.1571775" lon="11.2102539"><ele>263.0</ele><time>2026-04-12T14:14:43.024Z</time></trkpt><trkpt lat="43.1572356" lon="11.2101875"><ele>263.0</ele><time>2026-04-12T14:14:45.021Z</time></trkpt><trkpt lat="43.157292" lon="11.2101256"><ele>263.0</ele><time>2026-04-12T14:14:47.045Z</time></trkpt><trkpt lat="43.1573463" lon="11.2100766"><ele>263.0</ele><time>2026-04-12T14:14:49.044Z</time></trkpt><trkpt lat="43.1574161" lon="11.2100555"><ele>263.0</ele><time>2026-04-12T14:14:51.038Z</time></trkpt><trkpt lat="43.1574878" lon="11.2100761"><ele>263.0</ele><time>2026-04-12T14:14:53.039Z</time></trkpt><trkpt lat="43.1575572" lon="11.2101156"><ele>263.0</ele><time>2026-04-12T14:14:55.037Z</time></trkpt><trkpt lat="43.1576239" lon="11.2101492"><ele>265.1666666666667</ele><time>2026-04-12T14:14:57.032Z</time></trkpt><trkpt lat="43.1577063" lon="11.2101602"><ele>267.33333333333337</ele><time>2026-04-12T14:14:59.048Z</time></trkpt><trkpt lat="43.1577876" lon="11.2101694"><ele>269.5</ele><time>2026-04-12T14:15:01.038Z</time></trkpt><trkpt lat="43.1578574" lon="11.2101691"><ele>271.6666666666667</ele><time>2026-04-12T14:15:03.043Z</time></trkpt><trkpt lat="43.1579303" lon="11.210178"><ele>273.8333333333333</ele><time>2026-04-12T14:15:05.042Z</time></trkpt><trkpt lat="43.1579997" lon="11.2101807"><ele>276.0</ele><time>2026-04-12T14:15:07.053Z</time></trkpt><trkpt lat="43.1580763" lon="11.2101937"><ele>276.0</ele><time>2026-04-12T14:15:09.069Z</time></trkpt><trkpt lat="43.1581585" lon="11.2102111"><ele>276.0</ele><time>2026-04-12T14:15:11.06Z</time></trkpt><trkpt lat="43.1582502" lon="11.210225"><ele>276.0</ele><time>2026-04-12T14:15:13.074Z</time></trkpt><trkpt lat="43.1583463" lon="11.210248"><ele>276.0</ele><time>2026-04-12T14:15:15.034Z</time></trkpt><trkpt lat="43.1584284" lon="11.2102527"><ele>276.0</ele><time>2026-04-12T14:15:17.037Z</time></trkpt><trkpt lat="43.158499" lon="11.2102233"><ele>276.0</ele><time>2026-04-12T14:15:19.053Z</time></trkpt><trkpt lat="43.1585592" lon="11.2101721"><ele>276.3333333333333</ele><time>2026-04-12T14:15:21.045Z</time></trkpt><trkpt lat="43.1586318" lon="11.2101079"><ele>276.6666666666667</ele><time>2026-04-12T14:15:24.039Z</time></trkpt><trkpt lat="43.1587195" lon="11.2100744"><ele>277.0</ele><time>2026-04-12T14:15:27.049Z</time></trkpt><trkpt lat="43.1587909" lon="11.2100672"><ele>277.33333333333337</ele><time>2026-04-12T14:15:29.041Z</time></trkpt><trkpt lat="43.1588754" lon="11.2100798"><ele>277.6666666666667</ele><time>2026-04-12T14:15:31.04Z</time></trkpt><trkpt lat="43.1589549" lon="11.2100917"><ele>278.0</ele><time>2026-04-12T14:15:33.037Z</time></trkpt><trkpt lat="43.1590314" lon="11.2101069"><ele>278.6666666666667</ele><time>2026-04-12T14:15:35.04Z</time></trkpt><trkpt lat="43.1591199" lon="11.2101378"><ele>279.33333333333337</ele><time>2026-04-12T14:15:37.04Z</time></trkpt><trkpt lat="43.1592037" lon="11.2101649"><ele>280.0</ele><time>2026-04-12T14:15:39.048Z</time></trkpt><trkpt lat="43.159282" lon="11.2101849"><ele>280.6666666666667</ele><time>2026-04-12T14:15:41.045Z</time></trkpt><trkpt lat="43.1593546" lon="11.2101938"><ele>281.3333333333333</ele><time>2026-04-12T14:15:43.038Z</time></trkpt><trkpt lat="43.1594474" lon="11.2101992"><ele>282.0</ele><time>2026-04-12T14:15:45.032Z</time></trkpt><trkpt lat="43.159524" lon="11.2101975"><ele>282.0</ele><time>2026-04-12T14:15:47.038Z</time></trkpt><trkpt lat="43.1595991" lon="11.210176"><ele>282.0</ele><time>2026-04-12T14:15:49.046Z</time></trkpt><trkpt lat="43.1596685" lon="11.210155"><ele>282.0</ele><time>2026-04-12T14:15:51.044Z</time></trkpt><trkpt lat="43.1597439" lon="11.2101415"><ele>282.0</ele><time>2026-04-12T14:15:53.05Z</time></trkpt><trkpt lat="43.1598137" lon="11.2101368"><ele>282.0</ele><time>2026-04-12T14:15:55.031Z</time></trkpt><trkpt lat="43.1599026" lon="11.2101425"><ele>282.0</ele><time>2026-04-12T14:15:57.039Z</time></trkpt><trkpt lat="43.1599857" lon="11.2101532"><ele>282.0</ele><time>2026-04-12T14:15:59.028Z</time></trkpt><trkpt lat="43.1600558" lon="11.2101557"><ele>282.0</ele><time>2026-04-12T14:16:01.047Z</time></trkpt><trkpt lat="43.1601509" lon="11.2101337"><ele>282.0</ele><time>2026-04-12T14:16:04.056Z</time></trkpt><trkpt lat="43.1602194" lon="11.2101223"><ele>282.0</ele><time>2026-04-12T14:16:06.045Z</time></trkpt><trkpt lat="43.1602845" lon="11.2100933"><ele>282.0</ele><time>2026-04-12T14:16:08.042Z</time></trkpt><trkpt lat="43.1603474" lon="11.2100695"><ele>282.0</ele><time>2026-04-12T14:16:10.057Z</time></trkpt><trkpt lat="43.1604217" lon="11.2100353"><ele>282.0</ele><time>2026-04-12T14:16:12.04Z</time></trkpt><trkpt lat="43.1604844" lon="11.2100003"><ele>282.0</ele><time>2026-04-12T14:16:14.041Z</time></trkpt><trkpt lat="43.16055" lon="11.2099738"><ele>282.0</ele><time>2026-04-12T14:16:16.035Z</time></trkpt><trkpt lat="43.1606238" lon="11.2099545"><ele>282.0</ele><time>2026-04-12T14:16:18.029Z</time></trkpt><trkpt lat="43.1607073" lon="11.2099401"><ele>282.0</ele><time>2026-04-12T14:16:20.051Z</time></trkpt><trkpt lat="43.1607933" lon="11.2099546"><ele>282.0</ele><time>2026-04-12T14:16:22.063Z</time></trkpt><trkpt lat="43.160869" lon="11.2099972"><ele>282.0</ele><time>2026-04-12T14:16:24.037Z</time></trkpt><trkpt lat="43.1609547" lon="11.2100317"><ele>282.3333333333333</ele><time>2026-04-12T14:16:26.032Z</time></trkpt><trkpt lat="43.1610561" lon="11.2100583"><ele>282.6666666666667</ele><time>2026-04-12T14:16:28.043Z</time></trkpt><trkpt lat="43.1611303" lon="11.2100688"><ele>283.0</ele><time>2026-04-12T14:16:30.047Z</time></trkpt><trkpt lat="43.1611992" lon="11.2100811"><ele>283.33333333333337</ele><time>2026-04-12T14:16:32.064Z</time></trkpt><trkpt lat="43.1612744" lon="11.2100971"><ele>283.6666666666667</ele><time>2026-04-12T14:16:34.048Z</time></trkpt><trkpt lat="43.1613482" lon="11.210123"><ele>284.0</ele><time>2026-04-12T14:16:36.09Z</time></trkpt><trkpt lat="43.1614209" lon="11.2101547"><ele>284.0</ele><time>2026-04-12T14:16:38.041Z</time></trkpt><trkpt lat="43.1614841" lon="11.2101667"><ele>284.0</ele><time>2026-04-12T14:16:39.988Z</time></trkpt><trkpt lat="43.1615605" lon="11.2101782"><ele>284.0</ele><time>2026-04-12T14:16:42.024Z</time></trkpt><trkpt lat="43.1616256" lon="11.2102138"><ele>284.0</ele><time>2026-04-12T14:16:44.045Z</time></trkpt><trkpt lat="43.1616812" lon="11.2102569"><ele>284.0</ele><time>2026-04-12T14:16:46.037Z</time></trkpt><trkpt lat="43.1617238" lon="11.2103374"><ele>284.0</ele><time>2026-04-12T14:16:48.03Z</time></trkpt><trkpt lat="43.1617523" lon="11.2104366"><ele>284.0</ele><time>2026-04-12T14:16:50.044Z</time></trkpt><trkpt lat="43.1617817" lon="11.2105323"><ele>283.85714285714283</ele><time>2026-04-12T14:16:52.048Z</time></trkpt><trkpt lat="43.1618069" lon="11.2106135"><ele>283.71428571428567</ele><time>2026-04-12T14:16:54.036Z</time></trkpt><trkpt lat="43.1618428" lon="11.210707"><ele>283.57142857142856</ele><time>2026-04-12T14:16:56.047Z</time></trkpt><trkpt lat="43.1618928" lon="11.210783"><ele>283.42857142857144</ele><time>2026-04-12T14:16:58.03Z</time></trkpt><trkpt lat="43.161948" lon="11.2108522"><ele>283.28571428571433</ele><time>2026-04-12T14:17:00.05Z</time></trkpt><trkpt lat="43.1620081" lon="11.2109294"><ele>283.14285714285717</ele><time>2026-04-12T14:17:03.038Z</time></trkpt><trkpt lat="43.162061" lon="11.2109932"><ele>283.0</ele><time>2026-04-12T14:17:06.058Z</time></trkpt><trkpt lat="43.1621143" lon="11.2110397"><ele>285.8571428571429</ele><time>2026-04-12T14:17:08.07Z</time></trkpt><trkpt lat="43.1621723" lon="11.2110896"><ele>288.7142857142857</ele><time>2026-04-12T14:17:10.03Z</time></trkpt><trkpt lat="43.1622347" lon="11.2111166"><ele>291.57142857142856</ele><time>2026-04-12T14:17:12.038Z</time></trkpt><trkpt lat="43.1622966" lon="11.2111437"><ele>294.42857142857144</ele><time>2026-04-12T14:17:14.04Z</time></trkpt><trkpt lat="43.1623847" lon="11.2111868"><ele>297.2857142857143</ele><time>2026-04-12T14:17:17.058Z</time></trkpt><trkpt lat="43.1624604" lon="11.2112072"><ele>300.14285714285717</ele><time>2026-04-12T14:17:20.041Z</time></trkpt><trkpt lat="43.1625393" lon="11.211202"><ele>303.0</ele><time>2026-04-12T14:17:23.041Z</time></trkpt><trkpt lat="43.1626021" lon="11.2112112"><ele>303.3333333333333</ele><time>2026-04-12T14:17:25.027Z</time></trkpt><trkpt lat="43.1626815" lon="11.2112031"><ele>303.6666666666667</ele><time>2026-04-12T14:17:28.041Z</time></trkpt><trkpt lat="43.1627548" lon="11.2111892"><ele>304.0</ele><time>2026-04-12T14:17:31.043Z</time></trkpt><trkpt lat="43.1628295" lon="11.211143"><ele>304.33333333333337</ele><time>2026-04-12T14:17:34.049Z</time></trkpt><trkpt lat="43.1629" lon="11.2111161"><ele>304.6666666666667</ele><time>2026-04-12T14:17:37.056Z</time></trkpt><trkpt lat="43.1629889" lon="11.2111012"><ele>305.0</ele><time>2026-04-12T14:17:41.045Z</time></trkpt><trkpt lat="43.1630653" lon="11.211108"><ele>305.0</ele><time>2026-04-12T14:17:44.044Z</time></trkpt><trkpt lat="43.1631443" lon="11.2111272"><ele>305.0</ele><time>2026-04-12T14:17:46.967Z</time></trkpt><trkpt lat="43.163215" lon="11.2111906"><ele>305.0</ele><time>2026-04-12T14:17:50.031Z</time></trkpt><trkpt lat="43.1632677" lon="11.2112754"><ele>305.0</ele><time>2026-04-12T14:17:53.063Z</time></trkpt><trkpt lat="43.1633233" lon="11.2113557"><ele>305.0</ele><time>2026-04-12T14:17:56.028Z</time></trkpt><trkpt lat="43.1633844" lon="11.2113929"><ele>305.0</ele><time>2026-04-12T14:17:59.037Z</time></trkpt><trkpt lat="43.1633915" lon="11.2114799"><ele>307.8571428571429</ele><time>2026-04-12T14:18:04.024Z</time></trkpt><trkpt lat="43.1633815" lon="11.2115774"><ele>310.71428571428567</ele><time>2026-04-12T14:18:08.03Z</time></trkpt><trkpt lat="43.1633759" lon="11.2116668"><ele>313.57142857142856</ele><time>2026-04-12T14:18:11.05Z</time></trkpt><trkpt lat="43.1633739" lon="11.2117566"><ele>316.42857142857144</ele><time>2026-04-12T14:18:14.049Z</time></trkpt><trkpt lat="43.1633784" lon="11.2118474"><ele>319.28571428571433</ele><time>2026-04-12T14:18:18.026Z</time></trkpt><trkpt lat="43.1634382" lon="11.2119162"><ele>322.1428571428571</ele><time>2026-04-12T14:18:22.05Z</time></trkpt><trkpt lat="43.1635029" lon="11.2119662"><ele>325.0</ele><time>2026-04-12T14:18:26.042Z</time></trkpt><trkpt lat="43.1635665" lon="11.2119797"><ele>325.0</ele><time>2026-04-12T14:18:30.05Z</time></trkpt><trkpt lat="43.1636338" lon="11.2119625"><ele>325.0</ele><time>2026-04-12T14:18:34.053Z</time></trkpt><trkpt lat="43.1637118" lon="11.2119385"><ele>325.0</ele><time>2026-04-12T14:18:39.06Z</time></trkpt><trkpt lat="43.1637836" lon="11.2119063"><ele>325.0</ele><time>2026-04-12T14:18:43.043Z</time></trkpt><trkpt lat="43.1638436" lon="11.2118737"><ele>325.0</ele><time>2026-04-12T14:18:47.05Z</time></trkpt><trkpt lat="43.1639162" lon="11.2118462"><ele>325.0</ele><time>2026-04-12T14:18:52.048Z</time></trkpt><trkpt lat="43.1639866" lon="11.2118075"><ele>325.0</ele><time>2026-04-12T14:18:57.047Z</time></trkpt><trkpt lat="43.1640521" lon="11.2117652"><ele>326.4285714285714</ele><time>2026-04-12T14:19:01.048Z</time></trkpt><trkpt lat="43.1641183" lon="11.2117291"><ele>327.8571428571429</ele><time>2026-04-12T14:19:06.036Z</time></trkpt><trkpt lat="43.1641622" lon="11.2116533"><ele>329.2857142857143</ele><time>2026-04-12T14:19:11.038Z</time></trkpt><trkpt lat="43.1642226" lon="11.2115987"><ele>330.71428571428567</ele><time>2026-04-12T14:19:16.047Z</time></trkpt><trkpt lat="43.1642806" lon="11.2115603"><ele>332.1428571428571</ele><time>2026-04-12T14:19:20.048Z</time></trkpt><trkpt lat="43.1643438" lon="11.2115244"><ele>333.57142857142856</ele><time>2026-04-12T14:19:25.072Z</time></trkpt><trkpt lat="43.1644057" lon="11.2114866"><ele>335.0</ele><time>2026-04-12T14:19:30.044Z</time></trkpt><trkpt lat="43.1644653" lon="11.2114546"><ele>334.99999999999994</ele><time>2026-04-12T14:19:34.037Z</time></trkpt><trkpt lat="43.1645352" lon="11.2114287"><ele>335.0</ele><time>2026-04-12T14:19:38.024Z</time></trkpt><trkpt lat="43.1645982" lon="11.2113945"><ele>335.0</ele><time>2026-04-12T14:19:41.033Z</time></trkpt><trkpt lat="43.1646644" lon="11.2113771"><ele>335.0</ele><time>2026-04-12T14:19:45.051Z</time></trkpt><trkpt lat="43.1647334" lon="11.2113519"><ele>335.0</ele><time>2026-04-12T14:19:50.027Z</time></trkpt><trkpt lat="43.1647873" lon="11.2113025"><ele>334.99999999999994</ele><time>2026-04-12T14:19:54.039Z</time></trkpt><trkpt lat="43.1648603" lon="11.2112625"><ele>335.0</ele><time>2026-04-12T14:19:59.039Z</time></trkpt><trkpt lat="43.1649231" lon="11.2112253"><ele>338.71428571428567</ele><time>2026-04-12T14:20:03.056Z</time></trkpt><trkpt lat="43.164996" lon="11.2111878"><ele>342.42857142857144</ele><time>2026-04-12T14:20:08.041Z</time></trkpt><trkpt lat="43.1650625" lon="11.2111529"><ele>346.1428571428571</ele><time>2026-04-12T14:20:12.046Z</time></trkpt><trkpt lat="43.1651298" lon="11.2111362"><ele>349.85714285714283</ele><time>2026-04-12T14:20:17.036Z</time></trkpt><trkpt lat="43.1651983" lon="11.2111081"><ele>353.57142857142856</ele><time>2026-04-12T14:20:23.044Z</time></trkpt><trkpt lat="43.165263" lon="11.2110792"><ele>357.2857142857143</ele><time>2026-04-12T14:20:28.037Z</time></trkpt><trkpt lat="43.1653397" lon="11.2110455"><ele>361.0</ele><time>2026-04-12T14:20:33.039Z</time></trkpt><trkpt lat="43.1654038" lon="11.2110183"><ele>361.0</ele><time>2026-04-12T14:20:37.054Z</time></trkpt><trkpt lat="43.1654687" lon="11.2109749"><ele>361.0</ele><time>2026-04-12T14:20:42.053Z</time></trkpt><trkpt lat="43.1655356" lon="11.2109434"><ele>361.0</ele><time>2026-04-12T14:20:47.034Z</time></trkpt><trkpt lat="43.1655969" lon="11.210921"><ele>361.0</ele><time>2026-04-12T14:20:51.044Z</time></trkpt><trkpt lat="43.1656641" lon="11.2108658"><ele>361.0</ele><time>2026-04-12T14:20:56.077Z</time></trkpt><trkpt lat="43.1657068" lon="11.2107928"><ele>361.0</ele><time>2026-04-12T14:21:01.055Z</time></trkpt><trkpt lat="43.1657849" lon="11.2107993"><ele>361.0</ele><time>2026-04-12T14:21:06.034Z</time></trkpt><trkpt lat="43.165853" lon="11.2107865"><ele>364.7142857142857</ele><time>2026-04-12T14:21:10.022Z</time></trkpt><trkpt lat="43.1659325" lon="11.2107984"><ele>368.4285714285714</ele><time>2026-04-12T14:21:15.058Z</time></trkpt><trkpt lat="43.1660066" lon="11.2108004"><ele>372.1428571428571</ele><time>2026-04-12T14:21:20.039Z</time></trkpt><trkpt lat="43.166072" lon="11.2108028"><ele>375.8571428571429</ele><time>2026-04-12T14:21:24.036Z</time></trkpt><trkpt lat="43.1661414" lon="11.2108133"><ele>379.57142857142856</ele><time>2026-04-12T14:21:29.058Z</time></trkpt><trkpt lat="43.1662093" lon="11.2108557"><ele>383.2857142857143</ele><time>2026-04-12T14:21:34.052Z</time></trkpt><trkpt lat="43.1662768" lon="11.2109104"><ele>387.0</ele><time>2026-04-12T14:21:40.041Z</time></trkpt><trkpt lat="43.1663502" lon="11.2109071"><ele>387.0</ele><time>2026-04-12T14:21:44.029Z</time></trkpt><trkpt lat="43.1664135" lon="11.2108796"><ele>387.0</ele><time>2026-04-12T14:21:48.035Z</time></trkpt><trkpt lat="43.1664746" lon="11.2108547"><ele>387.0</ele><time>2026-04-12T14:21:52.047Z</time></trkpt><trkpt lat="43.1665379" lon="11.2108339"><ele>387.0</ele><time>2026-04-12T14:21:56.028Z</time></trkpt><trkpt lat="43.1666019" lon="11.2108058"><ele>387.0</ele><time>2026-04-12T14:22:00.034Z</time></trkpt><trkpt lat="43.1666691" lon="11.2107546"><ele>387.0</ele><time>2026-04-12T14:22:04.03Z</time></trkpt><trkpt lat="43.1667351" lon="11.2107092"><ele>387.0</ele><time>2026-04-12T14:22:08.054Z</time></trkpt><trkpt lat="43.1667978" lon="11.2106761"><ele>390.0</ele><time>2026-04-12T14:22:12.068Z</time></trkpt><trkpt lat="43.1668757" lon="11.2106537"><ele>393.0</ele><time>2026-04-12T14:22:16.052Z</time></trkpt><trkpt lat="43.1669354" lon="11.2106087"><ele>396.0</ele><time>2026-04-12T14:22:19.05Z</time></trkpt><trkpt lat="43.1670035" lon="11.2105585"><ele>399.0</ele><time>2026-04-12T14:22:24.036Z</time></trkpt><trkpt lat="43.1670686" lon="11.2105315"><ele>402.0</ele><time>2026-04-12T14:22:28.032Z</time></trkpt><trkpt lat="43.1671383" lon="11.2105041"><ele>405.0</ele><time>2026-04-12T14:22:32.044Z</time></trkpt><trkpt lat="43.1672022" lon="11.2104709"><ele>408.0</ele><time>2026-04-12T14:22:36.076Z</time></trkpt><trkpt lat="43.1672708" lon="11.2104295"><ele>408.0</ele><time>2026-04-12T14:22:40.056Z</time></trkpt><trkpt lat="43.1673337" lon="11.2103865"><ele>408.0</ele><time>2026-04-12T14:22:43.049Z</time></trkpt><trkpt lat="43.16741" lon="11.2103564"><ele>408.0</ele><time>2026-04-12T14:22:47.055Z</time></trkpt><trkpt lat="43.1674674" lon="11.2103057"><ele>408.0</ele><time>2026-04-12T14:22:50.039Z</time></trkpt><trkpt lat="43.1675269" lon="11.2102523"><ele>408.0</ele><time>2026-04-12T14:22:54.053Z</time></trkpt><trkpt lat="43.1675996" lon="11.2102089"><ele>408.0</ele><time>2026-04-12T14:22:59.05Z</time></trkpt><trkpt lat="43.1676679" lon="11.2101663"><ele>408.0</ele><time>2026-04-12T14:23:03.036Z</time></trkpt><trkpt lat="43.167727" lon="11.2101338"><ele>410.8333333333333</ele><time>2026-04-12T14:23:07.053Z</time></trkpt><trkpt lat="43.1677891" lon="11.2101021"><ele>413.66666666666663</ele><time>2026-04-12T14:23:11.035Z</time></trkpt><trkpt lat="43.1678631" lon="11.210077"><ele>416.5</ele><time>2026-04-12T14:23:15.056Z</time></trkpt><trkpt lat="43.1679358" lon="11.210036"><ele>419.3333333333333</ele><time>2026-04-12T14:23:20.045Z</time></trkpt><trkpt lat="43.1680025" lon="11.2099976"><ele>422.16666666666663</ele><time>2026-04-12T14:23:24.068Z</time></trkpt><trkpt lat="43.1680738" lon="11.2099501"><ele>425.0</ele><time>2026-04-12T14:23:28.046Z</time></trkpt><trkpt lat="43.1681419" lon="11.2098874"><ele>427.42857142857144</ele><time>2026-04-12T14:23:32.039Z</time></trkpt><trkpt lat="43.1682123" lon="11.2098308"><ele>429.85714285714283</ele><time>2026-04-12T14:23:36.041Z</time></trkpt><trkpt lat="43.1682851" lon="11.2097915"><ele>432.28571428571433</ele><time>2026-04-12T14:23:40.049Z</time></trkpt><trkpt lat="43.1683431" lon="11.2097499"><ele>434.7142857142857</ele><time>2026-04-12T14:23:43.045Z</time></trkpt><trkpt lat="43.1684082" lon="11.2097157"><ele>437.14285714285717</ele><time>2026-04-12T14:23:46.045Z</time></trkpt><trkpt lat="43.1684838" lon="11.2096831"><ele>439.5714285714286</ele><time>2026-04-12T14:23:50.044Z</time></trkpt><trkpt lat="43.1685468" lon="11.2096545"><ele>442.0</ele><time>2026-04-12T14:23:53.052Z</time></trkpt><trkpt lat="43.1686125" lon="11.2096281"><ele>442.00000000000006</ele><time>2026-04-12T14:23:57.051Z</time></trkpt><trkpt lat="43.1686761" lon="11.2095831"><ele>442.0</ele><time>2026-04-12T14:24:01.039Z</time></trkpt><trkpt lat="43.1687374" lon="11.2095175"><ele>442.0</ele><time>2026-04-12T14:24:05.059Z</time></trkpt><trkpt lat="43.1687927" lon="11.2094688"><ele>442.0</ele><time>2026-04-12T14:24:08.056Z</time></trkpt><trkpt lat="43.1688723" lon="11.2094509"><ele>442.0</ele><time>2026-04-12T14:24:13.059Z</time></trkpt><trkpt lat="43.168939" lon="11.2094861"><ele>442.00000000000006</ele><time>2026-04-12T14:24:16.063Z</time></trkpt><trkpt lat="43.1690124" lon="11.2095281"><ele>442.0</ele><time>2026-04-12T14:24:20.043Z</time></trkpt><trkpt lat="43.1690931" lon="11.2095761"><ele>443.33333333333337</ele><time>2026-04-12T14:24:23.04Z</time></trkpt><trkpt lat="43.1691816" lon="11.2096226"><ele>444.6666666666667</ele><time>2026-04-12T14:24:26.042Z</time></trkpt><trkpt lat="43.1692444" lon="11.2096595"><ele>446.0</ele><time>2026-04-12T14:24:28.03Z</time></trkpt><trkpt lat="43.1693038" lon="11.209693"><ele>447.33333333333337</ele><time>2026-04-12T14:24:30.035Z</time></trkpt><trkpt lat="43.169383" lon="11.2097267"><ele>448.6666666666667</ele><time>2026-04-12T14:24:33.047Z</time></trkpt><trkpt lat="43.1694567" lon="11.2097508"><ele>450.0</ele><time>2026-04-12T14:24:36.038Z</time></trkpt><trkpt lat="43.1695357" lon="11.2097493"><ele>450.0</ele><time>2026-04-12T14:24:39.042Z</time></trkpt><trkpt lat="43.1696136" lon="11.2097702"><ele>450.0</ele><time>2026-04-12T14:24:42.05Z</time></trkpt><trkpt lat="43.16969" lon="11.2098042"><ele>450.0</ele><time>2026-04-12T14:24:45.036Z</time></trkpt><trkpt lat="43.1697696" lon="11.2098544"><ele>450.0</ele><time>2026-04-12T14:24:48.043Z</time></trkpt><trkpt lat="43.1698276" lon="11.209899"><ele>450.0</ele><time>2026-04-12T14:24:50.047Z</time></trkpt><trkpt lat="43.1699159" lon="11.2099553"><ele>450.0</ele><time>2026-04-12T14:24:53.052Z</time></trkpt><trkpt lat="43.1699783" lon="11.2099861"><ele>449.8333333333333</ele><time>2026-04-12T14:24:55.059Z</time></trkpt><trkpt lat="43.1700606" lon="11.2100348"><ele>449.66666666666663</ele><time>2026-04-12T14:24:58.046Z</time></trkpt><trkpt lat="43.1701432" lon="11.210077"><ele>449.5</ele><time>2026-04-12T14:25:01.041Z</time></trkpt><trkpt lat="43.1702055" lon="11.2100958"><ele>449.3333333333333</ele><time>2026-04-12T14:25:03.038Z</time></trkpt><trkpt lat="43.1702669" lon="11.210121"><ele>449.16666666666663</ele><time>2026-04-12T14:25:05.049Z</time></trkpt><trkpt lat="43.1703564" lon="11.2101528"><ele>449.0</ele><time>2026-04-12T14:25:08.035Z</time></trkpt><trkpt lat="43.1704159" lon="11.2101861"><ele>448.99999999999994</ele><time>2026-04-12T14:25:10.038Z</time></trkpt><trkpt lat="43.1704853" lon="11.2102247"><ele>449.0</ele><time>2026-04-12T14:25:13.042Z</time></trkpt><trkpt lat="43.1705593" lon="11.210267"><ele>449.0</ele><time>2026-04-12T14:25:16.038Z</time></trkpt><trkpt lat="43.1706286" lon="11.2103147"><ele>449.0</ele><time>2026-04-12T14:25:19.038Z</time></trkpt><trkpt lat="43.1707084" lon="11.2103582"><ele>448.99999999999994</ele><time>2026-04-12T14:25:22.043Z</time></trkpt><trkpt lat="43.170791" lon="11.210411"><ele>449.0</ele><time>2026-04-12T14:25:25.051Z</time></trkpt><trkpt lat="43.1708755" lon="11.2104637"><ele>449.3333333333333</ele><time>2026-04-12T14:25:28.034Z</time></trkpt><trkpt lat="43.1709488" lon="11.210517"><ele>449.66666666666663</ele><time>2026-04-12T14:25:31.047Z</time></trkpt><trkpt lat="43.1710281" lon="11.2105853"><ele>450.0</ele><time>2026-04-12T14:25:34.041Z</time></trkpt><trkpt lat="43.1710864" lon="11.2106186"><ele>450.33333333333337</ele><time>2026-04-12T14:25:36.051Z</time></trkpt><trkpt lat="43.1711749" lon="11.2106579"><ele>450.6666666666667</ele><time>2026-04-12T14:25:39.038Z</time></trkpt><trkpt lat="43.1712614" lon="11.2107075"><ele>451.0</ele><time>2026-04-12T14:25:42.041Z</time></trkpt><trkpt lat="43.1713416" lon="11.2107468"><ele>450.0</ele><time>2026-04-12T14:25:45.052Z</time></trkpt><trkpt lat="43.1714137" lon="11.2108003"><ele>449.0</ele><time>2026-04-12T14:25:48.046Z</time></trkpt><trkpt lat="43.1714989" lon="11.2108448"><ele>448.0</ele><time>2026-04-12T14:25:51.049Z</time></trkpt><trkpt lat="43.1715618" lon="11.2108795"><ele>447.0</ele><time>2026-04-12T14:25:53.074Z</time></trkpt><trkpt lat="43.1716453" lon="11.2109265"><ele>446.0</ele><time>2026-04-12T14:25:56.053Z</time></trkpt><trkpt lat="43.171773" lon="11.2110205"><ele>445.99999999999994</ele><time>2026-04-12T14:26:01.041Z</time></trkpt><trkpt lat="43.1718548" lon="11.2110897"><ele>446.0</ele><time>2026-04-12T14:26:04.052Z</time></trkpt><trkpt lat="43.1719298" lon="11.2111531"><ele>446.0</ele><time>2026-04-12T14:26:07.023Z</time></trkpt><trkpt lat="43.172004" lon="11.2111877"><ele>446.0</ele><time>2026-04-12T14:26:10.027Z</time></trkpt><trkpt lat="43.172087" lon="11.2112373"><ele>445.99999999999994</ele><time>2026-04-12T14:26:13.03Z</time></trkpt><trkpt lat="43.1721445" lon="11.2112728"><ele>446.0</ele><time>2026-04-12T14:26:15.033Z</time></trkpt><trkpt lat="43.172226" lon="11.2113313"><ele>445.99999999999994</ele><time>2026-04-12T14:26:18.04Z</time></trkpt><trkpt lat="43.1723119" lon="11.2113685"><ele>446.0</ele><time>2026-04-12T14:26:21.055Z</time></trkpt><trkpt lat="43.1723814" lon="11.2114039"><ele>446.0</ele><time>2026-04-12T14:26:24.04Z</time></trkpt><trkpt lat="43.1724569" lon="11.2114525"><ele>446.0</ele><time>2026-04-12T14:26:27.032Z</time></trkpt><trkpt lat="43.1725427" lon="11.2114979"><ele>445.99999999999994</ele><time>2026-04-12T14:26:30.037Z</time></trkpt><trkpt lat="43.1726263" lon="11.2115484"><ele>446.0</ele><time>2026-04-12T14:26:33.057Z</time></trkpt><trkpt lat="43.17271" lon="11.2115692"><ele>446.16666666666663</ele><time>2026-04-12T14:26:36.041Z</time></trkpt><trkpt lat="43.1728016" lon="11.2115699"><ele>446.3333333333333</ele><time>2026-04-12T14:26:39.056Z</time></trkpt><trkpt lat="43.1728855" lon="11.2115769"><ele>446.5</ele><time>2026-04-12T14:26:42.034Z</time></trkpt><trkpt lat="43.1729497" lon="11.2115889"><ele>446.66666666666663</ele><time>2026-04-12T14:26:44.036Z</time></trkpt><trkpt lat="43.1730319" lon="11.2116204"><ele>446.8333333333333</ele><time>2026-04-12T14:26:47.063Z</time></trkpt><trkpt lat="43.1731069" lon="11.2116617"><ele>447.0</ele><time>2026-04-12T14:26:50.023Z</time></trkpt><trkpt lat="43.1731799" lon="11.2116986"><ele>446.5</ele><time>2026-04-12T14:26:53.056Z</time></trkpt><trkpt lat="43.1732425" lon="11.2117392"><ele>446.0</ele><time>2026-04-12T14:26:56.052Z</time></trkpt><trkpt lat="43.1733245" lon="11.2117843"><ele>445.5</ele><time>2026-04-12T14:26:59.07Z</time></trkpt><trkpt lat="43.1733928" lon="11.2118431"><ele>445.0</ele><time>2026-04-12T14:27:02.049Z</time></trkpt><trkpt lat="43.1734635" lon="11.2119042"><ele>444.5</ele><time>2026-04-12T14:27:05.056Z</time></trkpt><trkpt lat="43.1735375" lon="11.211954"><ele>444.0</ele><time>2026-04-12T14:27:08.064Z</time></trkpt><trkpt lat="43.1736051" lon="11.2120169"><ele>444.0</ele><time>2026-04-12T14:27:11.048Z</time></trkpt><trkpt lat="43.1736809" lon="11.2120618"><ele>444.0</ele><time>2026-04-12T14:27:14.026Z</time></trkpt><trkpt lat="43.1737498" lon="11.2120882"><ele>444.0</ele><time>2026-04-12T14:27:17.044Z</time></trkpt><trkpt lat="43.1738216" lon="11.2121079"><ele>444.0</ele><time>2026-04-12T14:27:20.042Z</time></trkpt><trkpt lat="43.1738863" lon="11.2121375"><ele>444.0</ele><time>2026-04-12T14:27:23.041Z</time></trkpt><trkpt lat="43.17395" lon="11.2121636"><ele>444.0</ele><time>2026-04-12T14:27:26.039Z</time></trkpt><trkpt lat="43.1740174" lon="11.2122144"><ele>444.0</ele><time>2026-04-12T14:27:29.032Z</time></trkpt><trkpt lat="43.1740791" lon="11.2122673"><ele>443.5</ele><time>2026-04-12T14:27:32.05Z</time></trkpt><trkpt lat="43.1741414" lon="11.2123109"><ele>443.0</ele><time>2026-04-12T14:27:35.031Z</time></trkpt><trkpt lat="43.1742081" lon="11.2123784"><ele>442.5</ele><time>2026-04-12T14:27:38.606Z</time></trkpt><trkpt lat="43.174273" lon="11.2124478"><ele>442.0</ele><time>2026-04-12T14:27:42.029Z</time></trkpt><trkpt lat="43.1743435" lon="11.2125051"><ele>441.5</ele><time>2026-04-12T14:27:45.023Z</time></trkpt><trkpt lat="43.174421" lon="11.2125458"><ele>441.0</ele><time>2026-04-12T14:27:48.03Z</time></trkpt><trkpt lat="43.1745022" lon="11.2125876"><ele>442.1666666666667</ele><time>2026-04-12T14:27:51.118Z</time></trkpt><trkpt lat="43.1745794" lon="11.2126377"><ele>443.33333333333337</ele><time>2026-04-12T14:27:54.025Z</time></trkpt><trkpt lat="43.1746568" lon="11.2126888"><ele>444.5</ele><time>2026-04-12T14:27:57.016Z</time></trkpt><trkpt lat="43.1747396" lon="11.2127374"><ele>445.6666666666667</ele><time>2026-04-12T14:28:00.028Z</time></trkpt><trkpt lat="43.1748243" lon="11.2127854"><ele>446.83333333333337</ele><time>2026-04-12T14:28:03.028Z</time></trkpt><trkpt lat="43.1748846" lon="11.2128217"><ele>448.0</ele><time>2026-04-12T14:28:05.049Z</time></trkpt><trkpt lat="43.1749507" lon="11.2128587"><ele>448.0</ele><time>2026-04-12T14:28:07.045Z</time></trkpt><trkpt lat="43.1750147" lon="11.2128952"><ele>448.0</ele><time>2026-04-12T14:28:09.046Z</time></trkpt><trkpt lat="43.1750843" lon="11.2129288"><ele>448.0</ele><time>2026-04-12T14:28:11.029Z</time></trkpt><trkpt lat="43.1751454" lon="11.2129604"><ele>448.0</ele><time>2026-04-12T14:28:13.032Z</time></trkpt><trkpt lat="43.1752145" lon="11.2129908"><ele>448.0</ele><time>2026-04-12T14:28:15.058Z</time></trkpt><trkpt lat="43.1752774" lon="11.2130229"><ele>448.0</ele><time>2026-04-12T14:28:17.047Z</time></trkpt><trkpt lat="43.1753384" lon="11.2130544"><ele>448.0</ele><time>2026-04-12T14:28:19.039Z</time></trkpt><trkpt lat="43.1754273" lon="11.213102"><ele>448.00000000000006</ele><time>2026-04-12T14:28:22.048Z</time></trkpt><trkpt lat="43.175499" lon="11.2131283"><ele>448.0</ele><time>2026-04-12T14:28:24.032Z</time></trkpt><trkpt lat="43.1755646" lon="11.2131407"><ele>448.0</ele><time>2026-04-12T14:28:26.031Z</time></trkpt><trkpt lat="43.175645" lon="11.2131701"><ele>448.0</ele><time>2026-04-12T14:28:29.035Z</time></trkpt><trkpt lat="43.1757085" lon="11.2132039"><ele>448.00000000000006</ele><time>2026-04-12T14:28:32.027Z</time></trkpt><trkpt lat="43.1757861" lon="11.2132463"><ele>448.0</ele><time>2026-04-12T14:28:35.041Z</time></trkpt><trkpt lat="43.1758665" lon="11.213287"><ele>449.33333333333337</ele><time>2026-04-12T14:28:38.032Z</time></trkpt><trkpt lat="43.1759288" lon="11.2133189"><ele>450.6666666666667</ele><time>2026-04-12T14:28:40.024Z</time></trkpt><trkpt lat="43.175996" lon="11.213355"><ele>452.0</ele><time>2026-04-12T14:28:42.074Z</time></trkpt><trkpt lat="43.1760759" lon="11.2134101"><ele>453.33333333333337</ele><time>2026-04-12T14:28:45.036Z</time></trkpt><trkpt lat="43.1761362" lon="11.2134435"><ele>454.6666666666667</ele><time>2026-04-12T14:28:47.047Z</time></trkpt><trkpt lat="43.1762185" lon="11.2134938"><ele>456.0</ele><time>2026-04-12T14:28:50.016Z</time></trkpt><trkpt lat="43.1762975" lon="11.2135264"><ele>456.0</ele><time>2026-04-12T14:28:53.036Z</time></trkpt><trkpt lat="43.176371" lon="11.2135307"><ele>455.99999999999994</ele><time>2026-04-12T14:28:56.034Z</time></trkpt><trkpt lat="43.1764357" lon="11.2135006"><ele>456.0</ele><time>2026-04-12T14:28:59.041Z</time></trkpt><trkpt lat="43.1765001" lon="11.2134812"><ele>456.0</ele><time>2026-04-12T14:29:02.031Z</time></trkpt><trkpt lat="43.176571" lon="11.2134268"><ele>455.99999999999994</ele><time>2026-04-12T14:29:05.032Z</time></trkpt><trkpt lat="43.1766406" lon="11.2134013"><ele>456.0</ele><time>2026-04-12T14:29:08.036Z</time></trkpt><trkpt lat="43.1767002" lon="11.2133631"><ele>456.0</ele><time>2026-04-12T14:29:11.031Z</time></trkpt><trkpt lat="43.1767691" lon="11.213321"><ele>455.5</ele><time>2026-04-12T14:29:14.04Z</time></trkpt><trkpt lat="43.176845" lon="11.2132734"><ele>455.0</ele><time>2026-04-12T14:29:17.03Z</time></trkpt><trkpt lat="43.1769063" lon="11.2132445"><ele>454.5</ele><time>2026-04-12T14:29:19.023Z</time></trkpt><trkpt lat="43.1769843" lon="11.2132088"><ele>454.0</ele><time>2026-04-12T14:29:22.031Z</time></trkpt><trkpt lat="43.1770612" lon="11.2131732"><ele>453.5</ele><time>2026-04-12T14:29:25.038Z</time></trkpt><trkpt lat="43.1771295" lon="11.2131274"><ele>453.0</ele><time>2026-04-12T14:29:28.029Z</time></trkpt><trkpt lat="43.1771892" lon="11.2130833"><ele>451.5</ele><time>2026-04-12T14:29:30.984Z</time></trkpt><trkpt lat="43.1772596" lon="11.2130445"><ele>450.0</ele><time>2026-04-12T14:29:34.032Z</time></trkpt><trkpt lat="43.1773281" lon="11.2129902"><ele>448.5</ele><time>2026-04-12T14:29:37.029Z</time></trkpt><trkpt lat="43.1773923" lon="11.2129387"><ele>447.0</ele><time>2026-04-12T14:29:40.038Z</time></trkpt><trkpt lat="43.1774668" lon="11.2128786"><ele>445.5</ele><time>2026-04-12T14:29:43.029Z</time></trkpt><trkpt lat="43.1775367" lon="11.2128025"><ele>444.0</ele><time>2026-04-12T14:29:46.044Z</time></trkpt><trkpt lat="43.1775948" lon="11.2127579"><ele>444.0</ele><time>2026-04-12T14:29:49.027Z</time></trkpt><trkpt lat="43.1776621" lon="11.2127087"><ele>444.0</ele><time>2026-04-12T14:29:52.036Z</time></trkpt><trkpt lat="43.1777425" lon="11.212671"><ele>444.0</ele><time>2026-04-12T14:29:55.026Z</time></trkpt><trkpt lat="43.1778274" lon="11.2126259"><ele>444.0</ele><time>2026-04-12T14:29:58.033Z</time></trkpt><trkpt lat="43.1779073" lon="11.2125957"><ele>444.0</ele><time>2026-04-12T14:30:01.037Z</time></trkpt><trkpt lat="43.1779759" lon="11.2125926"><ele>444.0</ele><time>2026-04-12T14:30:04.034Z</time></trkpt><trkpt lat="43.1780492" lon="11.2125955"><ele>444.0</ele><time>2026-04-12T14:30:07.024Z</time></trkpt><trkpt lat="43.1781313" lon="11.2125975"><ele>444.0</ele><time>2026-04-12T14:30:10.025Z</time></trkpt><trkpt lat="43.1781995" lon="11.2125659"><ele>444.0</ele><time>2026-04-12T14:30:13.051Z</time></trkpt><trkpt lat="43.1782726" lon="11.2125199"><ele>444.0</ele><time>2026-04-12T14:30:16.026Z</time></trkpt><trkpt lat="43.1783532" lon="11.2124715"><ele>444.0</ele><time>2026-04-12T14:30:19.043Z</time></trkpt><trkpt lat="43.178407" lon="11.212426"><ele>444.0</ele><time>2026-04-12T14:30:21.023Z</time></trkpt><trkpt lat="43.1784782" lon="11.2123549"><ele>442.6666666666667</ele><time>2026-04-12T14:30:24.037Z</time></trkpt><trkpt lat="43.1785556" lon="11.2122759"><ele>441.33333333333337</ele><time>2026-04-12T14:30:27.037Z</time></trkpt><trkpt lat="43.1786104" lon="11.2122308"><ele>440.0</ele><time>2026-04-12T14:30:29.035Z</time></trkpt><trkpt lat="43.178689" lon="11.2121761"><ele>438.6666666666667</ele><time>2026-04-12T14:30:32.027Z</time></trkpt><trkpt lat="43.1787515" lon="11.2121413"><ele>437.33333333333337</ele><time>2026-04-12T14:30:35.032Z</time></trkpt><trkpt lat="43.1788299" lon="11.2120773"><ele>436.0</ele><time>2026-04-12T14:30:38.053Z</time></trkpt><trkpt lat="43.1788839" lon="11.2120319"><ele>436.00000000000006</ele><time>2026-04-12T14:30:40.03Z</time></trkpt><trkpt lat="43.1789637" lon="11.2119622"><ele>436.0</ele><time>2026-04-12T14:30:43.031Z</time></trkpt><trkpt lat="43.1790145" lon="11.211899"><ele>436.0</ele><time>2026-04-12T14:30:45.029Z</time></trkpt><trkpt lat="43.1790753" lon="11.2118409"><ele>436.0</ele><time>2026-04-12T14:30:47.019Z</time></trkpt><trkpt lat="43.1791379" lon="11.2117803"><ele>436.00000000000006</ele><time>2026-04-12T14:30:49.036Z</time></trkpt><trkpt lat="43.1792001" lon="11.211717"><ele>436.0</ele><time>2026-04-12T14:30:51.037Z</time></trkpt><trkpt lat="43.1792848" lon="11.2116586"><ele>436.6666666666667</ele><time>2026-04-12T14:30:54.035Z</time></trkpt><trkpt lat="43.179345" lon="11.2116223"><ele>437.33333333333337</ele><time>2026-04-12T14:30:56.026Z</time></trkpt><trkpt lat="43.1794201" lon="11.2115593"><ele>438.0</ele><time>2026-04-12T14:30:59.029Z</time></trkpt><trkpt lat="43.1794872" lon="11.2115069"><ele>438.66666666666663</ele><time>2026-04-12T14:31:02.037Z</time></trkpt><trkpt lat="43.1795814" lon="11.2114192"><ele>439.3333333333333</ele><time>2026-04-12T14:31:06.039Z</time></trkpt><trkpt lat="43.1796383" lon="11.2113194"><ele>440.0</ele><time>2026-04-12T14:31:09.029Z</time></trkpt><trkpt lat="43.1796764" lon="11.211227"><ele>439.99999999999994</ele><time>2026-04-12T14:31:12.028Z</time></trkpt><trkpt lat="43.1797367" lon="11.2111379"><ele>440.0</ele><time>2026-04-12T14:31:15.034Z</time></trkpt><trkpt lat="43.1798088" lon="11.2110593"><ele>440.0</ele><time>2026-04-12T14:31:18.03Z</time></trkpt><trkpt lat="43.1798695" lon="11.210962"><ele>440.0</ele><time>2026-04-12T14:31:21.023Z</time></trkpt><trkpt lat="43.1799347" lon="11.2108736"><ele>439.99999999999994</ele><time>2026-04-12T14:31:24.037Z</time></trkpt><trkpt lat="43.1799943" lon="11.2108182"><ele>440.0</ele><time>2026-04-12T14:31:27.046Z</time></trkpt><trkpt lat="43.1800636" lon="11.2107544"><ele>440.99999999999994</ele><time>2026-04-12T14:31:30.036Z</time></trkpt><trkpt lat="43.1801384" lon="11.2107113"><ele>442.0</ele><time>2026-04-12T14:31:33.031Z</time></trkpt><trkpt lat="43.180227" lon="11.2106668"><ele>443.0</ele><time>2026-04-12T14:31:36.035Z</time></trkpt><trkpt lat="43.1802871" lon="11.2106274"><ele>444.0</ele><time>2026-04-12T14:31:38.035Z</time></trkpt><trkpt lat="43.1803734" lon="11.2105843"><ele>444.99999999999994</ele><time>2026-04-12T14:31:41.036Z</time></trkpt><trkpt lat="43.1804422" lon="11.2105567"><ele>446.0</ele><time>2026-04-12T14:31:43.044Z</time></trkpt><trkpt lat="43.1805368" lon="11.2105183"><ele>446.49999999999994</ele><time>2026-04-12T14:31:46.022Z</time></trkpt><trkpt lat="43.1806122" lon="11.2104963"><ele>447.0</ele><time>2026-04-12T14:31:48.038Z</time></trkpt><trkpt lat="43.180677" lon="11.2104891"><ele>447.5</ele><time>2026-04-12T14:31:50.036Z</time></trkpt><trkpt lat="43.1807644" lon="11.2105027"><ele>448.0</ele><time>2026-04-12T14:31:52.03Z</time></trkpt><trkpt lat="43.1808713" lon="11.2105456"><ele>448.49999999999994</ele><time>2026-04-12T14:31:54.04Z</time></trkpt><trkpt lat="43.1809525" lon="11.2105711"><ele>449.0</ele><time>2026-04-12T14:31:56.032Z</time></trkpt><trkpt lat="43.1810237" lon="11.210578"><ele>448.99999999999994</ele><time>2026-04-12T14:31:58.033Z</time></trkpt><trkpt lat="43.1810946" lon="11.2105793"><ele>449.0</ele><time>2026-04-12T14:32:00.058Z</time></trkpt><trkpt lat="43.1811811" lon="11.2105829"><ele>449.0</ele><time>2026-04-12T14:32:02.05Z</time></trkpt><trkpt lat="43.1812663" lon="11.2105737"><ele>449.0</ele><time>2026-04-12T14:32:04.036Z</time></trkpt><trkpt lat="43.1813496" lon="11.2105564"><ele>448.99999999999994</ele><time>2026-04-12T14:32:06.03Z</time></trkpt><trkpt lat="43.1814458" lon="11.2105424"><ele>449.0</ele><time>2026-04-12T14:32:08.037Z</time></trkpt><trkpt lat="43.1815397" lon="11.2105288"><ele>447.99999999999994</ele><time>2026-04-12T14:32:10.035Z</time></trkpt><trkpt lat="43.1816192" lon="11.2104981"><ele>447.0</ele><time>2026-04-12T14:32:12.04Z</time></trkpt><trkpt lat="43.1817025" lon="11.210482"><ele>446.0</ele><time>2026-04-12T14:32:14.03Z</time></trkpt><trkpt lat="43.1817879" lon="11.2104547"><ele>445.0</ele><time>2026-04-12T14:32:16.043Z</time></trkpt><trkpt lat="43.1818696" lon="11.2104117"><ele>443.99999999999994</ele><time>2026-04-12T14:32:18.031Z</time></trkpt><trkpt lat="43.1819529" lon="11.2103595"><ele>443.0</ele><time>2026-04-12T14:32:20.038Z</time></trkpt><trkpt lat="43.1820249" lon="11.2103072"><ele>442.99999999999994</ele><time>2026-04-12T14:32:22.026Z</time></trkpt><trkpt lat="43.1820955" lon="11.2102361"><ele>443.0</ele><time>2026-04-12T14:32:24.024Z</time></trkpt><trkpt lat="43.182154" lon="11.2101444"><ele>443.0</ele><time>2026-04-12T14:32:26.042Z</time></trkpt><trkpt lat="43.1822113" lon="11.2100514"><ele>443.0</ele><time>2026-04-12T14:32:28.03Z</time></trkpt><trkpt lat="43.1822644" lon="11.2099593"><ele>442.99999999999994</ele><time>2026-04-12T14:32:30.037Z</time></trkpt><trkpt lat="43.1822993" lon="11.2098642"><ele>443.0</ele><time>2026-04-12T14:32:32.035Z</time></trkpt><trkpt lat="43.1823284" lon="11.2097751"><ele>441.99999999999994</ele><time>2026-04-12T14:32:34.011Z</time></trkpt><trkpt lat="43.1823595" lon="11.2096793"><ele>441.0</ele><time>2026-04-12T14:32:36.076Z</time></trkpt><trkpt lat="43.1823966" lon="11.2095804"><ele>440.0</ele><time>2026-04-12T14:32:38.055Z</time></trkpt><trkpt lat="43.1824365" lon="11.2094731"><ele>439.0</ele><time>2026-04-12T14:32:40.036Z</time></trkpt><trkpt lat="43.1824742" lon="11.2093911"><ele>437.99999999999994</ele><time>2026-04-12T14:32:42.018Z</time></trkpt><trkpt lat="43.182522" lon="11.2093177"><ele>437.0</ele><time>2026-04-12T14:32:44.035Z</time></trkpt><trkpt lat="43.1825636" lon="11.2092444"><ele>437.0</ele><time>2026-04-12T14:32:46.036Z</time></trkpt><trkpt lat="43.1826059" lon="11.2091708"><ele>437.0</ele><time>2026-04-12T14:32:48.016Z</time></trkpt><trkpt lat="43.1826251" lon="11.2090754"><ele>437.0</ele><time>2026-04-12T14:32:50.053Z</time></trkpt><trkpt lat="43.182632" lon="11.2089766"><ele>437.0</ele><time>2026-04-12T14:32:52.03Z</time></trkpt><trkpt lat="43.1826416" lon="11.2088861"><ele>437.0</ele><time>2026-04-12T14:32:54.029Z</time></trkpt><trkpt lat="43.1826572" lon="11.2087965"><ele>437.0</ele><time>2026-04-12T14:32:56.029Z</time></trkpt><trkpt lat="43.1826977" lon="11.2087132"><ele>437.0</ele><time>2026-04-12T14:32:58.031Z</time></trkpt><trkpt lat="43.18272" lon="11.2086297"><ele>437.1428571428571</ele><time>2026-04-12T14:33:00.024Z</time></trkpt><trkpt lat="43.1827405" lon="11.2085382"><ele>437.28571428571433</ele><time>2026-04-12T14:33:02.035Z</time></trkpt><trkpt lat="43.1827433" lon="11.2084357"><ele>437.42857142857144</ele><time>2026-04-12T14:33:04.014Z</time></trkpt><trkpt lat="43.182749" lon="11.2083402"><ele>437.57142857142856</ele><time>2026-04-12T14:33:06.029Z</time></trkpt><trkpt lat="43.1827591" lon="11.2082514"><ele>437.71428571428567</ele><time>2026-04-12T14:33:08.025Z</time></trkpt><trkpt lat="43.1827712" lon="11.2081526"><ele>437.8571428571429</ele><time>2026-04-12T14:33:10.016Z</time></trkpt><trkpt lat="43.1827886" lon="11.2080591"><ele>438.0</ele><time>2026-04-12T14:33:12.027Z</time></trkpt><trkpt lat="43.1828054" lon="11.2079699"><ele>438.8571428571429</ele><time>2026-04-12T14:33:14.021Z</time></trkpt><trkpt lat="43.1828293" lon="11.2078823"><ele>439.71428571428567</ele><time>2026-04-12T14:33:16.016Z</time></trkpt><trkpt lat="43.1828507" lon="11.2077876"><ele>440.57142857142856</ele><time>2026-04-12T14:33:18.016Z</time></trkpt><trkpt lat="43.1828784" lon="11.2076908"><ele>441.42857142857144</ele><time>2026-04-12T14:33:20.034Z</time></trkpt><trkpt lat="43.18291" lon="11.207592"><ele>442.28571428571433</ele><time>2026-04-12T14:33:22.028Z</time></trkpt><trkpt lat="43.1829308" lon="11.207507"><ele>443.1428571428571</ele><time>2026-04-12T14:33:24.04Z</time></trkpt><trkpt lat="43.1829521" lon="11.2074235"><ele>444.0</ele><time>2026-04-12T14:33:26.022Z</time></trkpt><trkpt lat="43.1829648" lon="11.207321"><ele>444.5</ele><time>2026-04-12T14:33:28.033Z</time></trkpt><trkpt lat="43.1829785" lon="11.207218"><ele>445.0</ele><time>2026-04-12T14:33:30.064Z</time></trkpt><trkpt lat="43.1829649" lon="11.2070888"><ele>445.5</ele><time>2026-04-12T14:33:33.029Z</time></trkpt><trkpt lat="43.1829539" lon="11.2069884"><ele>446.0</ele><time>2026-04-12T14:33:35.026Z</time></trkpt><trkpt lat="43.1829349" lon="11.2068805"><ele>446.5</ele><time>2026-04-12T14:33:38.028Z</time></trkpt><trkpt lat="43.1829268" lon="11.2067855"><ele>447.0</ele><time>2026-04-12T14:33:41.013Z</time></trkpt><trkpt lat="43.1829125" lon="11.20667"><ele>447.0</ele><time>2026-04-12T14:33:44.021Z</time></trkpt><trkpt lat="43.1829283" lon="11.2065776"><ele>447.0</ele><time>2026-04-12T14:33:47.031Z</time></trkpt><trkpt lat="43.183" lon="11.2065037"><ele>447.0</ele><time>2026-04-12T14:33:50.042Z</time></trkpt><trkpt lat="43.1830587" lon="11.20646"><ele>447.0</ele><time>2026-04-12T14:33:52.03Z</time></trkpt><trkpt lat="43.1831411" lon="11.2064102"><ele>447.0</ele><time>2026-04-12T14:33:54.022Z</time></trkpt><trkpt lat="43.1832221" lon="11.2063631"><ele>447.0</ele><time>2026-04-12T14:33:56.018Z</time></trkpt><trkpt lat="43.1833008" lon="11.2062916"><ele>446.8333333333333</ele><time>2026-04-12T14:33:58.014Z</time></trkpt><trkpt lat="43.1833606" lon="11.2062212"><ele>446.66666666666663</ele><time>2026-04-12T14:34:00.017Z</time></trkpt><trkpt lat="43.1834182" lon="11.2061473"><ele>446.5</ele><time>2026-04-12T14:34:02.022Z</time></trkpt><trkpt lat="43.1834824" lon="11.2060752"><ele>446.3333333333333</ele><time>2026-04-12T14:34:04.033Z</time></trkpt><trkpt lat="43.1835429" lon="11.2059675"><ele>446.16666666666663</ele><time>2026-04-12T14:34:06.034Z</time></trkpt><trkpt lat="43.1835928" lon="11.2058656"><ele>446.0</ele><time>2026-04-12T14:34:08.014Z</time></trkpt><trkpt lat="43.1836508" lon="11.205759"><ele>446.0</ele><time>2026-04-12T14:34:10.021Z</time></trkpt><trkpt lat="43.1837156" lon="11.2056681"><ele>446.0</ele><time>2026-04-12T14:34:12.021Z</time></trkpt><trkpt lat="43.1837794" lon="11.205584"><ele>446.0</ele><time>2026-04-12T14:34:14.018Z</time></trkpt><trkpt lat="43.1838482" lon="11.2055105"><ele>446.0</ele><time>2026-04-12T14:34:16.028Z</time></trkpt><trkpt lat="43.1839389" lon="11.205393"><ele>446.0</ele><time>2026-04-12T14:34:19.029Z</time></trkpt><trkpt lat="43.1840127" lon="11.2053131"><ele>446.3333333333333</ele><time>2026-04-12T14:34:22.03Z</time></trkpt><trkpt lat="43.1840813" lon="11.2052389"><ele>446.66666666666663</ele><time>2026-04-12T14:34:25.023Z</time></trkpt><trkpt lat="43.1841452" lon="11.2051439"><ele>447.0</ele><time>2026-04-12T14:34:28.032Z</time></trkpt><trkpt lat="43.1841926" lon="11.2050783"><ele>447.33333333333337</ele><time>2026-04-12T14:34:30.031Z</time></trkpt><trkpt lat="43.1842435" lon="11.2050214"><ele>447.6666666666667</ele><time>2026-04-12T14:34:32.017Z</time></trkpt><trkpt lat="43.1842896" lon="11.2049571"><ele>448.0</ele><time>2026-04-12T14:34:34.025Z</time></trkpt><trkpt lat="43.1843545" lon="11.2048787"><ele>448.0</ele><time>2026-04-12T14:34:36.014Z</time></trkpt><trkpt lat="43.1844206" lon="11.2047861"><ele>447.99999999999994</ele><time>2026-04-12T14:34:38.037Z</time></trkpt><trkpt lat="43.1844856" lon="11.2046741"><ele>447.99999999999994</ele><time>2026-04-12T14:34:40.018Z</time></trkpt><trkpt lat="43.1845392" lon="11.2045746"><ele>448.0</ele><time>2026-04-12T14:34:42.023Z</time></trkpt><trkpt lat="43.1846051" lon="11.2044858"><ele>448.0</ele><time>2026-04-12T14:34:44.035Z</time></trkpt><trkpt lat="43.1846776" lon="11.2044019"><ele>448.00000000000006</ele><time>2026-04-12T14:34:46.06Z</time></trkpt><trkpt lat="43.1847455" lon="11.2043263"><ele>448.0</ele><time>2026-04-12T14:34:48.026Z</time></trkpt><trkpt lat="43.1848063" lon="11.2042447"><ele>448.0</ele><time>2026-04-12T14:34:50.037Z</time></trkpt><trkpt lat="43.1848688" lon="11.2041523"><ele>448.0</ele><time>2026-04-12T14:34:52.027Z</time></trkpt><trkpt lat="43.1849319" lon="11.2040652"><ele>448.00000000000006</ele><time>2026-04-12T14:34:54.056Z</time></trkpt><trkpt lat="43.1849786" lon="11.2039969"><ele>448.0</ele><time>2026-04-12T14:34:56.026Z</time></trkpt><trkpt lat="43.1850291" lon="11.2039093"><ele>447.7142857142857</ele><time>2026-04-12T14:34:59.03Z</time></trkpt><trkpt lat="43.1850664" lon="11.2038181"><ele>447.42857142857144</ele><time>2026-04-12T14:35:02.037Z</time></trkpt><trkpt lat="43.1851109" lon="11.2037456"><ele>447.1428571428571</ele><time>2026-04-12T14:35:05.031Z</time></trkpt><trkpt lat="43.1851518" lon="11.203661"><ele>446.8571428571429</ele><time>2026-04-12T14:35:08.013Z</time></trkpt><trkpt lat="43.1852007" lon="11.2035823"><ele>446.57142857142856</ele><time>2026-04-12T14:35:10.029Z</time></trkpt><trkpt lat="43.1852324" lon="11.2034918"><ele>446.2857142857143</ele><time>2026-04-12T14:35:12.013Z</time></trkpt><trkpt lat="43.1852467" lon="11.2034018"><ele>446.0</ele><time>2026-04-12T14:35:14.044Z</time></trkpt><trkpt lat="43.1852624" lon="11.2032994"><ele>446.0</ele><time>2026-04-12T14:35:16.033Z</time></trkpt><trkpt lat="43.1852741" lon="11.2031962"><ele>446.0</ele><time>2026-04-12T14:35:18.029Z</time></trkpt><trkpt lat="43.1852774" lon="11.2031014"><ele>446.0</ele><time>2026-04-12T14:35:20.04Z</time></trkpt><trkpt lat="43.1852871" lon="11.2030128"><ele>446.0</ele><time>2026-04-12T14:35:22.045Z</time></trkpt><trkpt lat="43.1852955" lon="11.2029229"><ele>446.0</ele><time>2026-04-12T14:35:24.036Z</time></trkpt><trkpt lat="43.1853106" lon="11.2028246"><ele>446.0</ele><time>2026-04-12T14:35:26.047Z</time></trkpt><trkpt lat="43.1853173" lon="11.2027135"><ele>446.0</ele><time>2026-04-12T14:35:28.031Z</time></trkpt><trkpt lat="43.1853066" lon="11.2026158"><ele>445.85714285714283</ele><time>2026-04-12T14:35:30.041Z</time></trkpt><trkpt lat="43.1852929" lon="11.2025264"><ele>445.71428571428567</ele><time>2026-04-12T14:35:32.048Z</time></trkpt><trkpt lat="43.1852774" lon="11.2024237"><ele>445.57142857142856</ele><time>2026-04-12T14:35:34.029Z</time></trkpt><trkpt lat="43.1852516" lon="11.2023175"><ele>445.42857142857144</ele><time>2026-04-12T14:35:36.035Z</time></trkpt><trkpt lat="43.1852499" lon="11.2022233"><ele>445.2857142857143</ele><time>2026-04-12T14:35:38.041Z</time></trkpt><trkpt lat="43.1852545" lon="11.2021271"><ele>445.14285714285717</ele><time>2026-04-12T14:35:40.036Z</time></trkpt><trkpt lat="43.1852734" lon="11.2020301"><ele>445.0</ele><time>2026-04-12T14:35:42.026Z</time></trkpt><trkpt lat="43.1853009" lon="11.2019404"><ele>444.7142857142857</ele><time>2026-04-12T14:35:44.033Z</time></trkpt><trkpt lat="43.1853285" lon="11.2018391"><ele>444.4285714285714</ele><time>2026-04-12T14:35:46.024Z</time></trkpt><trkpt lat="43.185339" lon="11.201725"><ele>444.1428571428571</ele><time>2026-04-12T14:35:48.034Z</time></trkpt><trkpt lat="43.1853549" lon="11.201622"><ele>443.8571428571429</ele><time>2026-04-12T14:35:50.042Z</time></trkpt><trkpt lat="43.1853642" lon="11.2015286"><ele>443.57142857142856</ele><time>2026-04-12T14:35:52.033Z</time></trkpt><trkpt lat="43.1853817" lon="11.2014388"><ele>443.2857142857143</ele><time>2026-04-12T14:35:54.028Z</time></trkpt><trkpt lat="43.1853882" lon="11.2013384"><ele>443.0</ele><time>2026-04-12T14:35:56.034Z</time></trkpt><trkpt lat="43.1854057" lon="11.2012268"><ele>442.49999999999994</ele><time>2026-04-12T14:35:58.037Z</time></trkpt><trkpt lat="43.1854247" lon="11.2011071"><ele>442.0</ele><time>2026-04-12T14:36:00.025Z</time></trkpt><trkpt lat="43.1854421" lon="11.2010047"><ele>441.5</ele><time>2026-04-12T14:36:02.024Z</time></trkpt><trkpt lat="43.1854705" lon="11.2009043"><ele>441.0</ele><time>2026-04-12T14:36:04.028Z</time></trkpt><trkpt lat="43.1855126" lon="11.2008158"><ele>440.49999999999994</ele><time>2026-04-12T14:36:06.036Z</time></trkpt><trkpt lat="43.1855665" lon="11.2007266"><ele>440.0</ele><time>2026-04-12T14:36:08.008Z</time></trkpt><trkpt lat="43.1856107" lon="11.2006351"><ele>439.99999999999994</ele><time>2026-04-12T14:36:10.035Z</time></trkpt><trkpt lat="43.1856458" lon="11.2005227"><ele>440.0</ele><time>2026-04-12T14:36:13.034Z</time></trkpt><trkpt lat="43.1856856" lon="11.2004129"><ele>440.0</ele><time>2026-04-12T14:36:16.044Z</time></trkpt><trkpt lat="43.1857073" lon="11.2003256"><ele>440.0</ele><time>2026-04-12T14:36:18.029Z</time></trkpt><trkpt lat="43.1857016" lon="11.2002104"><ele>439.99999999999994</ele><time>2026-04-12T14:36:20.034Z</time></trkpt><trkpt lat="43.1856897" lon="11.2000944"><ele>440.0</ele><time>2026-04-12T14:36:22.033Z</time></trkpt><trkpt lat="43.1856676" lon="11.2000133"><ele>439.3333333333333</ele><time>2026-04-12T14:36:23.021Z</time></trkpt><trkpt lat="43.1856435" lon="11.1999185"><ele>438.66666666666663</ele><time>2026-04-12T14:36:25.045Z</time></trkpt><trkpt lat="43.1856286" lon="11.199796"><ele>438.0</ele><time>2026-04-12T14:36:27.045Z</time></trkpt><trkpt lat="43.1856202" lon="11.1996861"><ele>437.33333333333337</ele><time>2026-04-12T14:36:28.988Z</time></trkpt><trkpt lat="43.185627" lon="11.1995674"><ele>436.6666666666667</ele><time>2026-04-12T14:36:31.067Z</time></trkpt><trkpt lat="43.185643" lon="11.1994587"><ele>436.0</ele><time>2026-04-12T14:36:33.036Z</time></trkpt><trkpt lat="43.1856567" lon="11.1993499"><ele>436.14285714285717</ele><time>2026-04-12T14:36:35.007Z</time></trkpt><trkpt lat="43.1856901" lon="11.1992536"><ele>436.28571428571433</ele><time>2026-04-12T14:36:37.097Z</time></trkpt><trkpt lat="43.1857145" lon="11.1991656"><ele>436.42857142857144</ele><time>2026-04-12T14:36:38.989Z</time></trkpt><trkpt lat="43.1857339" lon="11.1990747"><ele>436.57142857142856</ele><time>2026-04-12T14:36:40.989Z</time></trkpt><trkpt lat="43.1857491" lon="11.1989776"><ele>436.7142857142857</ele><time>2026-04-12T14:36:43.036Z</time></trkpt><trkpt lat="43.1857703" lon="11.198881"><ele>436.85714285714283</ele><time>2026-04-12T14:36:45.037Z</time></trkpt><trkpt lat="43.1857914" lon="11.1987885"><ele>437.0</ele><time>2026-04-12T14:36:47.049Z</time></trkpt><trkpt lat="43.1858179" lon="11.1987029"><ele>436.3333333333333</ele><time>2026-04-12T14:36:49.023Z</time></trkpt><trkpt lat="43.1858647" lon="11.1986222"><ele>435.66666666666663</ele><time>2026-04-12T14:36:51.027Z</time></trkpt><trkpt lat="43.1859216" lon="11.1985441"><ele>435.0</ele><time>2026-04-12T14:36:53.035Z</time></trkpt><trkpt lat="43.1859708" lon="11.1984564"><ele>434.33333333333337</ele><time>2026-04-12T14:36:55.02Z</time></trkpt><trkpt lat="43.1860106" lon="11.1983414"><ele>433.6666666666667</ele><time>2026-04-12T14:36:57.019Z</time></trkpt><trkpt lat="43.1860373" lon="11.1982175"><ele>433.0</ele><time>2026-04-12T14:36:59.023Z</time></trkpt><trkpt lat="43.1860529" lon="11.1981314"><ele>433.00000000000006</ele><time>2026-04-12T14:37:01.014Z</time></trkpt><trkpt lat="43.1860776" lon="11.1980246"><ele>433.0</ele><time>2026-04-12T14:37:04.037Z</time></trkpt><trkpt lat="43.1860331" lon="11.1979416"><ele>433.0</ele><time>2026-04-12T14:37:07.032Z</time></trkpt><trkpt lat="43.1859456" lon="11.1979645"><ele>433.0</ele><time>2026-04-12T14:37:10.039Z</time></trkpt><trkpt lat="43.1858814" lon="11.1979843"><ele>433.00000000000006</ele><time>2026-04-12T14:37:13.032Z</time></trkpt><trkpt lat="43.1858171" lon="11.1980195"><ele>433.0</ele><time>2026-04-12T14:37:16.019Z</time></trkpt><trkpt lat="43.185748" lon="11.1980684"><ele>430.79999999999995</ele><time>2026-04-12T14:37:19.039Z</time></trkpt><trkpt lat="43.1856655" lon="11.1981339"><ele>428.59999999999997</ele><time>2026-04-12T14:37:22.031Z</time></trkpt><trkpt lat="43.1855833" lon="11.1981806"><ele>426.4</ele><time>2026-04-12T14:37:25.018Z</time></trkpt><trkpt lat="43.1854893" lon="11.1982241"><ele>424.20000000000005</ele><time>2026-04-12T14:37:28.041Z</time></trkpt><trkpt lat="43.18541" lon="11.1982664"><ele>422.0</ele><time>2026-04-12T14:37:31.031Z</time></trkpt><trkpt lat="43.1853289" lon="11.1983138"><ele>421.99999999999994</ele><time>2026-04-12T14:37:34.025Z</time></trkpt><trkpt lat="43.1852481" lon="11.1983598"><ele>422.0</ele><time>2026-04-12T14:37:37.03Z</time></trkpt><trkpt lat="43.1851764" lon="11.1984047"><ele>422.0</ele><time>2026-04-12T14:37:40.02Z</time></trkpt><trkpt lat="43.1851063" lon="11.198437"><ele>422.0</ele><time>2026-04-12T14:37:43.026Z</time></trkpt><trkpt lat="43.1850471" lon="11.1984848"><ele>421.99999999999994</ele><time>2026-04-12T14:37:46.017Z</time></trkpt><trkpt lat="43.1849828" lon="11.1985501"><ele>422.0</ele><time>2026-04-12T14:37:49.025Z</time></trkpt><trkpt lat="43.1849444" lon="11.1986236"><ele>421.99999999999994</ele><time>2026-04-12T14:37:51.032Z</time></trkpt><trkpt lat="43.1848959" lon="11.198708"><ele>422.0</ele><time>2026-04-12T14:37:54.036Z</time></trkpt><trkpt lat="43.1848516" lon="11.1988007"><ele>422.0</ele><time>2026-04-12T14:37:57.02Z</time></trkpt><trkpt lat="43.1848088" lon="11.1989095"><ele>422.0</ele><time>2026-04-12T14:38:00.025Z</time></trkpt><trkpt lat="43.1847921" lon="11.1990053"><ele>421.99999999999994</ele><time>2026-04-12T14:38:02.028Z</time></trkpt><trkpt lat="43.1847679" lon="11.1990942"><ele>422.0</ele><time>2026-04-12T14:38:04.03Z</time></trkpt><trkpt lat="43.1847284" lon="11.1991827"><ele>421.16666666666663</ele><time>2026-04-12T14:38:06.034Z</time></trkpt><trkpt lat="43.1846643" lon="11.1992595"><ele>420.3333333333333</ele><time>2026-04-12T14:38:09.028Z</time></trkpt><trkpt lat="43.184581" lon="11.199315"><ele>419.5</ele><time>2026-04-12T14:38:12.02Z</time></trkpt><trkpt lat="43.1845012" lon="11.1993662"><ele>418.66666666666663</ele><time>2026-04-12T14:38:15.028Z</time></trkpt><trkpt lat="43.1844136" lon="11.1993846"><ele>417.8333333333333</ele><time>2026-04-12T14:38:18.023Z</time></trkpt><trkpt lat="43.1843214" lon="11.1993837"><ele>417.0</ele><time>2026-04-12T14:38:21.034Z</time></trkpt><trkpt lat="43.1842564" lon="11.1994066"><ele>417.0</ele><time>2026-04-12T14:38:23.029Z</time></trkpt><trkpt lat="43.1841932" lon="11.1994434"><ele>417.0</ele><time>2026-04-12T14:38:25.023Z</time></trkpt><trkpt lat="43.1841271" lon="11.1994765"><ele>417.0</ele><time>2026-04-12T14:38:27.027Z</time></trkpt><trkpt lat="43.1840318" lon="11.1994983"><ele>417.0</ele><time>2026-04-12T14:38:30.038Z</time></trkpt><trkpt lat="43.1839674" lon="11.1994927"><ele>417.0</ele><time>2026-04-12T14:38:33.02Z</time></trkpt><trkpt lat="43.1838925" lon="11.1994736"><ele>417.0</ele><time>2026-04-12T14:38:37.032Z</time></trkpt><trkpt lat="43.1838257" lon="11.1994739"><ele>417.0</ele><time>2026-04-12T14:38:40.035Z</time></trkpt><trkpt lat="43.1837447" lon="11.199492"><ele>414.8333333333333</ele><time>2026-04-12T14:38:43.016Z</time></trkpt><trkpt lat="43.1836591" lon="11.1995356"><ele>412.66666666666663</ele><time>2026-04-12T14:38:46.048Z</time></trkpt><trkpt lat="43.1836024" lon="11.1995772"><ele>410.5</ele><time>2026-04-12T14:38:48.037Z</time></trkpt><trkpt lat="43.1835272" lon="11.1996362"><ele>408.3333333333333</ele><time>2026-04-12T14:38:51.015Z</time></trkpt><trkpt lat="43.1834529" lon="11.199676"><ele>406.16666666666663</ele><time>2026-04-12T14:38:54.033Z</time></trkpt><trkpt lat="43.1833947" lon="11.1997227"><ele>404.0</ele><time>2026-04-12T14:38:57.022Z</time></trkpt><trkpt lat="43.1833369" lon="11.1998036"><ele>404.99999999999994</ele><time>2026-04-12T14:39:01.04Z</time></trkpt><trkpt lat="43.1832971" lon="11.199876"><ele>406.0</ele><time>2026-04-12T14:39:04.05Z</time></trkpt><trkpt lat="43.1832434" lon="11.1999524"><ele>407.0</ele><time>2026-04-12T14:39:07.032Z</time></trkpt><trkpt lat="43.1832038" lon="11.2000552"><ele>408.0</ele><time>2026-04-12T14:39:10.036Z</time></trkpt><trkpt lat="43.1831753" lon="11.2001618"><ele>408.99999999999994</ele><time>2026-04-12T14:39:13.018Z</time></trkpt><trkpt lat="43.1831579" lon="11.2002742"><ele>410.0</ele><time>2026-04-12T14:39:16.031Z</time></trkpt><trkpt lat="43.1831262" lon="11.2003555"><ele>407.8571428571429</ele><time>2026-04-12T14:39:18.029Z</time></trkpt><trkpt lat="43.183049" lon="11.2004107"><ele>405.71428571428567</ele><time>2026-04-12T14:39:21.018Z</time></trkpt><trkpt lat="43.1829677" lon="11.2004279"><ele>403.57142857142856</ele><time>2026-04-12T14:39:24.021Z</time></trkpt><trkpt lat="43.182902" lon="11.2004278"><ele>401.42857142857144</ele><time>2026-04-12T14:39:26.037Z</time></trkpt><trkpt lat="43.1828378" lon="11.2004335"><ele>399.28571428571433</ele><time>2026-04-12T14:39:28.027Z</time></trkpt><trkpt lat="43.1827557" lon="11.2004427"><ele>397.1428571428571</ele><time>2026-04-12T14:39:31.015Z</time></trkpt><trkpt lat="43.1826929" lon="11.2004614"><ele>395.0</ele><time>2026-04-12T14:39:33.016Z</time></trkpt><trkpt lat="43.18262" lon="11.2004667"><ele>395.0</ele><time>2026-04-12T14:39:35.03Z</time></trkpt><trkpt lat="43.1825482" lon="11.2004783"><ele>395.0</ele><time>2026-04-12T14:39:37.039Z</time></trkpt><trkpt lat="43.182477" lon="11.2004869"><ele>395.0</ele><time>2026-04-12T14:39:39.024Z</time></trkpt><trkpt lat="43.1823918" lon="11.2004649"><ele>395.0</ele><time>2026-04-12T14:39:42.018Z</time></trkpt><trkpt lat="43.1823161" lon="11.2004219"><ele>395.0</ele><time>2026-04-12T14:39:45.035Z</time></trkpt><trkpt lat="43.182262" lon="11.2003754"><ele>395.0</ele><time>2026-04-12T14:39:47.037Z</time></trkpt><trkpt lat="43.1822027" lon="11.2003208"><ele>395.0</ele><time>2026-04-12T14:39:49.02Z</time></trkpt><trkpt lat="43.1821501" lon="11.2002713"><ele>392.16666666666663</ele><time>2026-04-12T14:39:51.024Z</time></trkpt><trkpt lat="43.1820718" lon="11.2002045"><ele>389.3333333333333</ele><time>2026-04-12T14:39:54.02Z</time></trkpt><trkpt lat="43.182006" lon="11.2001431"><ele>386.5</ele><time>2026-04-12T14:39:57.022Z</time></trkpt><trkpt lat="43.1819454" lon="11.2001058"><ele>383.66666666666663</ele><time>2026-04-12T14:40:00.041Z</time></trkpt><trkpt lat="43.1818815" lon="11.2000636"><ele>380.8333333333333</ele><time>2026-04-12T14:40:03.04Z</time></trkpt><trkpt lat="43.181822" lon="11.2000016"><ele>378.0</ele><time>2026-04-12T14:40:06.044Z</time></trkpt><trkpt lat="43.1817638" lon="11.1999483"><ele>378.0</ele><time>2026-04-12T14:40:09.034Z</time></trkpt><trkpt lat="43.1816953" lon="11.1998807"><ele>378.0</ele><time>2026-04-12T14:40:13.008Z</time></trkpt><trkpt lat="43.1816425" lon="11.1998175"><ele>378.0</ele><time>2026-04-12T14:40:17.026Z</time></trkpt><trkpt lat="43.1815829" lon="11.1997445"><ele>378.0</ele><time>2026-04-12T14:40:20.032Z</time></trkpt><trkpt lat="43.1815441" lon="11.1996753"><ele>378.0</ele><time>2026-04-12T14:40:22.036Z</time></trkpt><trkpt lat="43.181492" lon="11.1995866"><ele>378.0</ele><time>2026-04-12T14:40:25.019Z</time></trkpt><trkpt lat="43.1814348" lon="11.1995012"><ele>376.3333333333333</ele><time>2026-04-12T14:40:28.023Z</time></trkpt><trkpt lat="43.1813712" lon="11.199421"><ele>374.6666666666667</ele><time>2026-04-12T14:40:31.02Z</time></trkpt><trkpt lat="43.1813071" lon="11.1993374"><ele>373.0</ele><time>2026-04-12T14:40:34.026Z</time></trkpt><trkpt lat="43.1812252" lon="11.1992935"><ele>371.33333333333337</ele><time>2026-04-12T14:40:37.014Z</time></trkpt><trkpt lat="43.1811936" lon="11.1992051"><ele>369.6666666666667</ele><time>2026-04-12T14:42:22.039Z</time></trkpt><trkpt lat="43.1811815" lon="11.1991198"><ele>368.0</ele><time>2026-04-12T14:42:27.042Z</time></trkpt><trkpt lat="43.1811385" lon="11.199046"><ele>369.42857142857144</ele><time>2026-04-12T14:42:33.014Z</time></trkpt><trkpt lat="43.1811001" lon="11.1989649"><ele>370.85714285714283</ele><time>2026-04-12T14:42:38.03Z</time></trkpt><trkpt lat="43.1810573" lon="11.1988965"><ele>372.2857142857143</ele><time>2026-04-12T14:42:44.025Z</time></trkpt><trkpt lat="43.1810037" lon="11.1988286"><ele>373.7142857142857</ele><time>2026-04-12T14:42:48.02Z</time></trkpt><trkpt lat="43.1809514" lon="11.1987758"><ele>375.1428571428571</ele><time>2026-04-12T14:42:52.022Z</time></trkpt><trkpt lat="43.180882" lon="11.1987444"><ele>376.57142857142856</ele><time>2026-04-12T14:42:56.025Z</time></trkpt><trkpt lat="43.1808146" lon="11.1987482"><ele>378.0</ele><time>2026-04-12T14:43:03.035Z</time></trkpt><trkpt lat="43.1807458" lon="11.1987431"><ele>376.6666666666667</ele><time>2026-04-12T14:43:07.029Z</time></trkpt><trkpt lat="43.1806808" lon="11.1987529"><ele>375.3333333333333</ele><time>2026-04-12T14:43:11.032Z</time></trkpt><trkpt lat="43.1806137" lon="11.1987548"><ele>374.0</ele><time>2026-04-12T14:43:15.033Z</time></trkpt><trkpt lat="43.1805435" lon="11.1987557"><ele>372.66666666666663</ele><time>2026-04-12T14:43:19.024Z</time></trkpt><trkpt lat="43.180437" lon="11.1987622"><ele>371.3333333333333</ele><time>2026-04-12T14:43:24.031Z</time></trkpt><trkpt lat="43.1803635" lon="11.1987396"><ele>370.0</ele><time>2026-04-12T14:43:27.039Z</time></trkpt><trkpt lat="43.1802841" lon="11.1987095"><ele>370.0</ele><time>2026-04-12T14:43:30.021Z</time></trkpt><trkpt lat="43.1802193" lon="11.198682"><ele>370.0</ele><time>2026-04-12T14:43:33.032Z</time></trkpt><trkpt lat="43.1801616" lon="11.1986271"><ele>370.0</ele><time>2026-04-12T14:43:36.021Z</time></trkpt><trkpt lat="43.1801061" lon="11.1985726"><ele>370.0</ele><time>2026-04-12T14:43:38.012Z</time></trkpt><trkpt lat="43.1800486" lon="11.1985366"><ele>370.0</ele><time>2026-04-12T14:43:40.032Z</time></trkpt><trkpt lat="43.1799172" lon="11.1984786"><ele>370.0</ele><time>2026-04-12T14:43:44.022Z</time></trkpt><trkpt lat="43.1798525" lon="11.198436"><ele>369.16666666666663</ele><time>2026-04-12T14:43:46.022Z</time></trkpt><trkpt lat="43.1797798" lon="11.1983892"><ele>368.3333333333333</ele><time>2026-04-12T14:43:48.004Z</time></trkpt><trkpt lat="43.1797059" lon="11.1983478"><ele>367.5</ele><time>2026-04-12T14:43:50.018Z</time></trkpt><trkpt lat="43.1796339" lon="11.1982692"><ele>366.6666666666667</ele><time>2026-04-12T14:43:53.018Z</time></trkpt><trkpt lat="43.1795684" lon="11.1982275"><ele>365.83333333333337</ele><time>2026-04-12T14:43:55.006Z</time></trkpt><trkpt lat="43.1794948" lon="11.198206"><ele>365.0</ele><time>2026-04-12T14:43:57.017Z</time></trkpt><trkpt lat="43.1794325" lon="11.1981609"><ele>365.83333333333337</ele><time>2026-04-12T14:44:00.033Z</time></trkpt><trkpt lat="43.1793423" lon="11.1981267"><ele>366.6666666666667</ele><time>2026-04-12T14:44:04.02Z</time></trkpt><trkpt lat="43.1792764" lon="11.1981193"><ele>367.5</ele><time>2026-04-12T14:44:08.02Z</time></trkpt><trkpt lat="43.1791991" lon="11.1980897"><ele>368.3333333333333</ele><time>2026-04-12T14:44:11.013Z</time></trkpt><trkpt lat="43.1791358" lon="11.1980255"><ele>369.16666666666663</ele><time>2026-04-12T14:44:14.012Z</time></trkpt><trkpt lat="43.1790762" lon="11.1979395"><ele>370.0</ele><time>2026-04-12T14:44:17.022Z</time></trkpt><trkpt lat="43.1790031" lon="11.1978402"><ele>370.0</ele><time>2026-04-12T14:44:20.025Z</time></trkpt><trkpt lat="43.1788516" lon="11.1977501"><ele>370.0</ele><time>2026-04-12T14:44:24.008Z</time></trkpt><trkpt lat="43.1787788" lon="11.1977207"><ele>370.0</ele><time>2026-04-12T14:44:26.014Z</time></trkpt><trkpt lat="43.1787128" lon="11.1976981"><ele>370.0</ele><time>2026-04-12T14:44:28.049Z</time></trkpt><trkpt lat="43.1786507" lon="11.1976833"><ele>370.0</ele><time>2026-04-12T14:44:30.02Z</time></trkpt><trkpt lat="43.1785623" lon="11.1976472"><ele>370.0</ele><time>2026-04-12T14:44:33.024Z</time></trkpt><trkpt lat="43.1784763" lon="11.197606"><ele>370.0</ele><time>2026-04-12T14:44:36.02Z</time></trkpt><trkpt lat="43.1783953" lon="11.1975497"><ele>370.0</ele><time>2026-04-12T14:44:38.913Z</time></trkpt><trkpt lat="43.178261" lon="11.1974698"><ele>370.0</ele><time>2026-04-12T14:44:44.032Z</time></trkpt><trkpt lat="43.1781884" lon="11.1974217"><ele>370.0</ele><time>2026-04-12T14:44:47.021Z</time></trkpt><trkpt lat="43.1781148" lon="11.1973797"><ele>371.16666666666663</ele><time>2026-04-12T14:44:50.016Z</time></trkpt><trkpt lat="43.1780377" lon="11.1973498"><ele>372.3333333333333</ele><time>2026-04-12T14:44:53.017Z</time></trkpt><trkpt lat="43.1779693" lon="11.1973133"><ele>373.5</ele><time>2026-04-12T14:44:54.881Z</time></trkpt><trkpt lat="43.1778754" lon="11.197263"><ele>374.6666666666667</ele><time>2026-04-12T14:44:57.018Z</time></trkpt><trkpt lat="43.1778024" lon="11.1972379"><ele>375.83333333333337</ele><time>2026-04-12T14:44:58.895Z</time></trkpt><trkpt lat="43.1777217" lon="11.1972226"><ele>377.0</ele><time>2026-04-12T14:45:01.024Z</time></trkpt><trkpt lat="43.1776198" lon="11.1972009"><ele>377.0</ele><time>2026-04-12T14:45:04.01Z</time></trkpt><trkpt lat="43.1775526" lon="11.1971838"><ele>377.0</ele><time>2026-04-12T14:45:06.035Z</time></trkpt><trkpt lat="43.1774879" lon="11.1971771"><ele>377.0</ele><time>2026-04-12T14:45:08.018Z</time></trkpt><trkpt lat="43.1773958" lon="11.1971856"><ele>377.0</ele><time>2026-04-12T14:45:11.02Z</time></trkpt><trkpt lat="43.1773061" lon="11.197194"><ele>377.0</ele><time>2026-04-12T14:45:14.011Z</time></trkpt><trkpt lat="43.177226" lon="11.197214"><ele>377.0</ele><time>2026-04-12T14:45:17.009Z</time></trkpt><trkpt lat="43.1771575" lon="11.1972613"><ele>375.6</ele><time>2026-04-12T14:45:19.98Z</time></trkpt><trkpt lat="43.1770688" lon="11.1973063"><ele>374.20000000000005</ele><time>2026-04-12T14:45:24.023Z</time></trkpt><trkpt lat="43.177005" lon="11.1973621"><ele>372.8</ele><time>2026-04-12T14:45:27.023Z</time></trkpt><trkpt lat="43.1769253" lon="11.1974218"><ele>371.4</ele><time>2026-04-12T14:45:30.018Z</time></trkpt><trkpt lat="43.1768234" lon="11.1974889"><ele>370.0</ele><time>2026-04-12T14:45:33.018Z</time></trkpt><trkpt lat="43.176744" lon="11.1975425"><ele>367.0</ele><time>2026-04-12T14:45:36.011Z</time></trkpt><trkpt lat="43.1766793" lon="11.197587"><ele>364.0</ele><time>2026-04-12T14:45:38.025Z</time></trkpt><trkpt lat="43.1766148" lon="11.1976186"><ele>361.0</ele><time>2026-04-12T14:45:40.037Z</time></trkpt><trkpt lat="43.1765189" lon="11.1976255"><ele>358.0</ele><time>2026-04-12T14:45:43.032Z</time></trkpt><trkpt lat="43.1764483" lon="11.1976246"><ele>355.0</ele><time>2026-04-12T14:45:45.023Z</time></trkpt><trkpt lat="43.1763735" lon="11.1976176"><ele>352.0</ele><time>2026-04-12T14:45:47.02Z</time></trkpt><trkpt lat="43.1762767" lon="11.1976159"><ele>351.3333333333333</ele><time>2026-04-12T14:45:50.013Z</time></trkpt><trkpt lat="43.1761876" lon="11.1976067"><ele>350.66666666666663</ele><time>2026-04-12T14:45:53.019Z</time></trkpt><trkpt lat="43.1761226" lon="11.1975947"><ele>350.0</ele><time>2026-04-12T14:45:55.012Z</time></trkpt><trkpt lat="43.1760611" lon="11.1975717"><ele>349.3333333333333</ele><time>2026-04-12T14:45:57.018Z</time></trkpt><trkpt lat="43.1759729" lon="11.1975573"><ele>348.6666666666667</ele><time>2026-04-12T14:46:00.019Z</time></trkpt><trkpt lat="43.1759006" lon="11.1975304"><ele>348.0</ele><time>2026-04-12T14:46:03.026Z</time></trkpt><trkpt lat="43.1758246" lon="11.1975039"><ele>348.0</ele><time>2026-04-12T14:46:06.025Z</time></trkpt><trkpt lat="43.175757" lon="11.1974872"><ele>348.0</ele><time>2026-04-12T14:46:08.956Z</time></trkpt><trkpt lat="43.1756839" lon="11.1975051"><ele>348.0</ele><time>2026-04-12T14:46:12.015Z</time></trkpt><trkpt lat="43.1756047" lon="11.1974814"><ele>348.0</ele><time>2026-04-12T14:46:15.024Z</time></trkpt><trkpt lat="43.1755287" lon="11.1974378"><ele>348.0</ele><time>2026-04-12T14:46:18.013Z</time></trkpt><trkpt lat="43.1753932" lon="11.1973368"><ele>351.0</ele><time>2026-04-12T14:46:23.007Z</time></trkpt><trkpt lat="43.1753234" lon="11.1972684"><ele>354.0</ele><time>2026-04-12T14:46:26.025Z</time></trkpt><trkpt lat="43.175251" lon="11.1972212"><ele>357.0</ele><time>2026-04-12T14:46:29.017Z</time></trkpt><trkpt lat="43.1751603" lon="11.1971767"><ele>360.0</ele><time>2026-04-12T14:46:32.015Z</time></trkpt><trkpt lat="43.1750909" lon="11.1971659"><ele>363.0</ele><time>2026-04-12T14:46:34.02Z</time></trkpt><trkpt lat="43.1750217" lon="11.1971532"><ele>366.0</ele><time>2026-04-12T14:46:36.022Z</time></trkpt><trkpt lat="43.1749577" lon="11.1971674"><ele>366.0</ele><time>2026-04-12T14:46:38.006Z</time></trkpt><trkpt lat="43.1748905" lon="11.1971879"><ele>366.0</ele><time>2026-04-12T14:46:40.014Z</time></trkpt><trkpt lat="43.1748011" lon="11.1972301"><ele>366.0</ele><time>2026-04-12T14:46:43.009Z</time></trkpt><trkpt lat="43.1747376" lon="11.1972833"><ele>366.0</ele><time>2026-04-12T14:46:45.016Z</time></trkpt><trkpt lat="43.1746551" lon="11.1973281"><ele>366.0</ele><time>2026-04-12T14:46:48.025Z</time></trkpt><trkpt lat="43.1745841" lon="11.1973445"><ele>366.0</ele><time>2026-04-12T14:46:50.018Z</time></trkpt><trkpt lat="43.1745176" lon="11.1973463"><ele>364.7142857142857</ele><time>2026-04-12T14:46:52.015Z</time></trkpt><trkpt lat="43.1744513" lon="11.1973308"><ele>363.42857142857144</ele><time>2026-04-12T14:46:54.014Z</time></trkpt><trkpt lat="43.1743757" lon="11.1973096"><ele>362.1428571428571</ele><time>2026-04-12T14:46:56.022Z</time></trkpt><trkpt lat="43.1742992" lon="11.1972882"><ele>360.8571428571429</ele><time>2026-04-12T14:46:58.023Z</time></trkpt><trkpt lat="43.1742152" lon="11.1972577"><ele>359.57142857142856</ele><time>2026-04-12T14:47:00.032Z</time></trkpt><trkpt lat="43.1741517" lon="11.1972261"><ele>358.2857142857143</ele><time>2026-04-12T14:47:02.004Z</time></trkpt><trkpt lat="43.1740836" lon="11.1971946"><ele>357.0</ele><time>2026-04-12T14:47:04.02Z</time></trkpt><trkpt lat="43.1740031" lon="11.197157"><ele>354.8333333333333</ele><time>2026-04-12T14:47:07.017Z</time></trkpt><trkpt lat="43.1739444" lon="11.1971062"><ele>352.6666666666667</ele><time>2026-04-12T14:47:10.026Z</time></trkpt><trkpt lat="43.1738798" lon="11.1970673"><ele>350.5</ele><time>2026-04-12T14:47:14.03Z</time></trkpt><trkpt lat="43.1738141" lon="11.1970254"><ele>348.33333333333337</ele><time>2026-04-12T14:47:16.029Z</time></trkpt><trkpt lat="43.1737269" lon="11.1969773"><ele>346.1666666666667</ele><time>2026-04-12T14:47:19.016Z</time></trkpt><trkpt lat="43.1736012" lon="11.1969248"><ele>344.0</ele><time>2026-04-12T14:47:23.014Z</time></trkpt><trkpt lat="43.1735296" lon="11.1969042"><ele>344.0</ele><time>2026-04-12T14:47:25.021Z</time></trkpt><trkpt lat="43.1734512" lon="11.1968863"><ele>344.0</ele><time>2026-04-12T14:47:27.019Z</time></trkpt><trkpt lat="43.1733732" lon="11.1968684"><ele>344.0</ele><time>2026-04-12T14:47:29.032Z</time></trkpt><trkpt lat="43.1732626" lon="11.1968509"><ele>344.0</ele><time>2026-04-12T14:47:32.038Z</time></trkpt><trkpt lat="43.1731818" lon="11.196831"><ele>344.0</ele><time>2026-04-12T14:47:35.026Z</time></trkpt><trkpt lat="43.1730987" lon="11.1968169"><ele>344.0</ele><time>2026-04-12T14:47:38.023Z</time></trkpt><trkpt lat="43.172966" lon="11.1967069"><ele>343.83333333333337</ele><time>2026-04-12T14:47:43.032Z</time></trkpt><trkpt lat="43.1728958" lon="11.1966089"><ele>343.6666666666667</ele><time>2026-04-12T14:47:47.024Z</time></trkpt><trkpt lat="43.1728444" lon="11.1965552"><ele>343.5</ele><time>2026-04-12T14:47:48.985Z</time></trkpt><trkpt lat="43.1727672" lon="11.1964943"><ele>343.3333333333333</ele><time>2026-04-12T14:47:52.025Z</time></trkpt><trkpt lat="43.1726847" lon="11.1964236"><ele>343.16666666666663</ele><time>2026-04-12T14:47:55.034Z</time></trkpt><trkpt lat="43.1726042" lon="11.1963461"><ele>343.0</ele><time>2026-04-12T14:47:58.007Z</time></trkpt><trkpt lat="43.1725516" lon="11.196295"><ele>343.0</ele><time>2026-04-12T14:48:00.039Z</time></trkpt><trkpt lat="43.1724541" lon="11.1962082"><ele>343.0</ele><time>2026-04-12T14:48:03.016Z</time></trkpt><trkpt lat="43.1723945" lon="11.1961418"><ele>343.0</ele><time>2026-04-12T14:48:05.025Z</time></trkpt><trkpt lat="43.1723265" lon="11.1961054"><ele>343.0</ele><time>2026-04-12T14:48:07.008Z</time></trkpt><trkpt lat="43.1722615" lon="11.1960768"><ele>343.0</ele><time>2026-04-12T14:48:09.015Z</time></trkpt><trkpt lat="43.1721661" lon="11.1960116"><ele>343.0</ele><time>2026-04-12T14:48:12.022Z</time></trkpt><trkpt lat="43.1721037" lon="11.1959677"><ele>343.66666666666663</ele><time>2026-04-12T14:48:14.002Z</time></trkpt><trkpt lat="43.172047" lon="11.1959193"><ele>344.3333333333333</ele><time>2026-04-12T14:48:16.008Z</time></trkpt><trkpt lat="43.1719913" lon="11.1958613"><ele>345.0</ele><time>2026-04-12T14:48:18.018Z</time></trkpt><trkpt lat="43.1719323" lon="11.1957986"><ele>345.6666666666667</ele><time>2026-04-12T14:48:20.024Z</time></trkpt><trkpt lat="43.1718166" lon="11.1957206"><ele>346.33333333333337</ele><time>2026-04-12T14:48:23.026Z</time></trkpt><trkpt lat="43.1717392" lon="11.1956819"><ele>347.0</ele><time>2026-04-12T14:48:25.019Z</time></trkpt><trkpt lat="43.1716655" lon="11.1956484"><ele>347.0</ele><time>2026-04-12T14:48:26.94Z</time></trkpt><trkpt lat="43.1715856" lon="11.1956075"><ele>347.0</ele><time>2026-04-12T14:48:28.962Z</time></trkpt><trkpt lat="43.1715053" lon="11.1955504"><ele>347.0</ele><time>2026-04-12T14:48:30.777Z</time></trkpt><trkpt lat="43.171416" lon="11.1954779"><ele>347.0</ele><time>2026-04-12T14:48:33.022Z</time></trkpt><trkpt lat="43.1713627" lon="11.1954014"><ele>347.0</ele><time>2026-04-12T14:48:35.024Z</time></trkpt><trkpt lat="43.1713129" lon="11.1953276"><ele>347.0</ele><time>2026-04-12T14:48:37.014Z</time></trkpt><trkpt lat="43.1712579" lon="11.1952511"><ele>343.8</ele><time>2026-04-12T14:48:39.027Z</time></trkpt><trkpt lat="43.1711486" lon="11.19511"><ele>340.6</ele><time>2026-04-12T14:48:43.015Z</time></trkpt><trkpt lat="43.171111" lon="11.1950326"><ele>337.40000000000003</ele><time>2026-04-12T14:48:45.037Z</time></trkpt><trkpt lat="43.1710704" lon="11.1949317"><ele>334.20000000000005</ele><time>2026-04-12T14:48:47.937Z</time></trkpt><trkpt lat="43.1710485" lon="11.1948485"><ele>331.0</ele><time>2026-04-12T14:48:50.028Z</time></trkpt><trkpt lat="43.1710039" lon="11.1947199"><ele>331.0</ele><time>2026-04-12T14:48:53.019Z</time></trkpt><trkpt lat="43.170982" lon="11.1946292"><ele>331.0</ele><time>2026-04-12T14:48:55.037Z</time></trkpt><trkpt lat="43.1709463" lon="11.1945292"><ele>331.0</ele><time>2026-04-12T14:48:57.034Z</time></trkpt><trkpt lat="43.1709044" lon="11.1944318"><ele>331.0</ele><time>2026-04-12T14:48:59.033Z</time></trkpt><trkpt lat="43.170856" lon="11.1942997"><ele>331.0</ele><time>2026-04-12T14:49:02.007Z</time></trkpt><trkpt lat="43.1708368" lon="11.1941956"><ele>331.0</ele><time>2026-04-12T14:49:04.033Z</time></trkpt><trkpt lat="43.1708233" lon="11.1941018"><ele>330.8333333333333</ele><time>2026-04-12T14:49:06.03Z</time></trkpt><trkpt lat="43.1707833" lon="11.1940037"><ele>330.66666666666663</ele><time>2026-04-12T14:49:09.016Z</time></trkpt><trkpt lat="43.1707759" lon="11.1938809"><ele>330.5</ele><time>2026-04-12T14:49:12.024Z</time></trkpt><trkpt lat="43.1707819" lon="11.1937745"><ele>330.3333333333333</ele><time>2026-04-12T14:49:14.026Z</time></trkpt><trkpt lat="43.1707933" lon="11.1936762"><ele>330.1666666666667</ele><time>2026-04-12T14:49:16.03Z</time></trkpt><trkpt lat="43.1708119" lon="11.1935825"><ele>330.0</ele><time>2026-04-12T14:49:18.025Z</time></trkpt><trkpt lat="43.1708187" lon="11.1934919"><ele>330.0</ele><time>2026-04-12T14:49:20.026Z</time></trkpt><trkpt lat="43.1708146" lon="11.193389"><ele>330.0</ele><time>2026-04-12T14:49:22.011Z</time></trkpt><trkpt lat="43.1708154" lon="11.1932695"><ele>330.0</ele><time>2026-04-12T14:49:25.011Z</time></trkpt><trkpt lat="43.1708089" lon="11.1931829"><ele>330.0</ele><time>2026-04-12T14:49:27.015Z</time></trkpt><trkpt lat="43.1708027" lon="11.1930937"><ele>330.0</ele><time>2026-04-12T14:49:29.034Z</time></trkpt><trkpt lat="43.1707995" lon="11.1929624"><ele>330.0</ele><time>2026-04-12T14:49:32.031Z</time></trkpt><trkpt lat="43.1707795" lon="11.1928788"><ele>330.7142857142857</ele><time>2026-04-12T14:49:34.021Z</time></trkpt><trkpt lat="43.1707513" lon="11.1927938"><ele>331.42857142857144</ele><time>2026-04-12T14:49:36.03Z</time></trkpt><trkpt lat="43.1707266" lon="11.1927141"><ele>332.1428571428571</ele><time>2026-04-12T14:49:38.015Z</time></trkpt><trkpt lat="43.1706994" lon="11.1926208"><ele>332.8571428571429</ele><time>2026-04-12T14:49:40.026Z</time></trkpt><trkpt lat="43.1706659" lon="11.1925315"><ele>333.57142857142856</ele><time>2026-04-12T14:49:42.019Z</time></trkpt><trkpt lat="43.1706215" lon="11.192443"><ele>334.2857142857143</ele><time>2026-04-12T14:49:44.033Z</time></trkpt><trkpt lat="43.1705824" lon="11.192353"><ele>335.0</ele><time>2026-04-12T14:49:46.033Z</time></trkpt><trkpt lat="43.1705474" lon="11.1922496"><ele>334.6666666666667</ele><time>2026-04-12T14:49:48.029Z</time></trkpt><trkpt lat="43.170503" lon="11.1920862"><ele>334.33333333333337</ele><time>2026-04-12T14:49:52.026Z</time></trkpt><trkpt lat="43.1704988" lon="11.1919777"><ele>334.0</ele><time>2026-04-12T14:49:55.017Z</time></trkpt><trkpt lat="43.1705644" lon="11.1919646"><ele>333.6666666666667</ele><time>2026-04-12T14:50:16.037Z</time></trkpt><trkpt lat="43.1706222" lon="11.1920324"><ele>333.3333333333333</ele><time>2026-04-12T14:50:20.024Z</time></trkpt><trkpt lat="43.1706899" lon="11.1920878"><ele>333.0</ele><time>2026-04-12T14:50:25.026Z</time></trkpt><trkpt lat="43.170763" lon="11.1921177"><ele>333.0</ele><time>2026-04-12T14:50:30.029Z</time></trkpt><trkpt lat="43.1708346" lon="11.1921537"><ele>333.0</ele><time>2026-04-12T14:50:35.021Z</time></trkpt><trkpt lat="43.1709018" lon="11.1921803"><ele>333.0</ele><time>2026-04-12T14:50:40.023Z</time></trkpt><trkpt lat="43.1709832" lon="11.1922168"><ele>333.0</ele><time>2026-04-12T14:50:45.028Z</time></trkpt><trkpt lat="43.1710523" lon="11.192245"><ele>333.0</ele><time>2026-04-12T14:50:49.027Z</time></trkpt><trkpt lat="43.171133" lon="11.1923001"><ele>333.0</ele><time>2026-04-12T14:50:54.028Z</time></trkpt><trkpt lat="43.1711963" lon="11.1923144"><ele>333.3333333333333</ele><time>2026-04-12T14:50:58.008Z</time></trkpt><trkpt lat="43.1712846" lon="11.1923618"><ele>333.6666666666667</ele><time>2026-04-12T14:51:05.029Z</time></trkpt><trkpt lat="43.1713427" lon="11.192398"><ele>334.0</ele><time>2026-04-12T14:51:09.026Z</time></trkpt><trkpt lat="43.1714385" lon="11.1924411"><ele>334.33333333333337</ele><time>2026-04-12T14:51:14.014Z</time></trkpt><trkpt lat="43.1715079" lon="11.1924726"><ele>334.6666666666667</ele><time>2026-04-12T14:51:18.037Z</time></trkpt><trkpt lat="43.1715685" lon="11.1925123"><ele>335.0</ele><time>2026-04-12T14:51:22.036Z</time></trkpt><trkpt lat="43.1716376" lon="11.1925482"><ele>339.0</ele><time>2026-04-12T14:51:26.033Z</time></trkpt><trkpt lat="43.171707" lon="11.192603"><ele>343.0</ele><time>2026-04-12T14:51:30.034Z</time></trkpt><trkpt lat="43.1717719" lon="11.1926399"><ele>347.0</ele><time>2026-04-12T14:51:34.024Z</time></trkpt><trkpt lat="43.1718424" lon="11.1926992"><ele>351.0</ele><time>2026-04-12T14:51:39.041Z</time></trkpt><trkpt lat="43.1719458" lon="11.1927765"><ele>355.0</ele><time>2026-04-12T14:51:45.035Z</time></trkpt><trkpt lat="43.1719974" lon="11.1928319"><ele>359.0</ele><time>2026-04-12T14:51:49.021Z</time></trkpt><trkpt lat="43.1720691" lon="11.1928949"><ele>359.0</ele><time>2026-04-12T14:51:54.031Z</time></trkpt><trkpt lat="43.1721161" lon="11.192968"><ele>359.0</ele><time>2026-04-12T14:51:58.029Z</time></trkpt><trkpt lat="43.1721729" lon="11.1930341"><ele>359.0</ele><time>2026-04-12T14:52:02.042Z</time></trkpt><trkpt lat="43.1722358" lon="11.1930902"><ele>359.0</ele><time>2026-04-12T14:52:06.023Z</time></trkpt><trkpt lat="43.1723028" lon="11.1931277"><ele>359.0</ele><time>2026-04-12T14:52:10.043Z</time></trkpt><trkpt lat="43.1723657" lon="11.1931424"><ele>359.0</ele><time>2026-04-12T14:52:14.029Z</time></trkpt><trkpt lat="43.1724294" lon="11.1931862"><ele>359.0</ele><time>2026-04-12T14:52:18.014Z</time></trkpt><trkpt lat="43.1725048" lon="11.1932344"><ele>362.42857142857144</ele><time>2026-04-12T14:52:22.024Z</time></trkpt><trkpt lat="43.1725673" lon="11.1932785"><ele>365.8571428571429</ele><time>2026-04-12T14:52:26.043Z</time></trkpt><trkpt lat="43.1726283" lon="11.1933284"><ele>369.2857142857143</ele><time>2026-04-12T14:52:30.028Z</time></trkpt><trkpt lat="43.1726902" lon="11.1933901"><ele>372.7142857142857</ele><time>2026-04-12T14:52:34.031Z</time></trkpt><trkpt lat="43.1727621" lon="11.1934165"><ele>376.1428571428571</ele><time>2026-04-12T14:52:38.019Z</time></trkpt><trkpt lat="43.1728362" lon="11.1934499"><ele>379.57142857142856</ele><time>2026-04-12T14:52:42.025Z</time></trkpt><trkpt lat="43.1729047" lon="11.1934768"><ele>383.0</ele><time>2026-04-12T14:52:45.028Z</time></trkpt><trkpt lat="43.1729806" lon="11.193498"><ele>383.0</ele><time>2026-04-12T14:52:48.036Z</time></trkpt><trkpt lat="43.1730506" lon="11.1935118"><ele>383.0</ele><time>2026-04-12T14:52:51.03Z</time></trkpt><trkpt lat="43.173128" lon="11.1935208"><ele>383.0</ele><time>2026-04-12T14:52:54.018Z</time></trkpt><trkpt lat="43.1732067" lon="11.1935465"><ele>383.0</ele><time>2026-04-12T14:52:57.016Z</time></trkpt><trkpt lat="43.1732743" lon="11.1935714"><ele>383.0</ele><time>2026-04-12T14:53:00.031Z</time></trkpt><trkpt lat="43.1733805" lon="11.19359"><ele>383.0</ele><time>2026-04-12T14:53:05.025Z</time></trkpt><trkpt lat="43.1734619" lon="11.1936109"><ele>385.1666666666667</ele><time>2026-04-12T14:53:09.026Z</time></trkpt><trkpt lat="43.1735513" lon="11.1936502"><ele>387.33333333333337</ele><time>2026-04-12T14:53:14.026Z</time></trkpt><trkpt lat="43.173617" lon="11.193704"><ele>389.5</ele><time>2026-04-12T14:53:18.03Z</time></trkpt><trkpt lat="43.173676" lon="11.1937904"><ele>391.6666666666667</ele><time>2026-04-12T14:53:22.023Z</time></trkpt><trkpt lat="43.1737381" lon="11.1938431"><ele>393.8333333333333</ele><time>2026-04-12T14:53:25.019Z</time></trkpt><trkpt lat="43.1738052" lon="11.1938744"><ele>396.0</ele><time>2026-04-12T14:53:29.017Z</time></trkpt><trkpt lat="43.1738871" lon="11.1938801"><ele>396.0</ele><time>2026-04-12T14:53:34.024Z</time></trkpt><trkpt lat="43.173962" lon="11.1939181"><ele>396.0</ele><time>2026-04-12T14:53:38.038Z</time></trkpt><trkpt lat="43.1740246" lon="11.1939562"><ele>396.0</ele><time>2026-04-12T14:53:41.027Z</time></trkpt><trkpt lat="43.1741199" lon="11.1939671"><ele>396.0</ele><time>2026-04-12T14:53:45.037Z</time></trkpt><trkpt lat="43.1741906" lon="11.1939868"><ele>396.0</ele><time>2026-04-12T14:53:48.024Z</time></trkpt><trkpt lat="43.1742606" lon="11.1940073"><ele>396.0</ele><time>2026-04-12T14:53:51.029Z</time></trkpt><trkpt lat="43.1743392" lon="11.1940298"><ele>397.5</ele><time>2026-04-12T14:53:54.018Z</time></trkpt><trkpt lat="43.1744171" lon="11.1940513"><ele>399.0</ele><time>2026-04-12T14:53:57.045Z</time></trkpt><trkpt lat="43.1744904" lon="11.1940552"><ele>400.5</ele><time>2026-04-12T14:54:00.017Z</time></trkpt><trkpt lat="43.1746118" lon="11.1940464"><ele>402.0</ele><time>2026-04-12T14:54:05.018Z</time></trkpt><trkpt lat="43.1746938" lon="11.1940361"><ele>403.5</ele><time>2026-04-12T14:54:07.98Z</time></trkpt><trkpt lat="43.1747801" lon="11.1940455"><ele>405.0</ele><time>2026-04-12T14:54:11.022Z</time></trkpt><trkpt lat="43.1748465" lon="11.1940438"><ele>405.99999999999994</ele><time>2026-04-12T14:54:13.03Z</time></trkpt><trkpt lat="43.1749108" lon="11.1940312"><ele>407.0</ele><time>2026-04-12T14:54:15.038Z</time></trkpt><trkpt lat="43.1749793" lon="11.1940262"><ele>408.0</ele><time>2026-04-12T14:54:17.025Z</time></trkpt><trkpt lat="43.1750467" lon="11.1940215"><ele>409.0</ele><time>2026-04-12T14:54:19.007Z</time></trkpt><trkpt lat="43.1751166" lon="11.1940132"><ele>410.0</ele><time>2026-04-12T14:54:21.049Z</time></trkpt><trkpt lat="43.1751848" lon="11.1940097"><ele>410.99999999999994</ele><time>2026-04-12T14:54:23.018Z</time></trkpt><trkpt lat="43.1752862" lon="11.1940217"><ele>412.0</ele><time>2026-04-12T14:54:26.016Z</time></trkpt><trkpt lat="43.1753728" lon="11.1940339"><ele>412.00000000000006</ele><time>2026-04-12T14:54:29.035Z</time></trkpt><trkpt lat="43.1754514" lon="11.194036"><ele>412.0</ele><time>2026-04-12T14:54:32.026Z</time></trkpt><trkpt lat="43.1755373" lon="11.1940427"><ele>412.0</ele><time>2026-04-12T14:54:35.033Z</time></trkpt><trkpt lat="43.1756063" lon="11.1940413"><ele>412.0</ele><time>2026-04-12T14:54:37.033Z</time></trkpt><trkpt lat="43.1756761" lon="11.1940371"><ele>412.00000000000006</ele><time>2026-04-12T14:54:39.038Z</time></trkpt><trkpt lat="43.1757485" lon="11.1940337"><ele>412.0</ele><time>2026-04-12T14:54:41.037Z</time></trkpt><trkpt lat="43.1758924" lon="11.194055"><ele>412.33333333333337</ele><time>2026-04-12T14:54:46.024Z</time></trkpt><trkpt lat="43.1759824" lon="11.1940555"><ele>412.6666666666667</ele><time>2026-04-12T14:54:49.024Z</time></trkpt><trkpt lat="43.1760685" lon="11.1940635"><ele>413.0</ele><time>2026-04-12T14:54:52.025Z</time></trkpt><trkpt lat="43.176155" lon="11.1940578"><ele>413.33333333333337</ele><time>2026-04-12T14:54:55.008Z</time></trkpt><trkpt lat="43.1762361" lon="11.1940449"><ele>413.6666666666667</ele><time>2026-04-12T14:54:58.043Z</time></trkpt><trkpt lat="43.176314" lon="11.1940373"><ele>414.0</ele><time>2026-04-12T14:55:01.018Z</time></trkpt><trkpt lat="43.1764224" lon="11.194007"><ele>413.5</ele><time>2026-04-12T14:55:05.024Z</time></trkpt><trkpt lat="43.1764993" lon="11.1939985"><ele>413.0</ele><time>2026-04-12T14:55:08.043Z</time></trkpt><trkpt lat="43.176574" lon="11.1940091"><ele>412.5</ele><time>2026-04-12T14:55:11.041Z</time></trkpt><trkpt lat="43.1766991" lon="11.1940246"><ele>412.0</ele><time>2026-04-12T14:55:16.023Z</time></trkpt><trkpt lat="43.1767714" lon="11.1940306"><ele>411.5</ele><time>2026-04-12T14:55:19.017Z</time></trkpt><trkpt lat="43.1768446" lon="11.194022"><ele>411.0</ele><time>2026-04-12T14:55:22.022Z</time></trkpt><trkpt lat="43.1769259" lon="11.1940297"><ele>412.6666666666667</ele><time>2026-04-12T14:55:26.025Z</time></trkpt><trkpt lat="43.1769909" lon="11.1940506"><ele>414.33333333333337</ele><time>2026-04-12T14:55:29.025Z</time></trkpt><trkpt lat="43.1770591" lon="11.1940617"><ele>416.0</ele><time>2026-04-12T14:55:32.008Z</time></trkpt><trkpt lat="43.1771732" lon="11.1940732"><ele>417.6666666666667</ele><time>2026-04-12T14:55:36.026Z</time></trkpt><trkpt lat="43.1772514" lon="11.1940829"><ele>419.33333333333337</ele><time>2026-04-12T14:55:39.011Z</time></trkpt><trkpt lat="43.1773238" lon="11.1940882"><ele>421.0</ele><time>2026-04-12T14:55:42.016Z</time></trkpt><trkpt lat="43.1773895" lon="11.1940877"><ele>423.1666666666667</ele><time>2026-04-12T14:55:45.018Z</time></trkpt><trkpt lat="43.1774592" lon="11.1940609"><ele>425.33333333333337</ele><time>2026-04-12T14:55:48.013Z</time></trkpt><trkpt lat="43.177527" lon="11.1940523"><ele>427.5</ele><time>2026-04-12T14:55:51.033Z</time></trkpt><trkpt lat="43.1776485" lon="11.1940489"><ele>429.66666666666663</ele><time>2026-04-12T14:55:56.034Z</time></trkpt><trkpt lat="43.177724" lon="11.1940417"><ele>431.8333333333333</ele><time>2026-04-12T14:55:59.037Z</time></trkpt><trkpt lat="43.1778" lon="11.1940121"><ele>434.0</ele><time>2026-04-12T14:56:02.019Z</time></trkpt><trkpt lat="43.1778655" lon="11.1940134"><ele>433.99999999999994</ele><time>2026-04-12T14:56:05.022Z</time></trkpt><trkpt lat="43.1779465" lon="11.1940086"><ele>434.0</ele><time>2026-04-12T14:56:08.03Z</time></trkpt><trkpt lat="43.1780099" lon="11.1940053"><ele>434.0</ele><time>2026-04-12T14:56:11.022Z</time></trkpt><trkpt lat="43.1781364" lon="11.1939959"><ele>434.0</ele><time>2026-04-12T14:56:16.033Z</time></trkpt><trkpt lat="43.1782024" lon="11.193992"><ele>433.99999999999994</ele><time>2026-04-12T14:56:19.031Z</time></trkpt><trkpt lat="43.1782835" lon="11.1939889"><ele>434.0</ele><time>2026-04-12T14:56:22.03Z</time></trkpt><trkpt lat="43.1783621" lon="11.1939848"><ele>436.79999999999995</ele><time>2026-04-12T14:56:25.023Z</time></trkpt><trkpt lat="43.1784435" lon="11.1939534"><ele>439.59999999999997</ele><time>2026-04-12T14:56:28.048Z</time></trkpt><trkpt lat="43.1785229" lon="11.193921"><ele>442.4</ele><time>2026-04-12T14:56:31.026Z</time></trkpt><trkpt lat="43.1786641" lon="11.1939107"><ele>445.2</ele><time>2026-04-12T14:56:36.027Z</time></trkpt><trkpt lat="43.1787421" lon="11.1939041"><ele>448.0</ele><time>2026-04-12T14:56:39.028Z</time></trkpt><trkpt lat="43.1788263" lon="11.1938909"><ele>448.00000000000006</ele><time>2026-04-12T14:56:42.014Z</time></trkpt><trkpt lat="43.1789015" lon="11.1938791"><ele>448.0</ele><time>2026-04-12T14:56:45.022Z</time></trkpt><trkpt lat="43.1789792" lon="11.1938513"><ele>448.0</ele><time>2026-04-12T14:56:48.03Z</time></trkpt><trkpt lat="43.1790561" lon="11.1938241"><ele>448.0</ele><time>2026-04-12T14:56:51.017Z</time></trkpt><trkpt lat="43.1791599" lon="11.1937941"><ele>448.00000000000006</ele><time>2026-04-12T14:56:55.009Z</time></trkpt><trkpt lat="43.1792373" lon="11.1937722"><ele>448.0</ele><time>2026-04-12T14:56:58.031Z</time></trkpt><trkpt lat="43.1793224" lon="11.1937467"><ele>450.5</ele><time>2026-04-12T14:57:01.036Z</time></trkpt><trkpt lat="43.1794307" lon="11.1936989"><ele>453.0</ele><time>2026-04-12T14:57:05.028Z</time></trkpt><trkpt lat="43.1795534" lon="11.1936203"><ele>455.5</ele><time>2026-04-12T14:57:08.087Z</time></trkpt><trkpt lat="43.1796231" lon="11.1935812"><ele>458.0</ele><time>2026-04-12T14:57:11.07Z</time></trkpt><trkpt lat="43.1797687" lon="11.1935164"><ele>458.8333333333333</ele><time>2026-04-12T14:57:17.082Z</time></trkpt><trkpt lat="43.1798598" lon="11.1935144"><ele>459.66666666666663</ele><time>2026-04-12T14:57:20.107Z</time></trkpt><trkpt lat="43.1799426" lon="11.193512"><ele>460.5</ele><time>2026-04-12T14:57:23.074Z</time></trkpt><trkpt lat="43.1800586" lon="11.1934877"><ele>461.33333333333337</ele><time>2026-04-12T14:57:27.101Z</time></trkpt><trkpt lat="43.1801267" lon="11.1934835"><ele>462.1666666666667</ele><time>2026-04-12T14:57:29.08Z</time></trkpt><trkpt lat="43.1801962" lon="11.193476"><ele>463.0</ele><time>2026-04-12T14:57:31.071Z</time></trkpt><trkpt lat="43.1802638" lon="11.1934529"><ele>463.0</ele><time>2026-04-12T14:57:33.078Z</time></trkpt><trkpt lat="43.1803969" lon="11.1934168"><ele>462.99999999999994</ele><time>2026-04-12T14:57:37.12Z</time></trkpt><trkpt lat="43.1804874" lon="11.1933838"><ele>462.99999999999994</ele><time>2026-04-12T14:57:40.091Z</time></trkpt><trkpt lat="43.1805583" lon="11.1933686"><ele>463.0</ele><time>2026-04-12T14:57:43.086Z</time></trkpt><trkpt lat="43.1806195" lon="11.193339"><ele>463.0</ele><time>2026-04-12T14:57:47.1Z</time></trkpt><trkpt lat="43.1807074" lon="11.1933078"><ele>463.00000000000006</ele><time>2026-04-12T14:58:17.092Z</time></trkpt><trkpt lat="43.1807839" lon="11.1932705"><ele>463.0</ele><time>2026-04-12T14:58:21.091Z</time></trkpt><trkpt lat="43.1808548" lon="11.1932514"><ele>463.0</ele><time>2026-04-12T14:58:24.092Z</time></trkpt><trkpt lat="43.180918" lon="11.1932208"><ele>463.0</ele><time>2026-04-12T14:58:27.098Z</time></trkpt><trkpt lat="43.1809874" lon="11.193191"><ele>463.00000000000006</ele><time>2026-04-12T14:58:30.084Z</time></trkpt><trkpt lat="43.1810655" lon="11.193165"><ele>463.0</ele><time>2026-04-12T14:58:33.086Z</time></trkpt><trkpt lat="43.1811679" lon="11.1931356"><ele>463.00000000000006</ele><time>2026-04-12T14:58:37.092Z</time></trkpt><trkpt lat="43.1812298" lon="11.1931539"><ele>463.0</ele><time>2026-04-12T14:58:40.082Z</time></trkpt><trkpt lat="43.1812981" lon="11.1931534"><ele>463.0</ele><time>2026-04-12T14:58:43.097Z</time></trkpt><trkpt lat="43.1813624" lon="11.1931206"><ele>463.0</ele><time>2026-04-12T14:58:46.095Z</time></trkpt><trkpt lat="43.1814246" lon="11.1930844"><ele>463.00000000000006</ele><time>2026-04-12T14:58:49.09Z</time></trkpt><trkpt lat="43.1814798" lon="11.1930294"><ele>463.0</ele><time>2026-04-12T14:58:52.093Z</time></trkpt><trkpt lat="43.1815907" lon="11.1929452"><ele>463.1666666666667</ele><time>2026-04-12T14:58:57.096Z</time></trkpt><trkpt lat="43.1816591" lon="11.1929306"><ele>463.33333333333337</ele><time>2026-04-12T14:59:00.086Z</time></trkpt><trkpt lat="43.181723" lon="11.1929449"><ele>463.5</ele><time>2026-04-12T14:59:03.091Z</time></trkpt><trkpt lat="43.1817922" lon="11.1929652"><ele>463.66666666666663</ele><time>2026-04-12T14:59:06.085Z</time></trkpt><trkpt lat="43.1818676" lon="11.1930066"><ele>463.8333333333333</ele><time>2026-04-12T14:59:09.083Z</time></trkpt><trkpt lat="43.1819352" lon="11.1930323"><ele>464.0</ele><time>2026-04-12T14:59:12.069Z</time></trkpt><trkpt lat="43.1820452" lon="11.1930164"><ele>463.99999999999994</ele><time>2026-04-12T14:59:16.089Z</time></trkpt><trkpt lat="43.182125" lon="11.1929893"><ele>464.0</ele><time>2026-04-12T14:59:19.079Z</time></trkpt><trkpt lat="43.1822087" lon="11.1929581"><ele>464.0</ele><time>2026-04-12T14:59:22.104Z</time></trkpt><trkpt lat="43.1823265" lon="11.1929163"><ele>464.0</ele><time>2026-04-12T14:59:26.066Z</time></trkpt><trkpt lat="43.1823918" lon="11.192914"><ele>463.99999999999994</ele><time>2026-04-12T14:59:28.08Z</time></trkpt><trkpt lat="43.18246" lon="11.1929159"><ele>464.0</ele><time>2026-04-12T14:59:30.073Z</time></trkpt><trkpt lat="43.1825482" lon="11.192912"><ele>463.66666666666663</ele><time>2026-04-12T14:59:33.09Z</time></trkpt><trkpt lat="43.1826536" lon="11.1928752"><ele>463.3333333333333</ele><time>2026-04-12T14:59:36.086Z</time></trkpt><trkpt lat="43.1827225" lon="11.1928543"><ele>463.0</ele><time>2026-04-12T14:59:38.085Z</time></trkpt><trkpt lat="43.1827886" lon="11.1928208"><ele>462.66666666666663</ele><time>2026-04-12T14:59:40.077Z</time></trkpt><trkpt lat="43.1828575" lon="11.1928063"><ele>462.3333333333333</ele><time>2026-04-12T14:59:42.087Z</time></trkpt><trkpt lat="43.1829275" lon="11.1927906"><ele>462.0</ele><time>2026-04-12T14:59:44.069Z</time></trkpt><trkpt lat="43.1830247" lon="11.1927743"><ele>462.0</ele><time>2026-04-12T14:59:48.089Z</time></trkpt><trkpt lat="43.1830847" lon="11.1927097"><ele>462.0</ele><time>2026-04-12T14:59:52.092Z</time></trkpt><trkpt lat="43.1831502" lon="11.1926696"><ele>462.0</ele><time>2026-04-12T14:59:55.095Z</time></trkpt><trkpt lat="43.1832205" lon="11.1926198"><ele>462.0</ele><time>2026-04-12T14:59:58.084Z</time></trkpt><trkpt lat="43.1832845" lon="11.1925564"><ele>462.0</ele><time>2026-04-12T15:00:01.081Z</time></trkpt><trkpt lat="43.1833566" lon="11.1925053"><ele>462.0</ele><time>2026-04-12T15:00:04.095Z</time></trkpt><trkpt lat="43.1834476" lon="11.1924629"><ele>461.8333333333333</ele><time>2026-04-12T15:00:08.074Z</time></trkpt><trkpt lat="43.1835056" lon="11.1924088"><ele>461.66666666666663</ele><time>2026-04-12T15:00:11.102Z</time></trkpt><trkpt lat="43.1835513" lon="11.1923143"><ele>461.5</ele><time>2026-04-12T15:00:14.087Z</time></trkpt><trkpt lat="43.1836132" lon="11.1922414"><ele>461.3333333333333</ele><time>2026-04-12T15:00:17.079Z</time></trkpt><trkpt lat="43.183684" lon="11.1921717"><ele>461.16666666666663</ele><time>2026-04-12T15:00:20.1Z</time></trkpt><trkpt lat="43.1837575" lon="11.1921116"><ele>461.0</ele><time>2026-04-12T15:00:23.091Z</time></trkpt><trkpt lat="43.1838167" lon="11.1920759"><ele>460.49999999999994</ele><time>2026-04-12T15:00:25.094Z</time></trkpt><trkpt lat="43.1839035" lon="11.1920354"><ele>460.0</ele><time>2026-04-12T15:00:28.093Z</time></trkpt><trkpt lat="43.1839887" lon="11.1919934"><ele>459.5</ele><time>2026-04-12T15:00:31.102Z</time></trkpt><trkpt lat="43.1840756" lon="11.1919593"><ele>459.0</ele><time>2026-04-12T15:00:34.1Z</time></trkpt><trkpt lat="43.1841387" lon="11.1919293"><ele>458.49999999999994</ele><time>2026-04-12T15:00:36.089Z</time></trkpt><trkpt lat="43.1842186" lon="11.1919188"><ele>458.0</ele><time>2026-04-12T15:00:39.098Z</time></trkpt><trkpt lat="43.184309" lon="11.1919158"><ele>457.99999999999994</ele><time>2026-04-12T15:00:42.084Z</time></trkpt><trkpt lat="43.184399" lon="11.1919022"><ele>458.0</ele><time>2026-04-12T15:00:45.089Z</time></trkpt><trkpt lat="43.1845233" lon="11.1919153"><ele>458.0</ele><time>2026-04-12T15:00:49.094Z</time></trkpt><trkpt lat="43.1845887" lon="11.1919313"><ele>458.0</ele><time>2026-04-12T15:00:51.1Z</time></trkpt><trkpt lat="43.1846739" lon="11.1919202"><ele>457.99999999999994</ele><time>2026-04-12T15:00:54.098Z</time></trkpt><trkpt lat="43.1847442" lon="11.1919106"><ele>458.0</ele><time>2026-04-12T15:00:56.096Z</time></trkpt><trkpt lat="43.1848112" lon="11.1918887"><ele>457.59999999999997</ele><time>2026-04-12T15:00:58.088Z</time></trkpt><trkpt lat="43.1848958" lon="11.1918586"><ele>457.19999999999993</ele><time>2026-04-12T15:01:01.102Z</time></trkpt><trkpt lat="43.1849843" lon="11.191852"><ele>456.8</ele><time>2026-04-12T15:01:04.091Z</time></trkpt><trkpt lat="43.185124" lon="11.191807"><ele>456.4</ele><time>2026-04-12T15:01:09.084Z</time></trkpt><trkpt lat="43.1852019" lon="11.1917703"><ele>456.0</ele><time>2026-04-12T15:01:12.096Z</time></trkpt><trkpt lat="43.185289" lon="11.1917435"><ele>456.0</ele><time>2026-04-12T15:01:15.089Z</time></trkpt><trkpt lat="43.1853547" lon="11.1917119"><ele>455.99999999999994</ele><time>2026-04-12T15:01:17.089Z</time></trkpt><trkpt lat="43.1854208" lon="11.1916475"><ele>456.0</ele><time>2026-04-12T15:01:19.099Z</time></trkpt><trkpt lat="43.18548" lon="11.1915814"><ele>456.0</ele><time>2026-04-12T15:01:21.087Z</time></trkpt><trkpt lat="43.185532" lon="11.1915143"><ele>455.99999999999994</ele><time>2026-04-12T15:01:23.085Z</time></trkpt><trkpt lat="43.1855776" lon="11.1914489"><ele>456.0</ele><time>2026-04-12T15:01:25.102Z</time></trkpt><trkpt lat="43.1856238" lon="11.1913872"><ele>456.0</ele><time>2026-04-12T15:01:27.093Z</time></trkpt><trkpt lat="43.1856975" lon="11.1913018"><ele>456.6666666666667</ele><time>2026-04-12T15:01:30.078Z</time></trkpt><trkpt lat="43.1857583" lon="11.1912126"><ele>457.33333333333337</ele><time>2026-04-12T15:01:33.084Z</time></trkpt><trkpt lat="43.1858218" lon="11.191146"><ele>458.0</ele><time>2026-04-12T15:01:36.086Z</time></trkpt><trkpt lat="43.1858924" lon="11.1910586"><ele>458.6666666666667</ele><time>2026-04-12T15:01:39.091Z</time></trkpt><trkpt lat="43.1859567" lon="11.1909824"><ele>459.33333333333337</ele><time>2026-04-12T15:01:42.088Z</time></trkpt><trkpt lat="43.1860034" lon="11.1909238"><ele>460.0</ele><time>2026-04-12T15:01:44.089Z</time></trkpt><trkpt lat="43.1860621" lon="11.190872"><ele>460.00000000000006</ele><time>2026-04-12T15:01:46.086Z</time></trkpt><trkpt lat="43.1861418" lon="11.1908015"><ele>460.0</ele><time>2026-04-12T15:01:49.071Z</time></trkpt><trkpt lat="43.1861955" lon="11.1907472"><ele>460.0</ele><time>2026-04-12T15:01:51.089Z</time></trkpt><trkpt lat="43.1862517" lon="11.1907068"><ele>460.0</ele><time>2026-04-12T15:01:53.087Z</time></trkpt><trkpt lat="43.1863419" lon="11.1906676"><ele>460.00000000000006</ele><time>2026-04-12T15:01:56.087Z</time></trkpt><trkpt lat="43.186446" lon="11.1906282"><ele>460.0</ele><time>2026-04-12T15:01:59.079Z</time></trkpt><trkpt lat="43.1865111" lon="11.1906141"><ele>460.83333333333337</ele><time>2026-04-12T15:02:01.093Z</time></trkpt><trkpt lat="43.1865843" lon="11.1905681"><ele>461.6666666666667</ele><time>2026-04-12T15:02:04.097Z</time></trkpt><trkpt lat="43.1866628" lon="11.1904996"><ele>462.5</ele><time>2026-04-12T15:02:07.08Z</time></trkpt><trkpt lat="43.1867224" lon="11.1904603"><ele>463.33333333333337</ele><time>2026-04-12T15:02:09.076Z</time></trkpt><trkpt lat="43.1867818" lon="11.1904021"><ele>464.1666666666667</ele><time>2026-04-12T15:02:11.084Z</time></trkpt><trkpt lat="43.1868415" lon="11.1903102"><ele>465.0</ele><time>2026-04-12T15:02:14.105Z</time></trkpt><trkpt lat="43.1868752" lon="11.1902326"><ele>465.0</ele><time>2026-04-12T15:02:16.082Z</time></trkpt><trkpt lat="43.1869306" lon="11.1901251"><ele>465.0</ele><time>2026-04-12T15:02:19.083Z</time></trkpt><trkpt lat="43.1869617" lon="11.1900447"><ele>465.0</ele><time>2026-04-12T15:02:21.086Z</time></trkpt><trkpt lat="43.186986" lon="11.1899473"><ele>465.0</ele><time>2026-04-12T15:02:23.095Z</time></trkpt><trkpt lat="43.1870216" lon="11.1898641"><ele>465.0</ele><time>2026-04-12T15:02:25.107Z</time></trkpt><trkpt lat="43.1870615" lon="11.1897868"><ele>465.0</ele><time>2026-04-12T15:02:27.085Z</time></trkpt><trkpt lat="43.1871088" lon="11.1896753"><ele>465.0</ele><time>2026-04-12T15:02:30.096Z</time></trkpt><trkpt lat="43.1871649" lon="11.1895784"><ele>465.0</ele><time>2026-04-12T15:02:33.101Z</time></trkpt><trkpt lat="43.1872009" lon="11.1895045"><ele>465.0</ele><time>2026-04-12T15:02:35.083Z</time></trkpt><trkpt lat="43.1872535" lon="11.1894366"><ele>465.0</ele><time>2026-04-12T15:02:37.101Z</time></trkpt><trkpt lat="43.1873036" lon="11.1893643"><ele>465.0</ele><time>2026-04-12T15:02:39.095Z</time></trkpt><trkpt lat="43.1873664" lon="11.1893001"><ele>465.0</ele><time>2026-04-12T15:02:41.095Z</time></trkpt><trkpt lat="43.1874185" lon="11.1892325"><ele>465.0</ele><time>2026-04-12T15:02:43.1Z</time></trkpt><trkpt lat="43.1874687" lon="11.189151"><ele>465.0</ele><time>2026-04-12T15:02:45.088Z</time></trkpt><trkpt lat="43.1875105" lon="11.1890667"><ele>465.0</ele><time>2026-04-12T15:02:47.096Z</time></trkpt><trkpt lat="43.1875605" lon="11.1889405"><ele>465.0</ele><time>2026-04-12T15:02:50.094Z</time></trkpt><trkpt lat="43.1876019" lon="11.1888676"><ele>465.0</ele><time>2026-04-12T15:02:52.084Z</time></trkpt><trkpt lat="43.1876451" lon="11.1888025"><ele>465.0</ele><time>2026-04-12T15:02:54.093Z</time></trkpt><trkpt lat="43.1876939" lon="11.188735"><ele>465.0</ele><time>2026-04-12T15:02:56.092Z</time></trkpt><trkpt lat="43.1877506" lon="11.1886624"><ele>465.0</ele><time>2026-04-12T15:02:58.08Z</time></trkpt><trkpt lat="43.1878037" lon="11.1885978"><ele>465.0</ele><time>2026-04-12T15:03:00.086Z</time></trkpt><trkpt lat="43.1878806" lon="11.1885716"><ele>465.0</ele><time>2026-04-12T15:03:02.087Z</time></trkpt><trkpt lat="43.1879598" lon="11.1885835"><ele>465.0</ele><time>2026-04-12T15:03:04.09Z</time></trkpt><trkpt lat="43.1880326" lon="11.1885906"><ele>465.0</ele><time>2026-04-12T15:03:06.082Z</time></trkpt><trkpt lat="43.1881015" lon="11.1885777"><ele>465.6666666666667</ele><time>2026-04-12T15:03:08.084Z</time></trkpt><trkpt lat="43.1881793" lon="11.1885605"><ele>466.33333333333337</ele><time>2026-04-12T15:03:11.092Z</time></trkpt><trkpt lat="43.1882557" lon="11.1885407"><ele>467.0</ele><time>2026-04-12T15:03:52.089Z</time></trkpt><trkpt lat="43.1883288" lon="11.1885289"><ele>467.6666666666667</ele><time>2026-04-12T15:03:54.086Z</time></trkpt><trkpt lat="43.188415" lon="11.1885243"><ele>468.33333333333337</ele><time>2026-04-12T15:03:56.081Z</time></trkpt><trkpt lat="43.1885147" lon="11.1885259"><ele>469.0</ele><time>2026-04-12T15:03:58.085Z</time></trkpt><trkpt lat="43.1887566" lon="11.1884864"><ele>469.0</ele><time>2026-04-12T15:04:02.088Z</time></trkpt><trkpt lat="43.1888241" lon="11.1884718"><ele>469.0</ele><time>2026-04-12T15:04:03.083Z</time></trkpt><trkpt lat="43.1888879" lon="11.1884534"><ele>469.0</ele><time>2026-04-12T15:04:04.075Z</time></trkpt><trkpt lat="43.1890019" lon="11.1884263"><ele>469.0</ele><time>2026-04-12T15:04:06.092Z</time></trkpt><trkpt lat="43.1891067" lon="11.1883923"><ele>469.0</ele><time>2026-04-12T15:04:08.091Z</time></trkpt><trkpt lat="43.1892445" lon="11.1883242"><ele>468.6</ele><time>2026-04-12T15:04:11.098Z</time></trkpt><trkpt lat="43.1893127" lon="11.1882622"><ele>468.2</ele><time>2026-04-12T15:04:13.097Z</time></trkpt><trkpt lat="43.1893743" lon="11.1881737"><ele>467.80000000000007</ele><time>2026-04-12T15:04:15.103Z</time></trkpt><trkpt lat="43.1894297" lon="11.1880552"><ele>467.40000000000003</ele><time>2026-04-12T15:04:17.088Z</time></trkpt><trkpt lat="43.1895051" lon="11.1879354"><ele>467.0</ele><time>2026-04-12T15:04:19.068Z</time></trkpt><trkpt lat="43.189612" lon="11.1877728"><ele>467.0</ele><time>2026-04-12T15:04:22.093Z</time></trkpt><trkpt lat="43.1896825" lon="11.1876782"><ele>467.00000000000006</ele><time>2026-04-12T15:04:24.082Z</time></trkpt><trkpt lat="43.1897583" lon="11.1876052"><ele>467.00000000000006</ele><time>2026-04-12T15:04:26.08Z</time></trkpt><trkpt lat="43.1898476" lon="11.1875645"><ele>467.0</ele><time>2026-04-12T15:04:28.094Z</time></trkpt><trkpt lat="43.1899451" lon="11.187513"><ele>467.0</ele><time>2026-04-12T15:04:30.085Z</time></trkpt><trkpt lat="43.1900379" lon="11.1874619"><ele>466.66666666666663</ele><time>2026-04-12T15:04:32.092Z</time></trkpt><trkpt lat="43.1901287" lon="11.1874178"><ele>466.3333333333333</ele><time>2026-04-12T15:04:34.084Z</time></trkpt><trkpt lat="43.1902112" lon="11.1873776"><ele>466.0</ele><time>2026-04-12T15:04:36.088Z</time></trkpt><trkpt lat="43.1902857" lon="11.1873203"><ele>465.66666666666663</ele><time>2026-04-12T15:04:38.087Z</time></trkpt><trkpt lat="43.190359" lon="11.1872525"><ele>465.3333333333333</ele><time>2026-04-12T15:04:40.085Z</time></trkpt><trkpt lat="43.1904327" lon="11.1871966"><ele>465.0</ele><time>2026-04-12T15:04:42.077Z</time></trkpt><trkpt lat="43.1905148" lon="11.1871489"><ele>465.0</ele><time>2026-04-12T15:04:44.09Z</time></trkpt><trkpt lat="43.1906024" lon="11.1870871"><ele>465.0</ele><time>2026-04-12T15:04:46.084Z</time></trkpt><trkpt lat="43.1906841" lon="11.1870095"><ele>465.0</ele><time>2026-04-12T15:04:48.095Z</time></trkpt><trkpt lat="43.1907602" lon="11.1869183"><ele>465.0</ele><time>2026-04-12T15:04:50.094Z</time></trkpt><trkpt lat="43.1908375" lon="11.186825"><ele>465.0</ele><time>2026-04-12T15:04:52.093Z</time></trkpt><trkpt lat="43.1909189" lon="11.1867225"><ele>465.5</ele><time>2026-04-12T15:04:54.076Z</time></trkpt><trkpt lat="43.1910104" lon="11.1866367"><ele>466.0</ele><time>2026-04-12T15:04:56.09Z</time></trkpt><trkpt lat="43.1911251" lon="11.1865832"><ele>466.5</ele><time>2026-04-12T15:04:58.09Z</time></trkpt><trkpt lat="43.1912398" lon="11.1865908"><ele>467.0</ele><time>2026-04-12T15:05:00.156Z</time></trkpt><trkpt lat="43.1913436" lon="11.1866169"><ele>467.0</ele><time>2026-04-12T15:05:02.134Z</time></trkpt><trkpt lat="43.1914496" lon="11.1866334"><ele>467.00000000000006</ele><time>2026-04-12T15:05:04.135Z</time></trkpt><trkpt lat="43.1915586" lon="11.186623"><ele>467.00000000000006</ele><time>2026-04-12T15:05:06.145Z</time></trkpt><trkpt lat="43.1916584" lon="11.186591"><ele>467.0</ele><time>2026-04-12T15:05:08.141Z</time></trkpt><trkpt lat="43.1917459" lon="11.1865308"><ele>467.0</ele><time>2026-04-12T15:05:10.135Z</time></trkpt><trkpt lat="43.1918374" lon="11.1864648"><ele>466.0</ele><time>2026-04-12T15:05:12.139Z</time></trkpt><trkpt lat="43.1919378" lon="11.186449"><ele>465.00000000000006</ele><time>2026-04-12T15:05:14.145Z</time></trkpt><trkpt lat="43.1920333" lon="11.1864636"><ele>464.00000000000006</ele><time>2026-04-12T15:05:16.137Z</time></trkpt><trkpt lat="43.1921245" lon="11.18651"><ele>463.0</ele><time>2026-04-12T15:05:18.136Z</time></trkpt><trkpt lat="43.1922132" lon="11.1865855"><ele>462.0</ele><time>2026-04-12T15:05:20.137Z</time></trkpt><trkpt lat="43.1922954" lon="11.1866795"><ele>459.6</ele><time>2026-04-12T15:05:22.13Z</time></trkpt><trkpt lat="43.19238" lon="11.1867791"><ele>457.20000000000005</ele><time>2026-04-12T15:05:24.142Z</time></trkpt><trkpt lat="43.1924661" lon="11.1868778"><ele>454.8</ele><time>2026-04-12T15:05:26.14Z</time></trkpt><trkpt lat="43.1925585" lon="11.1869849"><ele>452.4</ele><time>2026-04-12T15:05:28.148Z</time></trkpt><trkpt lat="43.1926101" lon="11.1870346"><ele>450.0</ele><time>2026-04-12T15:05:29.144Z</time></trkpt><trkpt lat="43.1926655" lon="11.1870866"><ele>450.0</ele><time>2026-04-12T15:05:30.143Z</time></trkpt><trkpt lat="43.1927283" lon="11.1871428"><ele>450.0</ele><time>2026-04-12T15:05:31.141Z</time></trkpt><trkpt lat="43.1927843" lon="11.1872025"><ele>450.0</ele><time>2026-04-12T15:05:32.137Z</time></trkpt><trkpt lat="43.1928365" lon="11.1872599"><ele>450.0</ele><time>2026-04-12T15:05:33.142Z</time></trkpt><trkpt lat="43.1929101" lon="11.1873599"><ele>450.0</ele><time>2026-04-12T15:05:35.143Z</time></trkpt><trkpt lat="43.1929863" lon="11.1874523"><ele>450.0</ele><time>2026-04-12T15:05:37.14Z</time></trkpt><trkpt lat="43.1930843" lon="11.1875775"><ele>449.1666666666667</ele><time>2026-04-12T15:05:39.15Z</time></trkpt><trkpt lat="43.1931381" lon="11.1876515"><ele>448.33333333333337</ele><time>2026-04-12T15:05:40.084Z</time></trkpt><trkpt lat="43.1932032" lon="11.1877238"><ele>447.5</ele><time>2026-04-12T15:05:41.082Z</time></trkpt><trkpt lat="43.1932845" lon="11.1877808"><ele>446.6666666666667</ele><time>2026-04-12T15:05:42.083Z</time></trkpt><trkpt lat="43.1933682" lon="11.1878284"><ele>445.83333333333337</ele><time>2026-04-12T15:05:43.087Z</time></trkpt><trkpt lat="43.1934363" lon="11.1878729"><ele>445.0</ele><time>2026-04-12T15:05:44.088Z</time></trkpt><trkpt lat="43.1935411" lon="11.1879522"><ele>445.0</ele><time>2026-04-12T15:05:46.09Z</time></trkpt><trkpt lat="43.1936501" lon="11.1880181"><ele>445.0</ele><time>2026-04-12T15:05:48.097Z</time></trkpt><trkpt lat="43.1937642" lon="11.1880427"><ele>445.0</ele><time>2026-04-12T15:05:50.086Z</time></trkpt><trkpt lat="43.1938748" lon="11.1880384"><ele>445.0</ele><time>2026-04-12T15:05:52.092Z</time></trkpt><trkpt lat="43.1939913" lon="11.1880546"><ele>443.2</ele><time>2026-04-12T15:05:54.083Z</time></trkpt><trkpt lat="43.1940564" lon="11.1880707"><ele>441.4</ele><time>2026-04-12T15:05:55.091Z</time></trkpt><trkpt lat="43.1941723" lon="11.1880886"><ele>439.6</ele><time>2026-04-12T15:05:57.081Z</time></trkpt><trkpt lat="43.1942957" lon="11.188084"><ele>437.8</ele><time>2026-04-12T15:05:59.1Z</time></trkpt><trkpt lat="43.1944247" lon="11.1880492"><ele>436.0</ele><time>2026-04-12T15:06:01.092Z</time></trkpt><trkpt lat="43.1944944" lon="11.1880227"><ele>436.00000000000006</ele><time>2026-04-12T15:06:02.087Z</time></trkpt><trkpt lat="43.1945617" lon="11.1880034"><ele>436.0</ele><time>2026-04-12T15:06:03.093Z</time></trkpt><trkpt lat="43.1946314" lon="11.188003"><ele>436.0</ele><time>2026-04-12T15:06:04.097Z</time></trkpt><trkpt lat="43.1946961" lon="11.1880034"><ele>436.0</ele><time>2026-04-12T15:06:05.088Z</time></trkpt><trkpt lat="43.1948152" lon="11.1879608"><ele>436.00000000000006</ele><time>2026-04-12T15:06:07.087Z</time></trkpt><trkpt lat="43.1948686" lon="11.1878909"><ele>436.0</ele><time>2026-04-12T15:06:08.085Z</time></trkpt><trkpt lat="43.194911" lon="11.1877947"><ele>435.2857142857143</ele><time>2026-04-12T15:06:09.078Z</time></trkpt><trkpt lat="43.1949464" lon="11.1876998"><ele>434.57142857142856</ele><time>2026-04-12T15:06:10.078Z</time></trkpt><trkpt lat="43.1949876" lon="11.187614"><ele>433.8571428571429</ele><time>2026-04-12T15:06:11.08Z</time></trkpt><trkpt lat="43.1950226" lon="11.1875363"><ele>433.1428571428571</ele><time>2026-04-12T15:06:12.092Z</time></trkpt><trkpt lat="43.1950615" lon="11.1874549"><ele>432.4285714285714</ele><time>2026-04-12T15:06:13.094Z</time></trkpt><trkpt lat="43.1950932" lon="11.1873742"><ele>431.7142857142857</ele><time>2026-04-12T15:06:14.085Z</time></trkpt><trkpt lat="43.1951157" lon="11.1872875"><ele>431.0</ele><time>2026-04-12T15:06:15.087Z</time></trkpt><trkpt lat="43.1951282" lon="11.1871937"><ele>430.42857142857144</ele><time>2026-04-12T15:06:16.078Z</time></trkpt><trkpt lat="43.1951395" lon="11.1870998"><ele>429.85714285714283</ele><time>2026-04-12T15:06:17.082Z</time></trkpt><trkpt lat="43.1951519" lon="11.1870059"><ele>429.2857142857143</ele><time>2026-04-12T15:06:18.094Z</time></trkpt><trkpt lat="43.1951652" lon="11.1869155"><ele>428.7142857142857</ele><time>2026-04-12T15:06:19.068Z</time></trkpt><trkpt lat="43.1951795" lon="11.1868179"><ele>428.1428571428571</ele><time>2026-04-12T15:06:20.097Z</time></trkpt><trkpt lat="43.1951852" lon="11.1867196"><ele>427.57142857142856</ele><time>2026-04-12T15:06:21.072Z</time></trkpt><trkpt lat="43.1951913" lon="11.1866256"><ele>427.0</ele><time>2026-04-12T15:06:22.087Z</time></trkpt><trkpt lat="43.1952081" lon="11.1864556"><ele>426.20000000000005</ele><time>2026-04-12T15:06:24.075Z</time></trkpt><trkpt lat="43.1952348" lon="11.1863745"><ele>425.40000000000003</ele><time>2026-04-12T15:06:25.097Z</time></trkpt><trkpt lat="43.1952946" lon="11.1862444"><ele>424.6</ele><time>2026-04-12T15:06:27.091Z</time></trkpt><trkpt lat="43.1953341" lon="11.1861273"><ele>423.79999999999995</ele><time>2026-04-12T15:06:29.094Z</time></trkpt><trkpt lat="43.1953373" lon="11.1860055"><ele>423.0</ele><time>2026-04-12T15:06:31.073Z</time></trkpt><trkpt lat="43.1952647" lon="11.185852"><ele>423.0</ele><time>2026-04-12T15:06:33.078Z</time></trkpt><trkpt lat="43.1952139" lon="11.1857716"><ele>423.0</ele><time>2026-04-12T15:06:34.092Z</time></trkpt><trkpt lat="43.195177" lon="11.1856928"><ele>423.0</ele><time>2026-04-12T15:06:35.081Z</time></trkpt><trkpt lat="43.1951514" lon="11.1856041"><ele>423.0</ele><time>2026-04-12T15:06:36.098Z</time></trkpt><trkpt lat="43.1951244" lon="11.1854438"><ele>423.0</ele><time>2026-04-12T15:06:38.088Z</time></trkpt><trkpt lat="43.1951238" lon="11.1853571"><ele>423.0</ele><time>2026-04-12T15:06:39.096Z</time></trkpt><trkpt lat="43.1951235" lon="11.1852661"><ele>422.0</ele><time>2026-04-12T15:06:40.095Z</time></trkpt><trkpt lat="43.1951179" lon="11.1851776"><ele>421.0</ele><time>2026-04-12T15:06:41.092Z</time></trkpt><trkpt lat="43.1950998" lon="11.1850131"><ele>420.0</ele><time>2026-04-12T15:06:43.091Z</time></trkpt><trkpt lat="43.1951048" lon="11.1848473"><ele>419.0</ele><time>2026-04-12T15:06:45.087Z</time></trkpt><trkpt lat="43.1951135" lon="11.1847542"><ele>418.0</ele><time>2026-04-12T15:06:46.103Z</time></trkpt><trkpt lat="43.1951192" lon="11.1846664"><ele>417.0</ele><time>2026-04-12T15:06:47.094Z</time></trkpt><trkpt lat="43.1951348" lon="11.1845077"><ele>415.6</ele><time>2026-04-12T15:06:49.091Z</time></trkpt><trkpt lat="43.1951595" lon="11.1843656"><ele>414.20000000000005</ele><time>2026-04-12T15:06:51.077Z</time></trkpt><trkpt lat="43.1951881" lon="11.1842375"><ele>412.8</ele><time>2026-04-12T15:06:53.093Z</time></trkpt><trkpt lat="43.1952343" lon="11.1841139"><ele>411.4</ele><time>2026-04-12T15:06:55.089Z</time></trkpt><trkpt lat="43.1952996" lon="11.1839915"><ele>410.0</ele><time>2026-04-12T15:06:57.09Z</time></trkpt><trkpt lat="43.1953721" lon="11.1838672"><ele>410.14285714285717</ele><time>2026-04-12T15:06:59.091Z</time></trkpt><trkpt lat="43.1954122" lon="11.1837949"><ele>410.2857142857143</ele><time>2026-04-12T15:07:00.081Z</time></trkpt><trkpt lat="43.195452" lon="11.1837204"><ele>410.42857142857144</ele><time>2026-04-12T15:07:01.085Z</time></trkpt><trkpt lat="43.1954929" lon="11.1836469"><ele>410.57142857142856</ele><time>2026-04-12T15:07:02.09Z</time></trkpt><trkpt lat="43.1955377" lon="11.1835733"><ele>410.71428571428567</ele><time>2026-04-12T15:07:03.097Z</time></trkpt><trkpt lat="43.19558" lon="11.1835014"><ele>410.85714285714283</ele><time>2026-04-12T15:07:04.071Z</time></trkpt><trkpt lat="43.1956214" lon="11.183434"><ele>411.0</ele><time>2026-04-12T15:07:05.09Z</time></trkpt><trkpt lat="43.1957064" lon="11.1833191"><ele>411.0</ele><time>2026-04-12T15:07:07.093Z</time></trkpt><trkpt lat="43.195753" lon="11.1832581"><ele>411.0</ele><time>2026-04-12T15:07:08.088Z</time></trkpt><trkpt lat="43.1957977" lon="11.1831914"><ele>411.0</ele><time>2026-04-12T15:07:09.097Z</time></trkpt><trkpt lat="43.1958429" lon="11.1831152"><ele>411.0</ele><time>2026-04-12T15:07:10.102Z</time></trkpt><trkpt lat="43.1958926" lon="11.1830322"><ele>411.0</ele><time>2026-04-12T15:07:11.093Z</time></trkpt><trkpt lat="43.1959375" lon="11.1829435"><ele>411.0</ele><time>2026-04-12T15:07:12.09Z</time></trkpt><trkpt lat="43.1959778" lon="11.1828538"><ele>411.0</ele><time>2026-04-12T15:07:13.083Z</time></trkpt><trkpt lat="43.1960108" lon="11.1827668"><ele>410.5</ele><time>2026-04-12T15:07:14.089Z</time></trkpt><trkpt lat="43.1960401" lon="11.1826782"><ele>410.0</ele><time>2026-04-12T15:07:15.096Z</time></trkpt><trkpt lat="43.1960645" lon="11.1825852"><ele>409.5</ele><time>2026-04-12T15:07:16.099Z</time></trkpt><trkpt lat="43.1960905" lon="11.1824915"><ele>409.0</ele><time>2026-04-12T15:07:17.089Z</time></trkpt><trkpt lat="43.1961237" lon="11.182409"><ele>408.5</ele><time>2026-04-12T15:07:18.088Z</time></trkpt><trkpt lat="43.1962111" lon="11.1823108"><ele>408.0</ele><time>2026-04-12T15:07:20.078Z</time></trkpt><trkpt lat="43.1963029" lon="11.1822699"><ele>407.59999999999997</ele><time>2026-04-12T15:07:22.094Z</time></trkpt><trkpt lat="43.1964063" lon="11.1822201"><ele>407.2</ele><time>2026-04-12T15:07:24.09Z</time></trkpt><trkpt lat="43.1965087" lon="11.1821486"><ele>406.8</ele><time>2026-04-12T15:07:26.084Z</time></trkpt><trkpt lat="43.1966178" lon="11.1820536"><ele>406.4</ele><time>2026-04-12T15:07:28.099Z</time></trkpt><trkpt lat="43.1966718" lon="11.1819991"><ele>406.0</ele><time>2026-04-12T15:07:29.091Z</time></trkpt><trkpt lat="43.1967246" lon="11.1819368"><ele>407.14285714285717</ele><time>2026-04-12T15:07:30.095Z</time></trkpt><trkpt lat="43.1967698" lon="11.181875"><ele>408.2857142857143</ele><time>2026-04-12T15:07:31.093Z</time></trkpt><trkpt lat="43.1968125" lon="11.1818025"><ele>409.42857142857144</ele><time>2026-04-12T15:07:32.092Z</time></trkpt><trkpt lat="43.1968597" lon="11.1817307"><ele>410.57142857142856</ele><time>2026-04-12T15:07:33.084Z</time></trkpt><trkpt lat="43.1969097" lon="11.1816615"><ele>411.7142857142857</ele><time>2026-04-12T15:07:34.1Z</time></trkpt><trkpt lat="43.1969575" lon="11.1815976"><ele>412.8571428571429</ele><time>2026-04-12T15:07:35.097Z</time></trkpt><trkpt lat="43.1970046" lon="11.1815359"><ele>414.0</ele><time>2026-04-12T15:07:36.091Z</time></trkpt><trkpt lat="43.1970532" lon="11.1814789"><ele>414.2</ele><time>2026-04-12T15:07:37.092Z</time></trkpt><trkpt lat="43.1971451" lon="11.1813933"><ele>414.4</ele><time>2026-04-12T15:07:39.092Z</time></trkpt><trkpt lat="43.1972558" lon="11.1813401"><ele>414.6</ele><time>2026-04-12T15:07:41.076Z</time></trkpt><trkpt lat="43.1973284" lon="11.1813504"><ele>414.8</ele><time>2026-04-12T15:07:42.073Z</time></trkpt><trkpt lat="43.1974067" lon="11.1813676"><ele>415.0</ele><time>2026-04-12T15:07:43.083Z</time></trkpt><trkpt lat="43.1974859" lon="11.1813755"><ele>415.1666666666667</ele><time>2026-04-12T15:07:44.103Z</time></trkpt><trkpt lat="43.1975558" lon="11.1813778"><ele>415.33333333333337</ele><time>2026-04-12T15:07:45.075Z</time></trkpt><trkpt lat="43.1976317" lon="11.1813768"><ele>415.5</ele><time>2026-04-12T15:07:46.082Z</time></trkpt><trkpt lat="43.197705" lon="11.1813652"><ele>415.66666666666663</ele><time>2026-04-12T15:07:47.09Z</time></trkpt><trkpt lat="43.1977767" lon="11.1813442"><ele>415.8333333333333</ele><time>2026-04-12T15:07:48.09Z</time></trkpt><trkpt lat="43.197851" lon="11.1813183"><ele>416.0</ele><time>2026-04-12T15:07:49.093Z</time></trkpt><trkpt lat="43.1979282" lon="11.1812799"><ele>415.99999999999994</ele><time>2026-04-12T15:07:50.1Z</time></trkpt><trkpt lat="43.1980015" lon="11.1812399"><ele>416.0</ele><time>2026-04-12T15:07:51.073Z</time></trkpt><trkpt lat="43.1980725" lon="11.1811977"><ele>416.0</ele><time>2026-04-12T15:07:52.086Z</time></trkpt><trkpt lat="43.198139" lon="11.1811598"><ele>416.0</ele><time>2026-04-12T15:07:53.088Z</time></trkpt><trkpt lat="43.1981985" lon="11.1811293"><ele>415.99999999999994</ele><time>2026-04-12T15:07:54.094Z</time></trkpt><trkpt lat="43.1983145" lon="11.1810898"><ele>416.0</ele><time>2026-04-12T15:07:56.095Z</time></trkpt><trkpt lat="43.1984291" lon="11.1810642"><ele>415.99999999999994</ele><time>2026-04-12T15:07:58.092Z</time></trkpt><trkpt lat="43.1985426" lon="11.1810597"><ele>416.0</ele><time>2026-04-12T15:08:00.072Z</time></trkpt><trkpt lat="43.1986553" lon="11.1810768"><ele>416.0</ele><time>2026-04-12T15:08:02.091Z</time></trkpt><trkpt lat="43.1987192" lon="11.1811005"><ele>416.0</ele><time>2026-04-12T15:08:03.075Z</time></trkpt><trkpt lat="43.1987817" lon="11.1811246"><ele>415.99999999999994</ele><time>2026-04-12T15:08:04.094Z</time></trkpt><trkpt lat="43.1988518" lon="11.1811486"><ele>416.0</ele><time>2026-04-12T15:08:05.092Z</time></trkpt><trkpt lat="43.198915" lon="11.1811735"><ele>416.0</ele><time>2026-04-12T15:08:06.102Z</time></trkpt></trkseg></trk></gpx>